     2.10           OBSERVATION DATA    G (GPS)             RINEX VERSION / TYPE
teqc 2002Mar14 SOPAC 20050725 21:29:24UTC                   PGM / RUN BY / DATE
Linux 2.0.36|Pentium II|gcc -static|Linux|486/DX+           COMMENT
BIT 2 OF LLI FLAGS DATA COLLECTED UNDER A/S CONDITION       COMMENT
1 MEN 59.95                                                 MARKER NAME
1213                                                        MARKER NUMBER
Rick Beale                                                  OBSERVER / AGENCY
0220188104 TRIMBLE 5700                                     REC # / TYPE / VERS
0220187081 TRM33429.00+GP NONE                              ANT # / TYPE
 -2745161.0000 -4099442.0000  4028640.0000                  APPROX POSITION XYZ
        1.8000        0.0000        0.0000                  ANTENNA: DELTA H/E/N
     1     1                                                WAVELENGTH FACT L1/2
     6    L1    L2    C1    P2    P1    D1                  # / TYPES OF OBSERV
    15.0000                                                 INTERVAL
Northern California Height Modernization 2004               COMMENT
                                                            COMMENT
SOPAC - Scripps Orbit and Permanent Array Center            COMMENT
IGPP - Institute of Geophysics and Planetary Physics        COMMENT
SIO - Scripps Institution of Oceanography                   COMMENT
UCSD - University of California, San Diego                  COMMENT
                                                            COMMENT
email: archive@gpsmail.ucsd.edu                             COMMENT
ftp://garner.ucsd.edu                                       COMMENT
http://sopac.ucsd.edu                                       COMMENT
                                                            COMMENT
                                                            COMMENT
Approximate Lat, Lon : 39.421, -123.808                     COMMENT
                                                            COMMENT
SNR is mapped to RINEX snr flag value [1-9]                 COMMENT
L1: 3 -> 1; 8 -> 5; 40 -> 9                                 COMMENT
L2: 1 -> 1; 5 -> 5; 60 -> 9                                 COMMENT
  2004     9    14    20    37   15.0000000     GPS         TIME OF FIRST OBS
                                                            END OF HEADER
 04  9 14 20 37 15.0000000  0  6G 3G 8G13G16G23G27
    -31847.51159    -20111.23457  23167846.5234   23167844.3954
      1617.4694
    -57738.05459    -31120.33857  22732883.9774   22732882.2624
      2967.1564
    -13320.04259    -10512.78358  20131154.6644   20131150.0704
       684.0474
     54036.56659     21312.02757  24049915.3914   24049913.4344
     -2829.2344
     33066.39759     15539.02958  21311584.7114   21311578.9144
     -1696.0944
    -33299.71059    -19686.62858  21357954.5164   21357951.2274
      1711.8914
 04  9 14 20 37 30.0000000  0  6G 3G 8G13G16G23G27
    -56092.74149    -39003.59447  23163233.3594   23163230.4654
      1614.8754
   -102266.09349    -65817.50347  22724410.2814   22724408.3714
      2969.6254
    -23571.27149    -18500.76748  20129203.5394   20129199.1484
       682.4694
     96455.06849     54365.36647  24057986.6094   24057984.3054
     -2827.0784
     58509.88049     35365.08148  21316426.3914   21316420.6054
     -1696.7344
    -58997.73749    -39711.07748  21353064.1644   21353061.1564
      1714.1254
 04  9 14 20 37 45.0000000  0  6G 3G 8G13G16G23G27
    -80284.75149    -57854.48647  23158629.4774   23158626.9024
      1610.6094
   -146817.44949   -100532.83147  22715933.0864   22715930.1484
      2970.3754
    -33785.72949    -26460.10148  20127260.1334   20127255.3404
       679.2504
    138855.72549     87404.81646  24066056.2974   24066053.1094
     -2826.6414
     83975.01349     55208.02648  21321272.2504   21321266.3524
     -1698.8124
    -84716.79649    -59751.90848  21348170.3674   21348167.0824
      1714.9224
 04  9 14 20 38  0.0000000  0  6G 3G 8G13G16G23G27
   -104409.84049    -76653.28447  23154038.8364   23154036.1214
      1605.9694
   -191378.69849   -135255.87547  22707453.2814   22707450.1804
      2970.9064
    -43949.69849    -34380.08648  20125325.8984   20125321.2384
       675.7344
    181251.88849    120440.79946  24074123.3984   24074120.8324
     -2826.4694
    109475.29849     75078.34148  21326124.8524   21326118.6994
     -1701.2814
   -110443.31049    -79798.53548  21343274.9454   21343271.4414
      1715.1564
 04  9 14 20 38 15.0000000  0  6G 3G 8G13G16G23G27
   -128458.12749    -95392.16847  23149461.8984   23149459.6604
      1600.3444
   -235940.05049   -169978.98647  22698973.4064   22698970.9144
      2970.5164
    -54053.52249    -42253.20248  20123403.1724   20123398.2734
       671.3444
    223652.91349    153480.48847  24082191.8364   24082189.7774
     -2827.0474
    135020.39949     94983.59248  21330985.8284   21330980.0474
     -1704.7814
   -136167.76549    -99843.56848  21338379.2504   21338376.2114
      1714.6564
 04  9 14 20 38 30.0000000  0  6G 3G 8G13G16G23G27
   -152418.19049   -114062.33047  23144902.9774   23144900.2704
      1594.1724
   -280490.48549   -204693.58547  22690495.5944   22690493.0044
      2969.4844
    -64085.78549    -50070.55748  20121493.9064   20121489.8164
       666.1724
    266069.52149    186532.32546  24090263.4924   24090261.7934
     -2828.4374
    160621.13649    114932.19448  21335857.8134   21335851.5394
     -1708.7814
   -161879.01349   -119878.31548  21333487.1174   21333483.2504
      1713.4224
 04  9 14 20 38 45.0000000  0  6G 3G 8G13G16G23G27
   -176283.02049   -132658.27947  23140361.3594   23140358.8324
      1587.5944
   -325023.16049   -239394.35147  22682021.2194   22682019.3244
      2968.0004
    -74039.66749    -57826.83748  20119599.7424   20119595.2894
       660.7664
    308508.27349    219601.47946  24098339.9534   24098337.1524
     -2830.1254
    186284.49749    134929.60248  21340741.1804   21340735.3834
     -1713.2034
   -187570.24949   -139897.44848  21328597.9224   21328594.5784
      1711.8594
 04  9 14 20 39  0.0000000  0  6G 3G 8G13G16G23G27
   -200041.88249   -151171.65447  23135840.2344   23135838.3014
      1580.3754
   -369527.62249   -274073.13247  22673552.1024   22673549.3714
      2965.9694
    -83904.53849    -65513.75748  20117722.9304   20117718.2344
       654.6254
    350979.34749    252695.75947  24106422.2344   24106419.5824
     -2832.4844
    212020.77749    154983.82548  21345638.4304   21345632.9414
     -1718.2344
   -213231.09049   -159892.91648  21323714.7974   21323711.2504
      1709.6724
 04  9 14 20 39 15.0000000  0  6G 3G 8G13G16G23G27
   -223689.76749   -169598.58047  23131339.9614   23131338.6564
      1572.6564
   -413998.86749   -308726.03947  22665090.0474   22665087.0354
      2963.4224
    -93675.40049    -73127.42248  20115862.8204   20115858.4924
       648.1094
    393487.15249    285818.74846  24114510.5314   24114508.1374
     -2835.2034
    237834.71649    175098.56048  21350551.3524   21350545.0204
     -1723.7344
   -238856.83549   -179861.02548  21318838.3834   21318835.2934
      1707.0634
 04  9 14 20 39 30.0000000  0  6G 3G 8G13G16G23G27
   -247221.53949   -187935.00047  23126862.0084   23126860.3164
      1564.8134
   -458432.11349   -343349.31847  22656634.0314   22656631.6724
      2960.8754
   -103347.37449    -80664.02048  20114022.9304   20114018.2074
       641.4384
    436036.16749    318973.78946  24122608.2194   24122605.2704
     -2838.0004
    263731.04549    195277.49348  21355478.9304   21355473.3134
     -1729.1874
   -264442.59749   -199797.96848  21313969.8284   21313966.2584
      1704.3134
 04  9 14 20 39 45.0000000  0  6G 3G 8G13G16G23G27
   -270632.64449   -206177.38747  23122407.3524   23122404.9454
      1556.6094
   -502823.11649   -377939.69547  22648186.8594   22648184.5234
      2957.9224
   -112916.09149    -88120.16748  20112201.9534   20112197.3364
       634.3754
    478630.50449    352164.18046  24130713.7344   24130710.2464
     -2841.2034
    289713.99649    215523.92548  21360423.4144   21360417.4654
     -1735.1414
   -289984.05049   -219700.40848  21309109.1884   21309105.6724
      1701.2504
 04  9 14 20 40  0.0000000  0  6G 3G 8G13G16G23G27
   -293921.31049   -224324.38647  23117975.5704   23117973.0554
      1548.4384
   -547170.14549   -412495.80347  22639748.1334   22639745.1024
      2955.0164
   -122379.77949    -95494.47648  20110401.2114   20110396.6374
       627.4384
    521271.44149    385390.83646  24138827.2424   24138824.7234
     -2844.1874
    315785.01749    235838.97548  21365384.2114   21365378.5554
     -1741.0474
   -315479.83349   -239567.25248  21304257.3914   21304254.0744
      1698.1884
 04  9 14 20 40 15.0000000  0  6G 3G 8G13G23G27G19
   -317084.98249   -242373.97747  23113567.9774   23113566.1884
      1540.1564
   -591470.72149   -447015.70947  22631317.5084   22631315.1604
      2951.8284
   -131735.90649   -102784.97448  20108620.6334   20108615.5554
       620.1884
    341946.43649    256224.46748  21370362.9224   21370357.0394
     -1747.0784
   -340927.41849   -259396.54048  21299415.3054   21299411.7854
      1694.9224
   -123680.12459    -92538.96757  24040630.3834   24040627.1914
      3057.5784
 04  9 14 20 40 30.0000000  0  6G 3G 8G13G23G27G19
   -340123.30849   -260325.91347  23109182.8834   23109181.5864
      1531.6254
   -635724.94849   -481499.49547  22622896.4304   22622893.7704
      2948.7194
   -140984.20649   -109991.44248  20106860.6724   20106856.2504
       612.8754
    368198.30549    276680.45248  21375358.2274   21375352.3134
     -1753.1724
   -366326.79749   -279188.25348  21294581.5864   21294578.5704
      1691.6094
   -169520.55849   -128258.75847  24031907.3984   24031904.2854
      3054.5164
 04  9 14 20 40 45.0000000  0  6G 3G 8G13G23G27G19
   -363034.87849   -278179.06547  23104823.4614   23104821.3364
      1523.3134
   -679931.61749   -515946.22247  22614484.3914   22614481.4104
      2945.6254
   -150123.40649   -117112.90148  20105121.6954   20105116.8094
       605.7814
    394541.66549    297207.72248  21380371.1644   21380365.6844
     -1759.1254
   -391676.88349   -298941.56148  21289757.7894   21289754.5634
      1688.4844
   -215315.88649   -163943.34647  24023193.0164   24023189.6134
      3051.6254
 04  9 14 20 41  0.0000000  0  6G 3G 8G13G23G27G19
   -385821.06349   -295934.51347  23100487.6414   23100485.8674
      1514.9384
   -724092.10649   -550356.98747  22606080.8984   22606078.2344
      2942.5004
   -159155.06049   -124150.56748  20103402.8674   20103397.8204
       598.4844
    420974.85749    317804.98648  21385401.3754   21385395.8284
     -1765.2974
   -416979.33549   -318657.76148  21284942.9614   21284939.2934
      1685.1884
   -261067.35249   -199593.78847  24014486.1724   24014483.2034
      3048.4694
 04  9 14 20 41 15.0000000  0  6G 3G 8G13G23G27G19
   -408480.11149   -313590.88247  23096175.3594   23096173.4734
      1506.4534
   -768204.98749   -584730.63647  22597686.2814   22597684.1294
      2939.3134
   -168077.50349   -131103.11648  20101705.1334   20101700.7114
       591.2504
    447499.32449    338473.37848  21390449.0704   21390443.3674
     -1771.3124
   -442232.67049   -338335.67948  21280137.3134   21280133.5124
      1682.0004
   -306773.19149   -235208.68247  24005788.2814   24005786.0554
      3045.5944
 04  9 14 20 41 30.0000000  0  6G 3G 8G13G23G27G19
   -431012.98749   -331148.96347  23091887.8674   23091885.7584
      1497.8134
   -812271.39949   -619068.07347  22589300.6954   22589298.1764
      2936.0634
   -176891.83549   -137971.43048  20100028.0784   20100023.1294
       583.8444
    474113.67249    359211.81348  21395513.8134   21395507.6484
     -1777.4374
   -467438.21649   -357976.35748  21275340.9534   21275337.4224
      1678.6254
   -352434.11149   -270788.55747  23997100.3054   23997097.8284
      3042.3914
 04  9 14 20 41 45.0000000  0  6G 3G 8G13G23G27G19
   -453419.04449   -348608.21947  23087623.9844   23087621.6644
      1489.6724
   -856291.05049   -653369.09647  22580924.1564   22580921.5314
      2933.2194
   -185597.50949   -144755.07048  20098371.1884   20098366.5044
       576.8754
    500818.29349    380020.57748  21400595.3364   21400589.4064
     -1783.1254
   -492595.41449   -377579.37048  21270553.8674   21270549.7734
      1675.7194
   -398049.32549   -306332.83747  23988419.7734   23988416.5354
      3039.6254
 04  9 14 20 42  0.0000000  0  6G 3G 8G13G23G27G19
   -475700.20249   -365970.14547  23083383.7584   23083381.9024
      1481.2664
   -900265.99249   -687635.26347  22572555.9454   22572553.6174
      2930.0944
   -194196.41549   -151455.52848  20096734.7894   20096730.4304
       569.6094
    527611.03149    400898.01548  21405693.5314   21405687.9964
     -1789.2034
   -517706.44349   -397146.39948  21265775.2034   21265771.4384
      1672.4844
   -443620.46049   -341842.79347  23979747.0394   23979744.3714
      3036.5944
 04  9 14 20 42 15.0000000  0  6G 3G 8G13G23G27G19
   -497853.82649   -383232.70147  23079167.8754   23079166.3754
      1472.4694
   -944193.81749   -721864.72447  22564196.5474   22564193.8714
      2926.7344
   -202686.07649   -158070.84848  20095119.3834   20095114.7624
       562.1724
    554494.15949    421845.88248  21410809.2504   21410803.9384
     -1795.3444
   -542768.93449   -416675.61048  21261005.7974   21261002.6294
      1669.1254
   -489144.78849   -377316.24447  23971084.3834   23971080.7384
      3033.2814
 04  9 14 20 42 30.0000000  0  6G 3G 8G13G23G27G19
   -519874.59249   -400391.72447  23074977.8674   23074976.2074
      1463.5314
   -988069.23549   -756053.34247  22555847.3834   22555844.7114
      2923.2034
   -211061.31349   -164597.01548  20093525.8204   20093521.0664
       554.4384
    581472.75249    442868.13348  21415943.4614   21415937.2194
     -1801.8594
   -567777.80949   -436163.04048  21256246.7814   21256243.3364
      1665.3594
   -534617.04549   -412749.12047  23962431.4064   23962428.4454
      3029.6724
 04  9 14 20 42 45.0000000  0  6G 3G 8G13G23G27G19
   -541762.45749   -417447.18547  23070812.6094   23070810.6604
      1454.8134
  -1031892.56049   -790201.36647  22547508.8834   22547505.4344
      2919.9064
   -219322.12449   -171034.01948  20091953.6724   20091949.2034
       546.9694
    608546.50049    463964.54348  21421095.5164   21421089.6954
     -1808.0004
   -592733.32449   -455608.89648  21251497.8984   21251494.1134
      1661.9694
   -580036.96649   -448141.20247  23953788.1564   23953784.8134
      3026.3914
 04  9 14 20 42 59.9990000  0  6G 3G 8G13G23G27G19
   -563516.08849   -434398.06647  23066673.0584   23066671.1754
      1445.7504
  -1075660.86649   -824306.52147  22539179.3004   22539176.8664
      2916.1724
   -227467.92849   -177381.39348  20090403.5114   20090398.6014
       539.0314
    635713.32349    485133.47948  21426264.8704   21426259.4134
     -1814.5474
   -617634.08549   -475012.07648  21246759.2764   21246755.6324
      1658.2194
   -625401.23549   -483489.93647  23945155.6904   23945152.4644
      3022.5944
 04  9 14 20 43 14.9990000  0  6G 3G 8G13G23G27G19
   -585135.34049   -451244.21947  23062559.1124   23062557.4604
      1437.0004
  -1119377.39349   -858371.32147  22530860.4804   22530857.4724
      2912.8284
   -235497.21749   -183637.98348  20088875.4174   20088870.7844
       531.5634
    662979.46349    506379.80248  21431453.8004   21431448.0424
     -1820.7504
   -642480.70449   -494373.07548  21242031.2374   21242027.6244
      1654.8134
   -670712.97149   -518797.74047  23936532.9644   23936530.2454
      3019.2034
 04  9 14 20 43 29.9990000  0  6G 3G 8G13G23G27G19
   -606621.58449   -467986.73347  23058470.0034   23058468.7724
      1427.9534
  -1163042.40349   -892395.98747  22522550.9334   22522548.5694
      2909.1884
   -243412.23249   -189805.53148  20087369.5344   20087364.6794
       523.8134
    690339.89749    527699.59648  21436659.9804   21436654.2654
     -1827.2344
   -667274.75949   -513693.11348  21237312.9334   21237309.3624
      1651.1414
   -715971.69249   -554064.23347  23927920.3234   23927916.8234
      3015.3754
 04  9 14 20 43 44.9990000  0  6G 3G 8G13G23G27G19
   -627972.80449   -484624.04347  23054407.8004   23054405.2304
      1418.8444
  -1206653.70749   -926378.80547  22514251.9954   22514249.5734
      2905.6564
   -251211.09649   -195882.57348  20085885.5424   20085880.8234
       516.0944
    717796.32449    549094.20048  21441884.9254   21441878.6634
     -1833.6254
   -692014.35849   -532970.71248  21232605.1984   21232602.2374
      1647.5474
   -761175.31749   -589287.80747  23919318.9724   23919315.6124
      3011.7974
 04  9 14 20 43 59.9990000  0  6G 3G 8G13G23G27G19
   -649192.38549   -501158.76247  23050369.7534   23050367.4404
      1410.2974
  -1250215.16249   -960322.77347  22505962.5424   22505959.6204
      2902.4844
   -258897.34249   -201871.86048  20084422.5734   20084418.3944
       508.6884
    745345.10949    570560.77048  21447127.2144   21447121.3084
     -1839.6094
   -716703.10049   -552208.68448  21227907.0114   21227904.0654
      1644.2664
   -806327.03349   -624470.90447  23910726.6514   23910723.5304
      3008.4844
 04  9 14 20 44 14.9990000  0  6G 3G 8G13G23G27G19
   -670280.79449   -517591.28747  23046356.5034   23046354.4724
      1401.5634
  -1293727.18649   -994228.21647  22497682.5974   22497680.1514
      2899.1884
   -266471.47849   -207773.78448  20082981.3004   20082976.6944
       501.2194
    772985.44849    592098.66848  21452387.0194   21452381.5624
     -1845.6724
   -741341.63649   -571407.53848  21223218.9254   21223215.6284
      1640.9064
   -851427.02949   -659613.69347  23902144.4874   23902141.1514
      3004.9694
 04  9 14 20 44 29.9990000  0  6G 3G 8G13G23G27G19
   -691236.11049   -533920.10747  23042368.7694   23042366.7024
      1392.7034
  -1337188.22249  -1028093.94947  22489412.4404   22489409.6324
      2895.9064
   -273931.66949   -213586.91848  20081561.7614   20081557.0854
       493.7664
    800719.13149    613709.31248  21457664.8154   21457658.7924
     -1851.7974
   -765928.37949   -590566.03648  21218539.8704   21218536.2924
      1637.5634
   -896473.36749   -694714.72047  23893572.1124   23893568.2534
      3001.4534
 04  9 14 20 44 44.9990000  0  6G 3G 8G13G23G27G19
   -712061.72649   -550147.83747  23038405.5894   23038403.9014
      1384.0634
  -1380601.97649  -1061922.82447  22481150.7224   22481148.1514
      2892.6254
   -281281.43949   -219314.01848  20080163.0504   20080158.8044
       486.2504
    828542.32049    635389.70848  21462959.4094   21462953.6244
     -1857.9064
   -790466.92949   -609686.97848  21213870.2924   21213867.2024
      1634.3134
   -941469.23849   -729776.38647  23885009.1904   23885006.2614
      2998.0784
 04  9 14 20 44 59.9990000  0  6G 3G 8G13G23G27G19
   -732760.40249   -566276.66347  23034466.8944   23034464.3784
      1375.6254
  -1423971.30449  -1095717.08447  22472897.8864   22472895.4954
      2889.7504
   -288523.61549   -224957.28148  20078784.8554   20078780.2144
       479.1564
    856451.93349    657137.42948  21468270.2924   21468264.4214
     -1863.5474
   -814960.25949   -628772.68448  21209209.5654   21209206.0464
      1631.3914
   -986417.39149   -764800.91047  23876456.1204   23876453.7304
      2994.9534
 04  9 14 20 45 14.9990000  0  6G 3G 8G13G23G27G19
   -753332.21849   -582306.65147  23030551.8154   23030549.9564
      1367.2344
  -1467296.30349  -1129476.81447  22464653.7144   22464650.7574
      2886.9064
   -295658.24549   -230516.73448  20077427.5194   20077422.5654
       472.1724
    884447.75849    678952.34448  21473597.5974   21473591.7924
     -1869.1564
   -839408.67949   -647823.39448  21204557.1754   21204553.9334
      1628.4384
  -1031317.54949   -799787.99147  23867911.9334   23867908.8904
      2991.8134
 04  9 14 20 45 29.9990000  0  6G 3G 8G13G23G27G19
   -773779.13549   -598239.31047  23026661.3394   23026659.2064
      1359.0634
  -1510579.20949  -1163203.73047  22456416.9804   22456414.2884
      2884.2034
   -302687.59749   -235994.15348  20076089.6124   20076085.1794
       465.2034
    912527.30749    700832.49848  21478941.0654   21478935.6164
     -1874.6564
   -863814.68949   -666841.05648  21199912.5034   21199909.4174
      1625.7034
  -1076171.60849   -834739.16947  23859376.4254   23859373.6124
      2988.8134
 04  9 14 20 45 44.9990000  0  6G 3G 8G13G23G27G19
   -794103.97049   -614076.84047  23022793.6444   23022791.6594
      1351.0164
  -1553823.00349  -1196900.17947  22448188.0034   22448185.5774
      2881.7344
   -309614.43549   -241391.68748  20074771.9174   20074767.4294
       458.5314
    940687.50449    722775.48548  21484299.4874   21484293.7534
     -1879.9064
   -888180.92549   -685827.72948  21195276.1754   21195272.8824
      1623.1884
  -1120982.25349   -869656.53147  23850849.2694   23850845.9404
      2986.0944
 04  9 14 20 45 59.9990000  0  6G 3G 8G13G23G27G19
   -814307.28049   -629819.68047  23018948.6674   23018946.8864
      1342.6724
  -1597028.63249  -1230566.87747  22439966.2614   22439963.9994
      2879.0004
   -316439.54549   -246709.96148  20073472.8084   20073467.9724
       451.5004
    968927.40049    744780.58248  21489673.4644   21489667.6514
     -1885.4844
   -912508.50249   -704784.27948  21190647.0114   21190643.3974
      1620.4064
  -1165749.87449   -904540.30147  23842330.5344   23842327.2264
      2982.8594
 04  9 14 20 46 14.9990000  0  6G 3G 8G13G23G27G19
   -834385.78049   -645465.24147  23015127.9804   23015126.4294
      1334.4844
  -1640192.77949  -1264201.25247  22431752.1054   22431750.0854
      2876.2194
   -323159.53449   -251946.31148  20072194.1364   20072189.7264
       444.5004
    997250.20549    766850.27948  21495063.3474   21495057.1834
     -1890.9224
   -936794.16149   -723708.15848  21186025.3784   21186021.9524
      1617.7034
  -1210470.91249   -939387.82247  23833819.7144   23833817.0224
      2979.8754
 04  9 14 20 46 29.9990000  0  6G 3G 8G13G23G27G19
   -854341.23649   -661014.95647  23011330.7924   23011328.2884
      1326.2504
  -1683317.45349  -1297804.88647  22423545.7454   22423543.2264
      2873.6564
   -329776.28649   -257102.22648  20070934.5814   20070930.2304
       437.6564
   1025653.80149    788982.92948  21500468.0654   21500462.7844
     -1896.2344
   -961039.96249   -742600.98948  21181411.3944   21181408.3124
      1615.0944
  -1255147.03849   -974200.36647  23825317.8864   23825315.6324
      2976.9064
 04  9 14 20 46 44.9990000  0  6G 3G 8G13G23G27G19
   -874172.44649   -676467.84747  23007557.0814   23007555.3354
      1317.8444
  -1726401.48549  -1331376.83147  22415347.5344   22415344.2374
      2870.8284
   -336288.71049   -262176.84148  20069695.4564   20069690.9294
       430.5784
   1054139.13449    811179.26648  21505889.0974   21505883.2694
     -1901.7814
   -985244.94149   -761462.00048  21176805.5264   21176801.7694
      1612.2974
  -1299776.84149  -1008976.77647  23816825.7764   23816822.7104
      2973.7504
 04  9 14 20 46 59.9990000  0  6G 3G 8G13G23G27G19
   -893879.93549   -691824.32047  23003807.0894   23003805.1874
      1309.7034
  -1769445.69549  -1364917.76347  22407155.8624   22407153.7264
      2868.2814
   -342697.54349   -267170.74648  20068476.0264   20068471.5464
       423.7814
   1082705.27849    833438.57148  21511324.8004   21511319.3944
     -1907.1254
  -1009409.89749   -780291.83648  21172207.0344   21172203.4764
      1609.7034
  -1344360.67349  -1043717.37347  23808341.7224   23808338.3584
      2970.6564
 04  9 14 20 47 14.9990000  0  6G 3G 8G13G23G27G19
   -913464.18549   -707084.76647  23000080.4874   23000078.1554
      1301.5944
  -1812450.70749  -1398428.13747  22398972.6514   22398970.1164
      2865.8444
   -349003.30649   -272084.32248  20067276.0654   20067271.4254
       417.0164
   1111351.41449    855760.21348  21516776.3154   21516770.5504
     -1912.2194
  -1033535.51049   -799091.00648  21167615.6984   21167612.4874
      1607.2034
  -1388898.88749  -1078422.39847  23799866.0034   23799862.8944
      2967.7664
 04  9 14 20 47 29.9990000  0  6G 3G 8G13G23G27G19
   -932925.86249   -722249.71047  22996376.6754   22996374.7694
      1293.4064
  -1855417.49249  -1431908.73247  22390796.6054   22390793.8154
      2863.2504
   -355206.68149   -276918.13048  20066095.5034   20066090.6514
       410.2034
   1140076.70449    878143.53648  21522242.4484   21522236.5074
     -1917.5784
  -1057622.70749   -817860.24848  21163032.4174   21163028.6164
      1604.6414
  -1433392.02949  -1113092.33547  23791399.1364   23791396.0854
      2964.7664
 04  9 14 20 47 44.9990000  0  6G 3G 8G13G23G27G19
   -952263.54849   -737318.03547  22992696.9254   22992695.0854
      1285.0004
  -1898344.82949  -1465358.57947  22382627.6124   22382625.0774
      2860.4694
   -361306.45849   -281671.20648  20064935.1834   20064930.1054
       403.1564
   1168882.17049    900589.32548  21527724.0894   21527718.5654
     -1923.0474
  -1081670.35049   -836598.65548  21158456.1834   21158453.3434
      1601.8134
  -1477838.59849  -1147725.95647  23782941.9254   23782938.1324
      2961.5164
 04  9 14 20 47 59.9990000  0  6G 3G 8G13G23G27G19
   -971476.77549   -752289.37647  22989041.1204   22989038.8394
      1276.8914
  -1941232.30649  -1498777.36847  22374465.7064   22374463.4914
      2857.9844
   -367302.09649   -286343.13148  20063794.0894   20063789.4764
       396.3594
   1197768.09449    923097.81848  21533220.8154   21533214.9444
     -1928.2344
  -1105678.11649   -855306.01348  21153888.0114   21153884.4094
      1599.3444
  -1522237.77449  -1182322.65347  23774492.8004   23774489.2374
      2958.4844
 04  9 14 20 48 14.9990000  0  6G 3G 8G13G23G27G19
   -990565.41849   -767163.64547  22985408.2844   22985406.3784
      1268.4064
  -1984079.99049  -1532165.15947  22366312.0894   22366310.0224
      2855.2344
   -373193.62549   -290933.93448  20062672.8234   20062668.2574
       389.3284
   1226734.24449    945668.82548  21538733.1834   21538727.5194
     -1933.6874
  -1129645.95649   -873982.24348  21149326.5504   21149323.5544
      1596.5314
  -1566589.15049  -1216882.11047  23766052.3624   23766049.2884
      2955.1724
 04  9 14 20 48 29.9990000  0  6G 3G 8G13G23G27G19
  -1009528.63549   -781940.18247  22981799.5194   22981797.8664
      1259.9534
  -2026887.14749  -1565521.36647  22358166.5344   22358163.9764
      2852.3284
   -378980.31449   -295443.04848  20061571.6984   20061566.7924
       382.1414
   1255781.06449    968302.67748  21544260.4404   21544254.6944
     -1939.2194
  -1153573.51849   -892627.08948  21144773.5894   21144769.7264
      1593.7504
  -1610891.90849  -1251403.66947  23757622.1364   23757619.0464
      2951.7194
 04  9 14 20 48 44.9990000  0  6G 3G 8G13G23G27G19
  -1028366.55349   -796619.06747  22978215.0114   22978213.4174
      1251.5784
  -2069654.01549  -1598846.17847  22350028.6834   22350026.0774
      2849.6254
   -384662.30249   -299870.57448  20060490.6514   20060485.5504
       375.2194
   1284908.22949    990999.15748  21549802.6754   21549797.3584
     -1944.5784
  -1177461.01749   -911240.71348  21140227.7304   21140224.2184
      1591.0474
  -1655146.02449  -1285887.32447  23749201.2454   23749197.6014
      2948.5474
 04  9 14 20 48 59.9990000  0  6G 3G 8G13G23G27G19
  -1047078.10549   -811199.49647  22974653.9014   22974651.8474
      1243.2344
  -2112379.85949  -1632139.02747  22341897.6904   22341895.4484
      2846.9694
   -390238.55749   -304215.70548  20059429.4404   20059424.6124
       368.1724
   1314116.59749   1013758.89348  21555361.2924   21555355.3554
     -1949.9224
  -1201307.50149   -929822.38948  21135689.8864   21135686.4214
      1588.3754
  -1699350.04449  -1320331.96447  23740789.3474   23740785.6794
      2945.3444
 04  9 14 20 49 14.9990000  0  6G 3G 8G13G23G27G19
  -1065662.05349   -825680.48347  22971117.3084   22971115.7764
      1234.6884
  -2155063.43649  -1665398.94147  22333775.1674   22333772.6404
      2844.1564
   -395708.05349   -308477.65548  20058388.6834   20058383.6244
       361.1414
   1343407.07349   1036582.62448  21560934.8474   21560929.2654
     -1955.3914
  -1225112.11849   -948371.43648  21131160.0264   21131156.6054
      1585.6094
  -1743502.59549  -1354736.47247  23732387.2064   23732383.7334
      2941.7504
 04  9 14 20 49 29.9990000  0  6G 3G 8G13G23G27G19
  -1084119.24949   -840062.72847  22967605.4724   22967603.5304
      1226.2034
  -2197705.90649  -1698626.81847  22325660.7224   22325657.9874
      2841.4844
   -401071.61249   -312657.05648  20057367.9484   20057363.5654
       354.0314
   1372778.48949   1059469.41248  21566523.8784   21566518.3554
     -1960.8284
  -1248875.84949   -966888.62248  21126638.0974   21126634.7144
      1582.8914
  -1787604.45949  -1389101.47547  23723995.1984   23723991.7494
      2938.4534
 04  9 14 20 49 44.9990000  0  6G 3G 8G13G23G27G19
  -1102449.14749   -854345.75047  22964117.5034   22964115.8514
      1217.7034
  -2240306.85549  -1731822.34747  22317554.1514   22317551.4604
      2838.6724
   -406328.77149   -316753.54948  20056367.5424   20056362.8584
       346.8754
   1402231.14249   1082419.52348  21572128.4804   21572122.9804
     -1966.2664
  -1272598.37449   -985373.70848  21122123.7694   21122120.6594
      1580.0784
  -1831654.80549  -1423426.34847  23715612.5034   23715608.9524
      2934.9224
 04  9 14 20 49 59.9990000  0  6G 3G 8G13G23G27G19
  -1120650.69849   -868528.77847  22960653.8154   22960652.4724
      1209.0634
  -2282865.62149  -1764985.00847  22309455.3864   22309452.8664
      2835.7814
   -411478.66249   -320766.45648  20055387.6284   20055383.0624
       339.7034
   1431765.65449   1105433.39948  21577749.3154   21577743.5224
     -1971.5944
  -1296278.97149  -1003826.11748  21117617.3864   21117614.2694
      1577.2814
  -1875652.50249  -1457710.20047  23707239.9804   23707236.3154
      2931.4064
 04  9 14 20 50 14.9990000  0  6G 3G 8G13G23G27G19
  -1138723.17049   -882611.20947  22957214.9014   22957212.8974
      1200.5634
  -2325381.27249  -1798114.06647  22301365.2454   22301362.4764
      2832.9534
   -416520.56449   -324695.20948  20054427.9564   20054422.9764
       332.5784
   1461382.60849   1128511.53348  21583385.1754   21583379.6674
     -1977.1094
  -1319917.03449  -1022245.38348  21113119.5264   21113116.0074
      1574.5164
  -1919596.64949  -1491952.31747  23698877.1834   23698874.1204
      2927.7814
 04  9 14 20 50 29.9990000  0  6G 3G 8G13G23G27G19
  -1156666.93049   -896593.33947  22953800.4404   22953798.2574
      1192.0004
  -2367854.42049  -1831210.01947  22293282.4094   22293280.1904
      2830.1414
   -421455.06849   -328540.28248  20053489.0814   20053484.3904
       325.4064
   1491081.20949   1151653.27048  21589036.2064   21589030.7494
     -1982.5944
  -1343513.14649  -1040631.95848  21108629.2144   21108625.5114
      1571.7194
  -1963487.43849  -1526152.88647  23690524.8554   23690521.5814
      2924.3284
 04  9 14 20 50 44.9990000  0  6G 3G 8G13G23G27G19
  -1174482.63849   -910475.72947  22950410.2694   22950408.2304
      1183.4694
  -2410286.13849  -1864273.66847  22285208.1054   22285205.4764
      2827.4534
   -426282.80749   -332302.15748  20052570.5344   20052565.6634
       318.3914
   1520860.56249   1174857.94048  21594703.1444   21594697.5814
     -1987.9224
  -1367068.22649  -1058986.55848  21104146.6834   21104143.0734
      1569.0314
  -2007325.38849  -1560312.26247  23682183.3554   23682179.8744
      2920.9064
 04  9 14 20 50 59.9990000  0  6G 3G 8G13G23G27G19
  -1192169.77749   -924257.90147  22947043.7224   22947042.2414
      1174.7344
  -2452675.81349  -1897304.56147  22277141.5344   22277139.2844
      2824.5164
   -431003.42749   -335980.56248  20051672.1054   20051667.1204
       311.0944
   1550720.92849   1198125.74148  21600385.3084   21600379.9604
     -1993.4064
  -1390581.97449  -1077308.95848  21099672.3084   21099668.7884
      1566.1564
  -2051109.69049  -1594429.82247  23673850.7614   23673848.1084
      2917.1414
 04  9 14 20 51 14.9990000  0  6G 3G 8G13G23G27G19
  -1209727.89449   -937939.53947  22943702.9874   22943701.4684
      1166.2194
  -2495023.25249  -1930302.56447  22269083.1054   22269080.7024
      2821.7194
   -435616.42249   -339575.11148  20050794.1054   20050789.6444
       304.0314
   1580662.55349   1221456.85548  21606083.5424   21606077.9444
     -1998.7344
  -1414054.00549  -1095598.84648  21095205.7454   21095201.9564
      1563.3914
  -2094839.70249  -1628505.05547  23665529.5344   23665525.7334
      2913.5634
 04  9 14 20 51 29.9990000  0  6G 3G 8G13G23G27G19
  -1227156.97249   -951520.63547  22940386.3554   22940384.3784
      1157.5634
  -2537328.35649  -1963267.55547  22261032.8314   22261030.0034
      2818.8914
   -440121.85449   -343085.84648  20049936.7614   20049932.1084
       296.7504
   1610685.09849   1244851.02848  21611796.4014   21611790.8394
     -2004.1724
  -1437484.64449  -1113856.48048  21090747.0034   21090743.8554
      1560.7034
  -2138515.29649  -1662537.92847  23657218.5504   23657214.9524
      2909.8284
 04  9 14 20 51 44.9990000  0  6G 3G 8G13G23G27G19
  -1244455.47749   -964999.99847  22937094.7764   22937092.3974
      1148.9534
  -2579589.81749  -1996198.54947  22252990.8234   22252987.8234
      2816.0164
   -444518.11849   -346511.51148  20049100.3474   20049095.4994
       289.5004
   1640789.89049   1268309.27548  21617525.0584   21617519.4174
     -2009.6724
  -1460872.42349  -1132080.72948  21086296.3234   21086293.1124
      1557.7974
  -2182134.54949  -1696526.89547  23648917.3154   23648913.9174
      2906.0164
 04  9 14 20 51 59.9990000  0  6G 3G 8G13G23G27G19
  -1261622.67749   -978377.02647  22933828.4644   22933825.6904
      1140.1094
  -2621807.17049  -2029095.17047  22244956.8554   22244954.5854
      2813.0474
   -448804.67249   -349851.67648  20048284.7694   20048279.9054
       282.0474
   1670977.14849   1291831.79048  21623269.3704   21623264.4014
     -2015.2344
  -1484216.92349  -1150271.24148  21081853.9954   21081850.4994
      1554.8444
  -2225696.77349  -1730471.41347  23640628.2144   23640624.8194
      2902.1884
 04  9 14 20 52 14.9990000  0  6G 3G 8G13G23G27G19
  -1278659.48349   -991652.45247  22930585.6284   22930583.7414
      1131.4384
  -2663981.69449  -2061958.41947  22236931.4564   22236928.7534
      2810.3134
   -452982.62849   -353107.23348  20047489.5584   20047484.8554
       274.9844
   1701245.81349   1315417.74948  21629029.7694   21629024.2574
     -2020.5784
  -1507519.26449  -1168428.90548  21077419.9334   21077416.5974
      1552.1254
  -2269202.62149  -1764372.00247  23632348.5114   23632345.6714
      2898.5634
 04  9 14 20 52 29.9990000  0  6G 3G 8G13G23G27G19
  -1295564.91449  -1004825.49847  22927368.4564   22927366.6014
      1122.7194
  -2706112.29849  -2094787.44347  22228914.3624   22228911.2304
      2807.2974
   -457051.16349   -356277.53148  20046715.7064   20046711.0694
       267.6724
   1731596.60349   1339067.69248  21634805.0424   21634799.6594
     -2026.0944
  -1530778.69749  -1186553.13748  21072993.1754   21072990.2654
      1549.3284
  -2312650.94149  -1798227.75747  23624080.8704   23624077.6014
      2894.7194
 04  9 14 20 52 44.9990000  0  6G 3G 8G13G23G27G19
  -1312339.37349  -1017896.49547  22924176.5734   22924174.3124
      1113.8594
  -2748199.63649  -2127582.74447  22220905.4484   22220902.5624
      2804.3754
   -461010.57149   -359362.77748  20045961.6594   20045957.6364
       260.2974
   1762028.88049   1362781.13148  21640596.2534   21640591.1054
     -2031.5474
  -1553995.72049  -1204644.32048  21068575.5584   21068572.0504
      1546.3754
  -2356041.76949  -1832038.72247  23615824.3154   23615820.5814
      2890.6884
 04  9 14 20 52 59.9990000  0  6G 3G 8G13G23G27G19
  -1328979.43849  -1030862.76747  22921010.5424   22921008.7334
      1104.9844
  -2790240.41249  -2160341.78547  22212904.9644   22212902.4054
      2801.3284
   -464857.63449   -362360.48948  20045230.1984   20045225.3154
       252.9064
   1792545.66949   1386560.42848  21646403.5734   21646398.0934
     -2037.0784
  -1577167.13749  -1222699.96048  21064166.0654   21064162.4764
      1543.3754
  -2399371.71249  -1865802.28347  23607578.1054   23607574.8194
      2886.7504
 04  9 14 20 53 14.9990000  0  6G 3G 8G13G23G27G19
  -1345488.64549  -1043727.06947  22917868.4404   22917867.0114
      1096.3134
  -2832238.19849  -2193067.30847  22204913.2924   22204910.8514
      2798.3914
   -468595.77249   -365273.33548  20044518.7694   20044514.3864
       245.5784
   1823143.18749   1410402.63748  21652226.1674   21652220.2414
     -2042.5314
  -1600296.88049  -1240723.14048  21059764.8084   21059761.2414
      1540.5784
  -2442643.94449  -1899520.83247  23599343.9014   23599340.4294
      2882.8444
 04  9 14 20 53 29.9990000  0  6G 3G 8G13G23G27G19
  -1361866.12649  -1056488.74547  22914752.4404   22914749.9834
      1087.4384
  -2874192.31249  -2225758.81047  22196929.4014   22196927.1364
      2795.4694
   -472224.29049   -368100.75448  20043827.9954   20043823.6984
       238.2504
   1853822.00549   1434308.19548  21658064.1444   21658058.3584
     -2047.9534
  -1623384.06249  -1258713.14748  21055371.3084   21055368.1904
      1537.6564
  -2485857.51549  -1933193.68347  23591120.6204   23591117.0734
      2878.9534
 04  9 14 20 53 44.9990000  0  6G 3G 8G13G23G27G19
  -1378111.20449  -1069147.24947  22911660.5034   22911658.7374
      1078.6414
  -2916102.20449  -2258415.86047  22188954.4484   22188951.3474
      2792.5314
   -475742.49449   -370842.21148  20043158.6594   20043153.8824
       230.8754
   1884582.68849   1458277.54248  21663917.5034   21663911.9374
     -2053.3754
  -1646428.18149  -1276669.60948  21050986.0894   21050982.9954
      1534.8284
  -2529011.41749  -1966820.04247  23582908.3394   23582905.4374
      2874.8754
 04  9 14 20 53 59.9990000  0  6G 3G 8G13G23G27G19
  -1394222.92549  -1081701.82347  22908594.7064   22908592.9834
      1069.6564
  -2957966.93349  -2291037.69147  22180987.7144   22180984.5584
      2789.4384
   -479149.41149   -373496.95348  20042510.2694   20042505.2964
       223.4224
   1915425.90849   1482311.20248  21669786.7694   21669781.6754
     -2058.9694
  -1669428.32249  -1294591.78548  21046609.6594   21046606.2024
      1531.9064
  -2572104.47049  -2000398.95147  23574708.0974   23574705.4054
      2870.8754
 04  9 14 20 54 14.9990000  0  6G 3G 8G13G23G27G19
  -1410201.91449  -1094152.97647  22905553.9954   22905551.9484
      1060.7974
  -2999787.49249  -2323625.13447  22173029.7144   22173026.6124
      2786.4694
   -482445.90049   -376065.65248  20041883.1754   20041878.4214
       215.9844
   1946350.60649   1506408.34148  21675671.7304   21675665.8434
     -2064.4534
  -1692385.47649  -1312480.47348  21042241.1364   21042237.4054
      1528.9534
  -2615137.13749  -2033930.86347  23566519.0654   23566516.1444
      2866.6414
 04  9 14 20 54 29.9990000  0  6G 3G 8G13G23G27G19
  -1426049.18249  -1106501.49947  22902538.2844   22902535.8124
      1052.0004
  -3041564.78649  -2356178.85147  22165079.7534   22165076.8624
      2783.6094
   -485632.92749   -378549.05148  20041276.3864   20041272.1014
       208.6724
   1977355.65649   1530568.10048  21681571.7454   21681566.3474
     -2069.8754
  -1715300.75949  -1330336.54148  21037880.1834   21037877.0654
      1526.1724
  -2658110.14749  -2067416.27547  23558341.8154   23558337.9294
      2862.7504
 04  9 14 20 54 44.9990000  0  6G 3G 8G13G23G27G19
  -1441762.85349  -1118745.88347  22899548.3944   22899545.7224
      1043.1724
  -3083297.28649  -2388697.66647  22157138.3314   22157135.6984
      2780.7504
   -488708.64949   -380945.71948  20040691.4014   20040686.5694
       201.3754
   2008442.67449   1554791.74248  21687487.4334   21687481.8584
     -2075.2194
  -1738172.54649  -1348158.70148  21033527.7304   21033524.5504
      1523.3134
  -2701021.53449  -2100853.67247  23550176.1984   23550172.6244
      2858.7194
 04  9 14 20 54 59.9990000  0  6G 3G 8G13G23G27G19
  -1457343.23249  -1130886.44247  22896583.4174   22896581.1164
      1034.2034
  -3124985.60149  -2421182.03847  22149205.3864   22149202.5734
      2777.6564
   -491673.48549   -383255.99348  20040126.7764   20040122.0694
       193.8754
   2039610.93549   1579078.67848  21693418.6364   21693412.7104
     -2080.6414
  -1761001.44949  -1365947.45948  21029183.9174   21029180.4564
      1520.4534
  -2743871.37049  -2134243.10747  23542021.8864   23542018.5264
      2854.4694
 04  9 14 20 55 14.9990000  0  6G 3G 8G13G23G27G19
  -1472791.27649  -1142923.87047  22893643.5504   22893641.0584
      1025.3594
  -3166630.67149  -2453632.73547  22141280.3704   22141277.9014
      2774.7974
   -494528.39649   -385480.60248  20039583.9874   20039579.5114
       186.5944
   2070859.19249   1603427.95548  21699365.0734   21699359.4684
     -2085.9224
  -1783788.33349  -1383703.46948  21024847.8154   21024844.0264
      1517.6254
  -2786660.39349  -2167585.16147  23533879.8944   23533876.5694
      2850.5004
 04  9 14 20 55 29.9990000  0  6G 3G 8G13G23G27G19
  -1488104.73549  -1154856.41747  22890729.7224   22890727.2614
      1016.5314
  -3208230.15549  -2486047.90647  22133364.3864   22133361.3354
      2771.8914
   -497271.46949   -387618.07048  20039061.6124   20039057.0584
       179.1414
   2102189.55849   1627841.20748  21705327.0814   21705321.4484
     -2091.3914
  -1806531.38649  -1401425.33048  21020519.6204   21020516.1944
      1514.7974
  -2829386.27149  -2200878.01147  23525749.1594   23525745.6594
      2846.3754
 04  9 14 20 55 44.9990000  0  6G 3G 8G13G23G27G19
  -1503284.88349  -1166685.08747  22887840.7064   22887838.4404
      1007.5164
  -3249785.72849  -2518428.85547  22125456.7374   22125453.4804
      2768.9064
   -499903.89649   -389669.31148  20038561.0034   20038556.3944
       171.8134
   2133600.39949   1652317.16448  21711304.1514   21711298.5624
     -2096.7344
  -1829231.98449  -1419114.10148  21016200.1444   21016196.6714
      1512.0164
  -2872049.97649  -2234122.39847  23517630.3004   23517625.9484
      2842.1884
 04  9 14 20 55 59.9990000  0  6G 3G 8G13G23G27G19
  -1518332.35949  -1178410.37847  22884977.2924   22884975.2494
       998.7344
  -3291298.00949  -2550776.06847  22117557.1054   22117553.6754
      2766.0634
   -502426.26949   -391634.80048  20038080.9174   20038076.7184
       164.5164
   2165090.68649   1676855.03048  21717296.8624   21717290.4994
     -2101.9844
  -1851890.83049  -1436770.34048  21011888.1204   21011884.4134
      1509.2034
  -2914651.95949  -2267318.71147  23509523.7534   23509519.6594
      2838.1094
 04  9 14 20 56 14.9990000  0  6G 3G 8G13G23G27G19
  -1533246.11649  -1190031.48347  22882139.2694   22882136.9404
       989.8914
  -3332766.21449  -2583088.93447  22109665.8944   22109662.9214
      2763.2034
   -504837.74149   -393513.87548  20037621.9174   20037616.9524
       157.0784
   2196661.42449   1701455.58348  21723304.6444   21723298.4874
     -2107.4064
  -1874507.17649  -1454393.47148  21007584.2924   21007580.8124
      1506.4064
  -2957190.87249  -2300465.87547  23501428.6054   23501424.7694
      2833.8594
 04  9 14 20 56 29.9990000  0  6G 3G 8G13G23G27G19
  -1548027.07049  -1201549.10147  22879327.2844   22879324.7184
       980.9694
  -3374191.16849  -2615368.10347  22101783.0894   22101780.2224
      2760.2664
   -507139.20549   -395307.22548  20037184.1984   20037179.4054
       149.7664
   2228311.41849   1726117.89948  21729327.1514   21729321.3704
     -2112.6254
  -1897081.91049  -1471984.16648  21003288.6284   21003285.0224
      1503.6254
  -2999667.43049  -2333564.45147  23493345.4094   23493341.4444
      2829.6564
 04  9 14 20 56 44.9990000  0  6G 3G 8G13G23G27G19
  -1562673.83149  -1212962.14147  22876539.9094   22876536.9254
       971.8284
  -3415571.67949  -2647612.64347  22093908.3784   22093905.3234
      2757.1414
   -509329.53649   -397013.99648  20036767.0114   20036762.2144
       142.2344
   2260041.62149   1750842.71248  21735364.9724   21735359.6084
     -2118.0474
  -1919614.14649  -1489541.75548  20999000.6904   20998997.4014
      1500.6564
  -3042080.16149  -2366613.30947  23485274.8004   23485270.6944
      2825.2814
 04  9 14 20 56 59.9990000  0  6G 3G 8G13G23G27G19
  -1577186.05649  -1224270.37247  22873778.0654   22873775.8584
       962.8594
  -3456907.52849  -2679822.37447  22086042.2764   22086039.9294
      2754.1254
   -511408.32649   -398633.83248  20036371.8624   20036366.7574
       134.7194
   2291852.09449   1775630.07948  21741418.4644   21741413.2144
     -2123.4064
  -1942103.54249  -1507065.94948  20994721.3864   20994717.9724
      1497.7974
  -3084428.45949  -2399611.93747  23477215.8394   23477212.2924
      2820.9224
 04  9 14 20 57 14.9990000  0  6G 3G 8G13G23G27G19
  -1591561.71749  -1235472.19247  22871042.5114   22871040.6904
       953.8284
  -3498196.77949  -2711995.79748  22078185.1834   22078182.6674
      2751.1254
   -513373.46049   -400165.11048  20035997.7064   20035993.4524
       127.2194
   2323744.79749   1800481.51848  21747487.5814   21747482.3864
     -2128.8914
  -1964548.21749  -1524555.30948  20990450.2614   20990446.9994
      1494.8754
  -3126710.00349  -2432558.55947  23469169.9804   23469166.0304
      2816.5164
 04  9 14 20 57 29.9990000  0  6G 3G 8G13G23G27G19
  -1605802.01649  -1246568.51647  22868332.3554   22868330.0814
       945.0164
  -3539441.02649  -2744134.15447  22070336.6054   22070333.9054
      2748.2504
   -515226.27849   -401608.86748  20035644.9874   20035640.6594
       119.9384
   2355718.06449   1825395.73048  21753571.6984   21753566.2924
     -2134.1414
  -1986949.64949  -1542010.97248  20986187.3234   20986183.9014
      1492.1724
  -3168925.96849  -2465454.09147  23461136.6284   23461133.0384
      2812.3914
 04  9 14 20 57 44.9990000  0  6G 3G 8G13G23G27G19
  -1619909.25749  -1257561.16147  22865648.1984   22865646.2534
       936.0314
  -3580642.49949  -2776239.18548  22062496.4484   22062493.4834
      2745.3444
   -516969.10049   -402966.91148  20035313.4174   20035308.8434
       112.5314
   2387769.48049   1850370.83848  21759670.9484   21759665.7654
     -2139.4064
  -2009310.07249  -1559434.67448  20981932.5344   20981928.2924
      1489.2814
  -3211078.13149  -2498299.91247  23453115.0734   23453111.7724
      2807.9844
 04  9 14 20 57 59.9990000  0  6G 3G 8G13G23G27G19
  -1633882.86949  -1268449.68947  22862988.7534   22862986.6444
       927.0004
  -3621800.61049  -2808310.41847  22054664.1124   22054661.4684
      2742.3134
   -518601.60749   -404239.00948  20035002.7454   20034998.1754
       105.0474
   2419899.15249   1875406.92548  21765785.1984   21765779.4134
     -2144.6724
  -2031629.29749  -1576826.27948  20977685.0584   20977681.2454
      1486.4844
  -3253165.85449  -2531095.51247  23445106.2924   23445103.0854
      2803.5314
 04  9 14 20 58 14.9990000  0  6G 3G 8G13G23G27G19
  -1647718.55549  -1279230.74147  22860355.6594   22860353.7614
       917.8754
  -3662911.36349  -2840344.75347  22046841.1284   22046838.3974
      2739.2664
   -520119.40849   -405421.70648  20034714.1124   20034709.3394
        97.4534
   2452111.24549   1900507.24548  21771914.6984   21771909.6404
     -2150.1094
  -2053903.21749  -1594182.57348  20973446.3554   20973442.8004
      1483.4844
  -3295184.74449  -2563837.49047  23437110.0114   23437106.3044
      2799.1414
 04  9 14 20 58 29.9990000  0  6G 3G 8G13G23G27G19
  -1661419.67749  -1289906.93947  22857748.3394   22857746.7844
       908.9844
  -3703978.42549  -2872345.05148  22039026.5344   22039023.3434
      2736.3134
   -521526.05549   -406517.81248  20034446.0114   20034441.9334
        90.1414
   2484402.12449   1925668.94548  21778059.8864   21778054.0854
     -2155.2814
  -2076135.28849  -1611506.26248  20969215.6284   20969212.2334
      1480.7664
  -3337137.82949  -2596528.16947  23429126.7374   23429123.0074
      2794.7664
 04  9 14 20 58 44.9990000  0  6G 3G 8G13G23G27G19
  -1674985.11949  -1300477.40347  22855167.3784   22855165.3784
       899.6884
  -3745000.63049  -2904310.39047  22031220.0974   22031217.1984
      2733.2974
   -522820.50849   -407526.48448  20034199.9564   20034195.6124
        82.4224
   2516772.73549   1950892.75248  21784219.6364   21784214.2224
     -2160.7814
  -2098324.51949  -1628796.57048  20964993.2144   20964989.8194
      1477.7814
  -3379023.75049  -2629166.51047  23421156.0034   23421152.6714
      2790.1254
 04  9 14 20 58 59.9990000  0  6G 3G 8G13G23G27G19
  -1688414.50649  -1310941.85347  22852611.4874   22852610.3314
       890.7974
  -3785977.50449  -2936240.40847  22023422.0424   22023419.5304
      2730.2664
   -524002.11449   -408447.22148  20033975.2454   20033970.5384
        75.0784
   2549223.17049   1976178.80148  21790394.6674   21790389.0974
     -2165.9694
  -2120470.63149  -1646053.28048  20960779.1984   20960775.3194
      1474.9384
  -3420841.78149  -2661751.97347  23413198.4484   23413195.0304
      2785.5634
 04  9 14 20 59 14.9990000  0  6G 3G 8G13G23G27G19
  -1701707.87949  -1321300.33147  22850082.1904   22850080.4994
       881.7504
  -3826909.17449  -2968135.20247  22015633.4954   22015630.6404
      2727.2974
   -525071.14349   -409280.23648  20033771.5974   20033767.1084
        67.5474
   2581753.00249   2001526.69548  21796585.2454   21796579.5894
     -2171.2504
  -2142574.02549  -1663276.69948  20956573.0034   20956569.0344
      1472.1094
  -3462591.97449  -2694284.55947  23405253.4644   23405249.8824
      2781.0784
 04  9 14 20 59 29.9990000  0  6G 3G 8G13G23G27G19
  -1714865.55949  -1331553.07647  22847578.8004   22847576.4444
       872.6414
  -3867796.19649  -2999995.20647  22007852.4724   22007849.8394
      2724.3754
   -526027.86549   -410025.74148  20033589.8084   20033584.9804
        60.0164
   2614361.83849   2026936.16448  21802790.2304   21802784.8704
     -2176.4844
  -2164634.83149  -1680466.93648  20952375.1054   20952371.3824
      1469.2814
  -3504274.25149  -2726764.23947  23397321.9094   23397318.0154
      2776.4384
 04  9 14 20 59 44.9990000  0  6G 3G 8G13G23G27G19
  -1727886.76349  -1341699.47947  22845100.8314   22845098.2534
       863.6884
  -3908638.01049  -3031819.98147  22000080.8394   22000078.1944
      2721.3134
   -526871.69649   -410683.26748  20033428.8154   20033424.6754
        52.5784
   2647050.16049   2052407.55448  21809010.3784   21809005.2964
     -2181.8754
  -2186652.62749  -1697623.65948  20948185.1594   20948181.3084
      1466.5314
  -3545887.93049  -2759190.45847  23389403.2924   23389399.3004
      2772.0314
 04  9 14 20 59 59.9990000  0  6G 3G 8G13G23G27G19
  -1740771.83349  -1351739.76847  22842648.7924   22842645.8974
       854.4844
  -3949434.97649  -3063609.81347  21992317.5194   21992314.5384
      2718.2504
   -527603.00549   -411253.13848  20033289.9874   20033285.5304
        44.9694
   2679817.24149   2077940.33148  21815246.2374   21815240.7454
     -2187.1874
  -2208627.87149  -1714747.22648  20944003.3004   20943999.6444
      1463.5784
  -3587432.74549  -2791563.02347  23381497.1594   23381493.6834
      2767.2974
 04  9 14 21  0 14.9990000  0  6G 3G 8G13G23G27G19
  -1753518.40649  -1361672.18047  22840223.2694   22840220.7414
       845.1254
  -3990184.86149  -3095362.95148  21984563.0194   21984560.2454
      2715.0944
   -528219.50749   -411733.53348  20033172.8084   20033168.0194
        37.2194
   2712665.13849   2103536.06948  21821496.6364   21821491.3354
     -2192.6094
  -2230558.37749  -1731835.93148  20939830.3234   20939826.4334
      1460.5164
  -3628906.16249  -2823879.94747  23373604.6284   23373601.6984
      2762.4844
 04  9 14 21  0 29.9990000  0  6G 3G 8G13G23G27G19
  -1766126.72149  -1371496.83847  22837823.7144   22837821.3824
       835.9534
  -4030887.85049  -3127079.56748  21976817.4094   21976814.7454
      2711.9694
   -528721.41549   -412124.63048  20033077.2064   20033072.5544
        29.6414
   2745593.64449   2129194.61648  21827763.0424   21827757.5074
     -2197.8914
  -2252444.50149  -1748890.05048  20935665.2924   20935661.7804
      1457.6254
  -3670308.16949  -2856141.24747  23365726.4334   23365722.7804
      2757.7974
 04  9 14 21  0 44.9990000  0  6G 3G 8G13G23G27G19
  -1778598.67349  -1381215.24447  22835450.3394   22835447.9334
       826.9534
  -4071546.11749  -3158761.32048  21969080.6284   21969077.5624
      2709.0314
   -529110.75149   -412428.02148  20033003.2454   20032998.6904
        22.2194
   2778600.45549   2154914.18948  21834044.1594   21834038.6244
     -2203.0474
  -2274288.30349  -1765911.19548  20931508.3394   20931504.7454
      1454.8914
  -3711640.35249  -2888348.11747  23357861.4404   23357857.8194
      2753.0634
 04  9 14 21  0 59.9990000  0  6G 3G 8G13G23G27G19
  -1790934.69949  -1390827.71347  22833103.2534   22833100.8474
       817.7344
  -4112160.27249  -3190408.69548  21961352.2374   21961349.3434
      2706.0634
   -529388.02249   -412644.08148  20032950.2924   20032945.6474
        14.6564
   2811684.86149   2180694.22348  21840339.3234   21840334.0194
     -2208.3594
  -2296090.35449  -1782899.80248  20927359.8394   20927356.2884
      1452.0004
  -3752903.09249  -2920500.90847  23350009.1444   23350005.2184
      2748.3284
 04  9 14 21  1 14.9990000  0  6G 3G 8G13G23G27G19
  -1803132.02349  -1400332.12847  22830782.0734   22830780.1634
       808.3594
  -4152727.72749  -3222019.69348  21953632.3084   21953629.2614
      2702.8284
   -529550.57249   -412770.74548  20032919.4484   20032915.1084
         6.8754
   2844849.34649   2206536.65648  21846650.5584   21846645.6514
     -2213.7974
  -2317848.09949  -1799853.89248  20923219.6834   20923215.6014
      1448.8914
  -3794093.34549  -2952597.18047  23342171.0194   23342167.0734
      2743.4694
 04  9 14 21  1 29.9990000  0  6G 3G 8G13G23G27G19
  -1815192.34949  -1409729.77647  22828487.2844   22828485.2414
       799.4844
  -4193250.06949  -3253595.52848  21945920.8084   21945918.0544
      2699.9384
   -529599.94149   -412809.22748  20032909.6594   20032905.2374
        -0.4694
   2878091.97249   2232439.98348  21852976.3084   21852971.6084
     -2218.8124
  -2339563.30849  -1816774.82148  20919087.1364   20919083.6944
      1446.2664
  -3835212.57149  -2984638.12747  23334345.8704   23334342.0934
      2738.9224
 04  9 14 21  1 44.9990000  0  6G 3G 8G13G23G27G19
  -1827116.03949  -1419020.98047  22826217.8004   22826215.6554
       790.3754
  -4233727.78049  -3285136.58648  21938218.0654   21938215.6054
      2697.0634
   -529536.62949   -412759.89748  20032922.0584   20032917.4174
        -7.9694
   2911412.14249   2258403.73448  21859317.1204   21859312.0694
     -2223.8914
  -2361236.51649  -1833663.03848  20914962.6984   20914959.3704
      1443.4844
  -3876260.94049  -3016623.84147  23326535.0344   23326531.3824
      2734.2504
 04  9 14 21  1 59.9990000  0  6G 3G 8G13G23G27G19
  -1838902.71049  -1428205.39747  22823975.0194   22823973.0194
       781.2664
  -4274160.46849  -3316642.57448  21930524.0734   21930521.4374
      2694.0004
   -529360.14749   -412622.39448  20032955.5034   20032951.1754
       -15.5944
   2944810.00249   2284428.00348  21865672.6514   21865667.2694
     -2229.1094
  -2382867.44049  -1850518.29948  20910846.4644   20910843.2844
      1440.6564
  -3917237.85249  -3048553.89647  23318736.8234   23318733.4134
      2729.3444
 04  9 14 21  2 14.9990000  0  6G 3G 8G13G23G27G19
  -1850550.61449  -1437281.70047  22821758.2694   22821755.8004
       771.9844
  -4314546.65449  -3348112.31348  21922838.8154   21922836.0814
      2690.9694
   -529068.72849   -412395.30948  20033010.9564   20033006.5194
       -23.1724
   2978287.02449   2310513.98748  21872042.8084   21872037.5304
     -2234.3594
  -2404454.48049  -1867339.36448  20906738.8154   20906735.4484
      1437.6724
  -3958141.29549  -3080426.70347  23310953.6444   23310949.6594
      2724.5314
 04  9 14 21  2 29.9990000  0  6G 3G 8G13G23G27G19
  -1862061.29849  -1446251.06847  22819568.3004   22819565.5464
       762.8594
  -4354887.91849  -3379547.04148  21915162.5034   21915159.2224
      2687.9224
   -528664.20249   -412080.11048  20033087.9484   20033083.2574
       -30.7034
   3011841.49149   2336660.29448  21878428.0974   21878423.1244
     -2239.4694
  -2425999.23649  -1884127.49748  20902639.0114   20902635.3744
      1434.9534
  -3998972.46949  -3112243.19447  23303183.3944   23303179.6554
      2719.7034
 04  9 14 21  2 44.9990000  0  6G 3G 8G13G23G27G19
  -1873433.04849  -1455112.18147  22817404.0034   22817401.4524
       753.5474
  -4395182.71849  -3410945.58048  21907494.3624   21907491.4374
      2684.7814
   -528144.97549   -411675.52648  20033186.7374   20033181.9174
       -38.4374
   3045474.78749   2362868.03048  21884828.7454   21884823.3314
     -2244.8124
  -2447500.16949  -1900881.46148  20898547.4564   20898543.8784
      1431.9384
  -4039729.43949  -3144001.85647  23295428.0734   23295424.2374
      2714.7194
 04  9 14 21  2 59.9990000  0  6G 3G 8G13G23G27G19
  -1884664.47049  -1463863.92947  22815266.5034   22815264.2764
       744.1414
  -4435429.52049  -3442306.71748  21899835.6444   21899832.7064
      2681.5634
   -527509.64249   -411180.46748  20033307.6984   20033302.9994
       -46.1724
   3079188.19749   2389138.19448  21891244.1364   21891238.5304
     -2250.2034
  -2468956.01849  -1917600.30148  20894464.4874   20894460.6284
      1428.8914
  -4080410.56449  -3175701.41047  23287686.4484   23287682.8154
      2709.6094
 04  9 14 21  3 14.9990000  0  6G 3G 8G13G23G27G19
  -1895756.79349  -1472507.29447  22813155.9484   22813153.5814
       734.8594
  -4475629.84949  -3473631.63248  21892186.0344   21892182.8704
      2678.4844
   -526759.54449   -410595.98148  20033450.3624   20033445.9404
       -53.8444
   3112980.10049   2415469.52148  21897674.5194   21897668.8194
     -2255.3754
  -2490368.25849  -1934285.16948  20890389.9094   20890386.1284
      1426.0474
  -4121016.90349  -3207342.71547  23279959.3474   23279955.5224
      2704.5944
 04  9 14 21  3 29.9990000  0  6G 3G 8G13G23G27G19
  -1906710.04549  -1481042.31247  22811071.9874   22811069.6834
       725.7034
  -4515783.76149  -3504920.38748  21884544.6204   21884541.8004
      2675.4844
   -525894.58049   -409921.98148  20033614.9724   20033610.3904
       -61.4224
   3146850.34249   2441861.90148  21904119.7764   21904114.4764
     -2260.5314
  -2511736.95749  -1950936.09348  20886323.6124   20886320.2494
      1423.2664
  -4161548.23949  -3238925.56147  23272246.4954   23272242.3394
      2699.6564
 04  9 14 21  3 44.9990000  0  6G 3G 8G13G23G27G19
  -1917525.50149  -1489469.92647  22809013.4484   22809011.7924
       716.3444
  -4555892.30749  -3536173.79548  21876912.3004   21876909.6084
      2672.3754
   -524916.06949   -409159.51348  20033801.1754   20033796.9404
       -69.0624
   3180797.27649   2468314.03448  21910579.4874   21910574.2964
     -2265.7344
  -2533063.47749  -1967554.16748  20882265.3474   20882261.9684
      1420.3284
  -4202005.54649  -3270450.72147  23264548.0974   23264544.6204
      2694.6724
 04  9 14 21  3 59.9990000  0  6G 3G 8G13G23G27G19
  -1928202.57649  -1497789.74447  22806981.8004   22806979.6634
       707.2504
  -4595955.28549  -3567391.68548  21869288.5034   21869285.4644
      2669.4534
   -523823.48749   -408308.16848  20034009.0344   20034004.6754
       -76.6254
   3214821.29449   2494826.21548  21917054.5114   21917048.6284
     -2270.7974
  -2554347.39149  -1984139.03748  20878215.0974   20878211.2964
      1417.5944
  -4242388.10649  -3301917.63147  23256863.4564   23256859.6754
      2689.7194
 04  9 14 21  4 14.9990000  0  6G 3G 8G13G23G27G19
  -1938740.53549  -1506001.13447  22804976.1204   22804973.9214
       697.9224
  -4635972.03949  -3598573.56848  21861673.2844   21861670.6754
      2666.2974
   -522616.22049   -407367.44548  20034239.0654   20034234.5464
       -84.2194
   3248922.83649   2521398.83148  21923543.6984   21923538.4094
     -2275.9224
  -2575588.08949  -2000690.22348  20874173.1514   20874169.7964
      1414.6414
  -4282694.94149  -3333325.54247  23249193.1754   23249188.9874
      2684.6254
 04  9 14 21  4 29.9990000  0  6G 3G 8G13G23G27G19
  -1949138.66449  -1514103.59847  22802997.7304   22802996.2764
       688.4224
  -4675942.08849  -3629719.04848  21854067.8474   21854064.8124
      2663.0634
   -521293.54549   -406336.79648  20034490.7304   20034486.2104
       -92.0784
   3283102.46749   2548032.28348  21930047.9014   21930042.6204
     -2281.3124
  -2596785.01749  -2017207.31248  20870139.1674   20870135.9604
      1411.6564
  -4322924.96649  -3364673.60447  23241537.7064   23241534.0814
      2679.3284
 04  9 14 21  4 44.9990000  0  6G 3G 8G13G23G27G19
  -1959397.28449  -1522097.31347  22801045.0654   22801043.4334
       679.0784
  -4715865.60449  -3660828.27348  21846470.6364   21846467.2494
      2659.8754
   -519855.74149   -405216.44148  20034764.1904   20034759.7414
       -99.8284
   3317359.61249   2574726.14148  21936566.8234   21936561.5344
     -2286.5164
  -2617938.55449  -2033690.58948  20866114.1284   20866111.0194
      1408.6414
  -4363078.31549  -3395961.90647  23233896.5584   23233892.9174
      2674.1414
 04  9 14 21  4 59.9990000  0  6G 3G 8G13G23G27G19
  -1969516.18149  -1529982.18547  22799120.1124   22799117.6324
       669.9694
  -4755742.63049  -3691901.28148  21838882.1834   21838878.7724
      2656.9064
   -518302.74349   -404006.31848  20035059.9724   20035055.6244
      -107.3594
   3351694.15249   2601480.29248  21943100.4094   21943095.0224
     -2291.5474
  -2639048.66149  -2050140.01948  20862096.7144   20862093.1244
      1405.9384
  -4403154.56049  -3427190.13847  23226269.8004   23226266.1514
      2669.2194
 04  9 14 21  5 14.9990000  0  6G 3G 8G13G23G27G19
  -1979495.46649  -1537758.24147  22797220.9404   22797218.7304
       660.7034
  -4795573.26349  -3722938.11448  21831302.6904   21831299.5624
      2653.8284
   -516634.64849   -402706.51848  20035377.1054   20035372.6444
      -115.0624
   3386105.85749   2628294.58648  21949648.6054   21949643.3194
     -2296.6724
  -2660115.50349  -2066555.73748  20858087.9334   20858083.9374
      1403.0474
  -4443153.34049  -3458358.01947  23218659.3704   23218655.0584
      2663.9694
 04  9 14 21  5 29.9990000  0  6G 3G 8G13G23G27G19
  -1989335.93849  -1545426.13947  22795348.1444   22795346.0074
       651.2034
  -4835358.30949  -3753939.44248  21823731.6284   21823728.6404
      2650.7814
   -514852.35649   -401317.71848  20035716.2224   20035711.9764
      -122.6414
   3420593.64949   2655168.15548  21956211.2924   21956206.5154
     -2301.8124
  -2681139.94449  -2082938.41948  20854087.0264   20854083.5584
      1400.1564
  -4483075.34849  -3489466.04747  23211062.2374   23211058.2184
      2658.9384
 04  9 14 21  5 44.9990000  0  6G 3G 8G13G23G27G19
  -1999037.87749  -1552986.07347  22793502.7144   22793499.7024
       642.2194
  -4875098.15949  -3784905.55348  21816169.3944   21816166.3584
      2647.7504
   -512956.11849   -399840.13948  20036077.1674   20036073.0344
      -130.2504
   3455157.09249   2682100.69248  21962788.9334   21962783.5584
     -2306.8444
  -2702122.42549  -2099288.39648  20850094.7144   20850091.1444
      1397.3914
  -4522920.55449  -3520514.23247  23203479.8084   23203476.0504
      2653.7344
 04  9 14 21  5 59.9990000  0  6G 3G 8G13G23G27G19
  -2008600.83049  -1560437.76547  22791682.7224   22791680.3354
       633.0634
  -4914792.33949  -3815836.07048  21808615.5504   21808612.5384
      2644.9064
   -510945.36249   -398273.32748  20036459.7374   20036455.6594
      -137.7194
   3489796.35049   2709092.29748  21969380.6674   21969374.9954
     -2311.6254
  -2723062.50049  -2115605.33848  20846109.3084   20846106.1014
      1394.7344
  -4562688.29749  -3551502.06447  23195911.5734   23195907.7334
      2648.8284
 04  9 14 21  6 14.9990000  0  6G 3G 8G13G23G27G19
  -2018024.51949  -1567780.90147  22789888.9804   22789887.0544
       623.5944
  -4954440.81849  -3846730.98348  21801070.9564   21801068.0974
      2641.7034
   -508820.04249   -396617.24548  20036864.0344   20036859.9564
      -145.4694
   3524511.41949   2736142.97548  21975986.3624   21975981.1904
     -2316.8444
  -2743960.19549  -2131889.25548  20842133.0344   20842129.4054
      1391.8284
  -4602378.09449  -3582429.16947  23188359.3394   23188355.8354
      2643.2974
 04  9 14 21  6 29.9990000  0  6G 3G 8G13G23G27G19
  -2027308.13649  -1575014.90147  22788122.8704   22788120.7264
       614.1564
  -4994042.85449  -3877589.69948  21793534.9334   21793532.3704
      2638.4534
   -506579.30849   -394871.22348  20037290.6674   20037286.3194
      -153.3914
   3559302.92449   2763253.21048  21982607.1284   21982601.9644
     -2322.0944
  -2764814.71649  -2148139.52648  20838164.1284   20838160.9214
      1388.6884
  -4641988.86649  -3613294.67647  23180821.5504   23180817.9604
      2637.9844
 04  9 14 21  6 44.9990000  0  6G 3G 8G13G23G27G19
  -2036451.19949  -1582139.38347  22786382.2924   22786380.5034
       604.6564
  -5033597.87149  -3908411.77748  21786008.1204   21786005.3274
      2635.3594
   -504222.79249   -393034.98548  20037739.0114   20037735.0814
      -161.1254
   3594171.10649   2790423.19848  21989242.3154   21989237.1594
     -2327.2504
  -2785625.77449  -2164355.93348  20834203.7534   20834200.8514
      1385.8284
  -4681519.78549  -3644097.96047  23173298.7694   23173295.6834
      2632.5474
 04  9 14 21  6 59.9990000  0  6G 3G 8G13G23G27G19
  -2045453.43049  -1589154.11947  22784669.3234   22784667.2654
       595.5784
  -5073105.66049  -3939197.05848  21778489.6904   21778486.6944
      2632.4844
   -501750.20249   -391108.30348  20038209.7534   20038205.3194
      -168.5314
   3629116.03849   2817652.99347  21995892.3084   21995886.8314
     -2332.0784
  -2806393.01749  -2180538.20148  20830252.4014   20830248.5624
      1383.1884
  -4720970.40449  -3674838.70647  23165791.9334   23165787.6364
      2627.4844
 04  9 14 21  7 14.9990000  0  6G 3G 8G13G23G27G19
  -2054318.80849  -1596062.21947  22782983.1204   22782980.8974
       586.4844
  -5112570.22049  -3969948.65648  21770979.9254   21770977.1244
      2629.5164
   -499165.49649   -389094.26148  20038701.3784   20038696.7024
      -176.1094
   3664133.54249   2844939.31847  22002556.1984   22002550.6124
     -2336.8594
  -2827120.52949  -2196689.50948  20826308.0114   20826304.8314
      1380.4694
  -4760344.31349  -3705519.64847  23158298.9644   23158295.1714
      2622.4384
 04  9 14 21  7 29.9990000  0  6G 3G 8G13G23G27G19
  -2063043.71049  -1602860.85747  22781322.7614   22781320.4094
       576.9064
  -5151988.05649  -4000663.85248  21763479.0264   21763475.8084
      2626.2194
   -496465.24649   -386990.17748  20039215.3394   20039211.3354
      -183.9064
   3699226.92149   2872284.79148  22009233.6674   22009228.5774
     -2342.1094
  -2847804.85849  -2212807.16448  20822371.7694   20822368.0934
      1377.4534
  -4799637.69949  -3736137.83747  23150822.1904   23150818.4484
      2616.8594
 04  9 14 21  7 44.9990000  0  6G 3G 8G13G23G27G19
  -2071627.70749  -1609549.67247  22779689.0114   22779687.3974
       567.7034
  -5191358.80249  -4031342.33948  21755986.9254   21755983.7534
      2623.2504
   -493648.85349   -384795.58948  20039750.9484   20039747.2184
      -191.5164
   3734396.44049   2899689.58947  22015926.7694   22015921.6244
     -2347.1094
  -2868445.62249  -2228890.87348  20818443.9874   20818440.4404
      1374.7194
  -4838849.85749  -3766692.73647  23143360.1754   23143356.2414
      2611.5314
 04  9 14 21  7 59.9990000  0  6G 3G 8G13G23G27G19
  -2080070.37249  -1616128.37647  22778082.5194   22778080.5074
       558.0634
  -5230682.10049  -4061983.86748  21748504.0344   21748501.5344
      2619.8444
   -490716.03049   -382510.28248  20040309.4484   20040304.9874
      -199.5164
   3769642.23649   2927153.81747  22022633.3624   22022627.8044
     -2352.2974
  -2889042.70149  -2244940.54748  20814524.5194   20814520.9564
      1371.5474
  -4877980.17049  -3797183.88747  23135913.9484   23135909.2454
      2605.9534
 04  9 14 21  8 14.9990000  0  6G 3G 8G13G23G27G19
  -2088373.06649  -1622598.01747  22776502.0424   22776499.6284
       548.7034
  -5269959.48649  -4092589.60748  21741030.0814   21741026.6474
      2616.7974
   -487668.08649   -380135.27548  20040889.4874   20040885.2574
      -207.1874
   3804962.90249   2954676.38848  22029354.5894   22029349.6474
     -2357.4224
  -2909597.30649  -2260957.11648  20810613.1594   20810609.7184
      1368.7034
  -4917029.65849  -3827612.03447  23128482.9724   23128478.5224
      2600.4694
 04  9 14 21  8 29.9990000  0  6G 3G 8G13G23G27G19
  -2096534.63249  -1628957.68047  22774948.9404   22774946.5504
       539.3134
  -5309189.95349  -4123158.79148  21733564.3944   21733561.6944
      2613.7344
   -484503.99349   -377669.74748  20041491.6054   20041487.7884
      -214.8444
   3840359.10349   2982257.81848  22036090.5424   22036085.3664
     -2362.2974
  -2930108.45549  -2276939.82548  20806710.3554   20806706.3554
      1365.9064
  -4955997.01249  -3857976.18447  23121067.7064   23121063.6284
      2595.0314
 04  9 14 21  8 44.9990000  0  6G 3G 8G13G23G27G19
  -2104555.53849  -1635207.74547  22773422.5734   22773420.9374
       530.0474
  -5348373.63649  -4153691.53148  21726108.0034   21726105.0074
      2610.6884
   -481224.14549   -375114.02948  20042115.5894   20042111.3434
      -222.5004
   3875830.34249   3009897.71647  22042840.6124   22042835.4214
     -2367.2034
  -2950576.60749  -2292889.02748  20802814.7844   20802811.6754
      1363.1414
  -4994882.20449  -3888276.32747  23113668.1284   23113663.8044
      2589.5944
 04  9 14 21  8 59.9990000  0  6G 3G 8G13G23G27G19
  -2112436.90149  -1641349.07047  22771923.4334   22771920.9524
       520.7974
  -5387511.94749  -4184188.89848  21718660.2694   21718657.6284
      2607.7194
   -477829.69149   -372469.01048  20042761.5584   20042757.3154
      -230.1254
   3911375.28449   3037595.04547  22049604.5504   22049599.3274
     -2372.1414
  -2971003.04049  -2308805.72748  20798928.0264   20798924.4374
      1360.4064
  -5033686.18649  -3918513.15247  23106284.2534   23106280.0854
      2584.2034
 04  9 14 21  9 14.9990000  0  6G 3G 8G13G23G27G19
  -2120178.55249  -1647381.52047  22770450.0344   22770448.0304
       511.3914
  -5426604.63149  -4214650.72848  21711220.7614   21711218.1244
      2604.6254
   -474320.49849   -369734.57448  20043429.6054   20043425.1554
      -237.8444
   3946993.66449   3065349.60047  22056382.6834   22056377.1364
     -2377.0314
  -2991387.70949  -2324689.88048  20795048.9174   20795045.2964
      1357.5164
  -5072408.59549  -3948686.44247  23098915.3554   23098911.1084
      2578.7344
 04  9 14 21  9 29.9990000  0  6G 3G 8G13G23G27G19
  -2127779.43149  -1653304.28847  22769003.6124   22769001.6674
       502.0474
  -5465650.72849  -4245076.23748  21703790.8084   21703787.9014
      2601.5784
   -470695.57349   -366909.96448  20044119.1674   20044115.0584
      -245.5004
   3982686.37249   3093162.07147  22063174.2224   22063169.3124
     -2382.0164
  -3011729.67249  -2340540.75448  20791178.1984   20791174.5034
      1354.7344
  -5111048.05849  -3978795.07847  23091562.3704   23091558.5224
      2573.1564
 04  9 14 21  9 44.9990000  0  6G 3G 8G13G23G27G19
  -2135239.50349  -1659117.35147  22767583.6754   22767582.0894
       492.5164
  -5504650.10749  -4275465.36748  21696369.7614   21696366.6204
      2598.2664
   -466955.00149   -363995.24948  20044830.7304   20044826.6984
      -253.3284
   4018453.32049   3121032.38747  22069980.8004   22069975.6244
     -2387.0944
  -3032028.93049  -2356358.36148  20787315.3944   20787311.4444
      1351.7034
  -5149604.28649  -4008838.85647  23084225.2454   23084221.4644
      2567.4534
 04  9 14 21  9 59.9990000  0  6G 3G 8G13G23G27G19
  -2142559.99549  -1664821.62747  22766191.3234   22766189.2064
       483.3914
  -5543604.42849  -4305819.37648  21688956.9644   21688953.8904
      2595.3444
   -463099.94749   -360991.31748  20045564.5734   20045560.0194
      -260.8594
   4054293.02149   3148959.39747  22076801.0734   22076795.7224
     -2391.7504
  -3052286.77149  -2372143.68348  20783460.2374   20783456.7924
      1349.1254
  -5188078.17349  -4038818.47147  23076904.4094   23076900.0344
      2562.1254
 04  9 14 21 10 14.9990000  0  6G 3G 8G13G23G27G19
  -2149738.55349  -1670415.31547  22764824.9804   22764823.2104
       473.8914
  -5582511.25649  -4336136.37348  21681552.7694   21681549.9444
      2592.2974
   -459127.97649   -357896.28048  20046320.0114   20046316.0894
      -268.6094
   4090207.64549   3176944.79647  22083635.3864   22083630.1674
     -2396.7034
  -3072500.92749  -2387894.97548  20779613.4564   20779610.1714
      1346.2344
  -5226467.02049  -4068731.83047  23069598.6364   23069595.1794
      2556.5004
 04  9 14 21 10 29.9990000  0  6G 3G 8G13G23G27G19
  -2156776.23749  -1675899.24247  22763485.5814   22763483.6834
       464.5784
  -5621371.74449  -4366417.26448  21674158.2454   21674155.3394
      2589.2344
   -455040.29849   -354711.08148  20047098.0654   20047093.5814
      -276.2974
   4126195.87049   3204987.53347  22090483.6984   22090478.5624
     -2401.5164
  -3092672.52249  -2403613.09848  20775775.1124   20775771.1474
      1343.4534
  -5264771.79849  -4098579.68547  23062309.5894   23062305.6474
      2550.9384
 04  9 14 21 10 44.9990000  0  6G 3G 8G13G23G27G19
  -2163672.63549  -1681273.05547  22762173.3624   22762171.2224
       455.0314
  -5660185.30349  -4396661.57948  21666771.9804   21666769.0974
      2585.9694
   -450836.49149   -351435.39648  20047898.1054   20047894.3554
      -284.1564
   4162258.05549   3233087.90947  22097345.9094   22097341.1444
     -2406.6724
  -3112801.28449  -2419297.84248  20771944.6754   20771941.2724
      1340.4224
  -5302991.73649  -4128361.40547  23055036.6834   23055032.7024
      2545.1254
 04  9 14 21 10 59.9990000  0  7G 3G 8G13G10G23G27G19
  -2170426.77949  -1686536.04447  22760888.1984   22760886.3154
       445.4844
  -5698950.96449  -4426868.58748  21659395.0974   21659392.3004
      2582.7344
   -446515.59949   -348068.47648  20048720.5734   20048716.1474
      -291.9374
   -126080.26259    -85970.02456  23826303.8944   23826301.9604
      2790.7974
   4198394.74949   3261246.33147  22104222.8474   22104218.4214
     -2411.6414
  -3132886.15249  -2434948.38948  20768123.0814   20768119.8154
      1337.4694
  -5341125.65749  -4158076.11847  23047780.0114   23047776.5934
      2539.3594
 04  9 14 21 11 14.9990000  0  7G 3G 8G13G10G23G27G19
  -2177040.36249  -1691689.48647  22759630.2374   22759627.9604
       436.2034
  -5737670.52249  -4457039.64948  21652027.0424   21652024.5654
      2579.7664
   -442079.29049   -344611.61248  20049564.5584   20049560.2804
      -299.5784
   -167887.99049   -118547.45347  23818348.5654   23818346.2334
      2783.5634
   4234604.18049   3289461.45047  22111113.2304   22111107.7144
     -2416.3914
  -3152929.02049  -2450566.20048  20764308.4954   20764305.3744
      1334.8134
  -5379174.89849  -4187724.85347  23040538.9484   23040535.5814
      2533.8444
 04  9 14 21 11 29.9990000  0  7G 3G 8G13G10G23G27G19
  -2183512.04649  -1696732.36247  22758398.0504   22758396.0974
       426.8284
  -5776342.70049  -4487173.81648  21644667.9334   21644664.8664
      2576.6724
   -437526.33449   -341063.86848  20050431.2694   20050426.5504
      -307.3444
   -209584.37249   -151038.18047  23810413.5584   23810411.7724
      2776.2194
   4270887.59149   3317734.21047  22118017.6834   22118012.8274
     -2421.2504
  -3172928.59149  -2466150.28248  20760502.8624   20760499.2304
      1331.9534
  -5417137.77049  -4217306.29447  23033315.1834   23033310.7184
      2528.1564
 04  9 14 21 11 44.9990000  0  7G 3G 8G13G10G23G27G19
  -2189842.91549  -1701665.52047  22757193.8944   22757191.7924
       417.5314
  -5814968.49749  -4517271.82648  21637317.7694   21637315.0154
      2573.6254
   -432857.96049   -337426.18148  20051319.1514   20051315.2334
      -314.8914
   -251170.43049   -183442.83647  23802500.2844   23802498.6324
      2768.8754
   4307243.43549   3346063.40748  22124936.3234   22124931.2104
     -2425.8914
  -3192886.00149  -2481701.51548  20756704.9644   20756701.4644
      1329.2034
  -5455015.26349  -4246821.18447  23026107.3314   23026103.3154
      2522.4064
 04  9 14 21 11 59.9990000  0  7G 3G 8G13G10G23G27G19
  -2196032.23849  -1706488.37247  22756015.4334   22756013.6324
       407.8594
  -5853547.44549  -4547333.32848  21629976.4804   21629973.8434
      2570.2814
   -428073.14949   -333697.76448  20052230.0894   20052225.5224
      -322.9534
   -292645.13749   -215760.81047  23794607.9564   23794605.9834
      2761.1254
   4343672.29049   3374449.49947  22131868.3234   22131863.0654
     -2431.0624
  -3212800.70549  -2497219.45648  20752915.4254   20752912.1244
      1326.1254
  -5492806.28449  -4276268.70347  23018915.5734   23018912.0814
      2516.4534
 04  9 14 21 12 14.9990000  0  7G 3G 8G13G10G23G27G19
  -2202080.71549  -1711201.47247  22754864.2694   22754862.2024
       398.4694
  -5892080.16949  -4577358.82248  21622644.0114   21622640.6444
      2567.2504
   -423172.64449   -329879.19048  20053162.6674   20053158.0814
      -330.6414
   -334008.95449   -247992.36547  23786736.4334   23786734.8354
      2753.8444
   4380173.34949   3402891.84047  22138813.4874   22138808.9524
     -2435.8444
  -3232673.23449  -2512704.55148  20749133.6754   20749130.3944
      1323.4064
  -5530511.21549  -4305649.13647  23011740.8704   23011737.1474
      2510.7664
 04  9 14 21 12 29.9990000  0  7G 3G 8G13G10G23G27G19
  -2207988.28049  -1715804.77547  22753740.4644   22753737.5544
       389.1564
  -5930566.76249  -4607348.35948  21615319.9874   21615317.4834
      2564.2664
   -418156.60249   -325970.59148  20054116.9644   20054112.5224
      -338.2814
   -375261.57449   -280137.26147  23778886.5114   23778885.0694
      2746.4534
   4416746.37349   3431390.27847  22145774.2764   22145768.6674
     -2440.5944
  -3252503.81649  -2528156.93548  20745359.8864   20745356.6834
      1320.6564
  -5568129.70249  -4334962.21647  23004582.1054   23004578.4174
      2504.9694
 04  9 14 21 12 44.9990000  0  7G 3G 8G13G10G23G27G19
  -2213754.20749  -1720297.67647  22752642.9724   22752640.7064
       379.6564
  -5969006.38149  -4637301.29348  21608005.3004   21608002.1714
      2561.0004
   -413024.18849   -321971.32048  20055093.8004   20055089.5774
      -346.1254
   -416402.02249   -312194.72547  23771057.5814   23771056.0264
      2738.8914
   4453391.85549   3459945.17047  22152747.2534   22152742.0934
     -2445.3594
  -3272291.61749  -2543576.00448  20741594.6594   20741591.0854
      1317.7344
  -5605660.66249  -4364207.08247  22997440.7064   22997436.5224
      2499.1564
 04  9 14 21 12 59.9990000  0  7G 3G 8G13G10G23G27G19
  -2219379.14649  -1724680.74847  22751572.6124   22751569.9834
       370.2664
  -6007399.75849  -4667218.21248  21600699.3554   21600695.9834
      2557.9064
   -407776.06949   -317881.88248  20056092.5344   20056087.7764
      -353.7814
   -457430.66949   -344165.09847  23763250.4254   23763248.0384
      2731.3754
   4490109.07649   3488555.95047  22159734.0114   22159728.7654
     -2450.3124
  -3292037.37949  -2558962.31948  20737837.1054   20737833.9094
      1314.8444
  -5643104.50149  -4393384.08247  22990315.0264   22990310.8354
      2493.1884
 04  9 14 21 13 14.9990000  0  7G 3G 8G13G10G23G27G19
  -2224862.41549  -1728953.43347  22750529.6124   22750527.0154
       360.8594
  -6045746.34549  -4697098.66448  21593402.0264   21593399.1164
      2554.9534
   -402411.65649   -313701.82148  20057113.0424   20057108.7304
      -361.4844
   -498346.77949   -376047.76647  23755464.4254   23755462.2614
      2724.0004
   4526898.32949   3517222.86047  22166735.1284   22166729.8864
     -2454.9844
  -3311740.57649  -2574315.45648  20734087.9644   20734083.9994
      1312.1724
  -5680460.33849  -4422492.49047  22983206.4954   22983201.7414
      2487.5784
 04  9 14 21 13 29.9990000  0  7G 3G 8G13G10G23G27G19
  -2230204.16949  -1733115.83347  22749512.6904   22749510.9294
       351.2814
  -6084046.19949  -4726942.69348  21586113.8084   21586111.3354
      2551.6724
   -396931.12049   -309431.27748  20058156.2374   20058151.9334
      -369.2974
   -539150.39649   -407842.78347  23747698.7224   23747697.5624
      2716.4064
   4563759.21349   3545945.60447  22173749.5114   22173744.2334
     -2459.9694
  -3331401.49249  -2589635.64948  20730346.5114   20730343.0344
      1309.2034
  -5717728.00849  -4451532.20847  22976114.7064   22976110.1514
      2481.4224
 04  9 14 21 13 44.9990000  0  7G 3G 8G13G10G23G27G19
  -2235404.17249  -1737167.79747  22748523.4174   22748521.3084
       342.1414
  -6122298.96449  -4756750.03448  21578834.4564   21578831.6794
      2548.7664
   -391334.19749   -305070.05748  20059221.3314   20059217.1164
      -376.8594
   -579840.88949   -439549.66747  23739956.6204   23739954.0774
      2709.0314
   4600692.02849   3574724.39447  22180777.5344   22180772.6714
     -2464.4224
  -3351019.78449  -2604922.62748  20726613.1754   20726609.6444
      1306.6094
  -5754907.06549  -4480502.86847  22969039.8704   22969035.6054
      2475.8754
 04  9 14 21 13 59.9990000  0  7G 3G 8G13G10G23G27G19
  -2240462.58349  -1741109.41447  22747560.7064   22747559.0034
       332.6564
  -6160504.91649  -4786520.89648  21571564.4174   21571561.5384
      2545.6414
   -385621.14649   -300618.33448  20060308.1364   20060303.9404
      -384.6254
   -620418.25249   -471168.40447  23732235.2694   23732232.6904
      2701.5314
   4637696.30349   3603558.85747  22187819.3624   22187814.1834
     -2469.1724
  -3370595.62049  -2620176.52448  20722888.0424   20722884.5224
      1303.7344
  -5791997.28749  -4509404.31347  22961981.3084   22961977.5074
      2469.8134
 04  9 14 21 14 14.9990000  0  7G 3G 8G13G10G23G27G19
  -2245380.51549  -1744941.58747  22746624.9334   22746623.4134
       323.2504
  -6198665.09749  -4816256.09548  21564302.7694   21564300.0734
      2542.4694
   -379792.92149   -296076.87548  20061417.5654   20061413.0074
      -392.4374
   -660883.24549   -502699.56147  23724534.5504   23724532.6874
      2693.9534
   4674770.58849   3632447.88647  22194874.3084   22194869.6084
     -2473.9534
  -3390130.29749  -2635398.34948  20719170.4954   20719166.9684
      1300.9224
  -5828999.41849  -4538237.12747  22954940.1364   22954936.2574
      2463.8284
 04  9 14 21 14 29.9990000  0  7G 3G 8G13G10G23G27G19
  -2250156.50549  -1748663.15647  22745716.1054   22745714.1554
       313.6254
  -6236778.27449  -4845954.66948  21557050.1204   21557047.3194
      2539.3134
   -373848.16349   -291444.60048  20062548.6754   20062544.3554
      -400.2974
   -701234.37849   -534141.96547  23716855.5344   23716854.2724
      2686.2504
   4711916.24449   3661392.50947  22201942.5734   22201938.0774
     -2478.8124
  -3409622.25449  -2650586.88348  20715461.4094   20715458.2534
      1297.9694
  -5865911.83449  -4567000.01447  22947915.8864   22947911.4374
      2457.7504
 04  9 14 21 14 44.9990000  0  7G 3G 8G13G10G23G27G19
  -2254790.89649  -1752274.35147  22744834.5504   22744832.3974
       304.2664
  -6274844.54849  -4875616.69148  21549806.1204   21549802.8584
      2536.2504
   -367787.12849   -286721.72348  20063702.1674   20063698.0854
      -407.9224
   -741471.65149   -565495.68747  23709199.0194   23709197.7724
      2678.7344
   4749132.86549   3690392.45647  22209024.7844   22209020.2104
     -2483.4064
  -3429071.93349  -2665742.48948  20711760.6204   20711757.0194
      1295.2814
  -5902734.54549  -4595693.01847  22940908.6754   22940904.6874
      2451.9694
 04  9 14 21 14 59.9990000  0  7G 3G 8G13G10G23G27G19
  -2259284.14249  -1755775.59147  22743979.1904   22743977.3944
       294.7664
  -6312864.61649  -4905242.70048  21542571.3944   21542568.2414
      2533.0784
   -361610.30349   -281908.62248  20064877.3234   20064873.2414
      -415.6414
   -781595.32849   -596760.88347  23701562.7614   23701561.5854
      2671.0784
   4786419.80349   3719447.17347  22216120.2694   22216115.4444
     -2488.2344
  -3448479.84149  -2680865.53048  20708067.0584   20708063.5734
      1292.4844
  -5939467.70649  -4624316.22047  22933919.4174   22933914.7224
      2445.7974
 04  9 14 21 15 14.9990000  0  7G 3G 8G13G10G23G27G19
  -2263636.61049  -1759167.13347  22743150.5654   22743149.0464
       285.6414
  -6350838.98649  -4934833.11248  21535345.2454   21535341.8744
      2530.2344
   -355318.26649   -277005.74548  20066074.7064   20066070.6124
      -423.2504
   -821605.61849   -627937.72247  23693949.1514   23693947.7654
      2663.6254
   4823776.20749   3748556.03847  22223229.0734   22223223.9484
     -2492.6414
  -3467846.45149  -2695956.39348  20704381.8554   20704378.4684
      1289.7974
  -5976111.50249  -4652869.80547  22926945.4014   22926941.2414
      2440.0004
 04  9 14 21 15 29.9990000  0  8G 3G 8G13G10G23G27G19G28
  -2267848.15549  -1762448.85247  22742349.3154   22742347.9914
       276.1414
  -6388767.28249  -4964387.62548  21528127.4404   21528124.6054
      2527.0164
   -348910.73649   -272012.87248  20067294.1754   20067289.6444
      -431.0164
   -861502.08249   -659025.88347  23686357.9804   23686355.6054
      2655.9384
   4861202.15649   3777719.07747  22230350.8784   22230345.9564
     -2497.3594
  -3487171.60049  -2711014.94348  20700704.3154   20700700.9174
      1286.9844
  -6012665.37649  -4681353.33347  22919989.6834   22919985.6444
      2433.8914
   -169806.31959   -126326.69256  23909728.4254   23909726.5194
      3873.5004
 04  9 14 21 15 44.9990000  0  8G 3G 8G13G10G23G27G19G28
  -2271918.37549  -1765620.47547  22741575.0814   22741573.3554
       266.7194
  -6426649.32549  -4993906.08748  21520918.7304   21520915.8514
      2523.9224
   -342387.28649   -266929.69348  20068535.8314   20068531.3554
      -438.6414
   -901284.15049   -690024.89947  23678787.0504   23678785.6444
      2648.4534
   4898697.86749   3806936.47147  22237485.9014   22237481.5194
     -2501.9374
  -3506455.01949  -2726040.99548  20697034.7924   20697031.4404
      1284.2664
  -6049128.61649  -4709766.21247  22913050.6054   22913047.1834
      2427.8914
   -227890.63349   -171587.08346  23898675.3704   23898673.5304
      3871.1884
 04  9 14 21 15 59.9990000  0  8G 3G 8G13G10G23G27G19G28
  -2275847.00549  -1768681.74247  22740827.9094   22740825.8044
       257.2194
  -6464484.37249  -5023387.93148  21513718.6364   21513715.7024
      2520.7504
   -335747.77949   -261756.05048  20069798.7224   20069794.7264
      -446.5164
   -940951.40549   -720934.43647  23671238.9334   23671237.8434
      2640.6884
   4936263.40349   3836208.28847  22244634.7374   22244629.7334
     -2506.7034
  -3525696.31749  -2741034.21148  20693373.4954   20693369.6284
      1281.2814
  -6085500.68349  -4738108.06947  22906129.5264   22906125.5154
      2421.7194
   -285939.53649   -216820.00146  23887628.7844   23887627.2304
      3868.7504
 04  9 14 21 16 14.9990000  0  8G 3G 8G13G10G23G27G19G28
  -2279635.79549  -1771634.03547  22740106.7844   22740105.0344
       247.9064
  -6502274.66649  -5052834.90948  21506527.6674   21506524.7924
      2517.8444
   -328994.01649   -256493.39048  20071084.6594   20071079.8664
      -454.0474
   -980505.25749   -751755.61247  23663712.3784   23663710.7304
      2633.1254
   4973896.85549   3865533.01547  22251796.1204   22251791.4334
     -2511.1874
  -3544897.40749  -2755996.09948  20689719.3704   20689716.1714
      1278.6884
  -6121783.16449  -4766380.10347  22899225.6444   22899220.9684
      2415.8444
   -343954.63449   -262026.49946  23876589.2454   23876586.9444
      3866.5784
 04  9 14 21 16 29.9990000  0  8G 3G 8G13G10G23G27G19G28
  -2283283.77949  -1774476.63047  22739412.6514   22739410.1984
       238.3914
  -6540019.08149  -5082246.13448  21499344.9874   21499342.2494
      2514.7504
   -322124.95249   -251140.87248  20072391.1054   20072387.0654
      -461.8444
  -1019944.53649   -782487.49747  23656206.7694   23656205.4644
      2625.4534
   5011598.97749   3894911.26047  22258970.6364   22258966.1474
     -2515.8754
  -3564057.33749  -2770925.91948  20686073.4094   20686069.8514
      1275.9064
  -6157974.67849  -4794581.26747  22892338.1984   22892333.9484
      2409.6564
   -401934.87049   -307205.82146  23865555.2304   23865553.4804
      3864.0944
 04  9 14 21 16 44.9990000  0  8G 3G 8G13G10G23G27G19G28
  -2286790.32949  -1777208.98447  22738745.0114   22738742.4484
       228.9224
  -6577717.03149  -5111621.14848  21492171.7224   21492168.5694
      2511.5004
   -315139.89249   -245697.99448  20073720.5974   20073716.3474
      -469.6414
  -1059268.33049   -813129.42047  23648724.4404   23648722.2574
      2617.6254
   5049370.24049   3924343.38747  22266158.1674   22266153.5194
     -2520.4534
  -3583175.35749  -2785823.08348  20682435.6834   20682432.0734
      1273.0164
  -6194074.27149  -4822710.80047  22885468.8004   22885464.7804
      2403.4844
   -459879.38149   -352357.38446  23854528.7374   23854526.8044
      3861.6564
 04  9 14 21 16 59.9990000  0  8G 3G 8G13G10G23G27G19G28
  -2290155.07349  -1779830.87547  22738104.7304   22738102.3004
       219.5004
  -6615367.89249  -5140959.46848  21485006.7844   21485003.6904
      2508.4384
   -308038.35449   -240164.32448  20075071.7534   20075067.9294
      -477.3444
  -1098475.91449   -843680.78647  23641263.3554   23641260.9334
      2609.9064
   5087210.90549   3953829.56947  22273359.1754   22273354.2614
     -2525.0624
  -3602251.16349  -2800687.34948  20678805.3394   20678801.6324
      1270.2814
  -6230081.11349  -4850768.05847  22878617.0344   22878612.5464
      2397.3284
   -517787.47549   -397480.52546  23843509.6514   23843507.6054
      3859.2664
 04  9 14 21 17 14.9990000  0  8G 3G 8G13G10G23G27G19G28
  -2293376.86749  -1782341.36647  22737491.3154   22737489.2334
       210.0944
  -6652970.79649  -5170260.42048  21477851.3704   21477848.0544
      2505.2504
   -300819.44149   -234539.20148  20076445.6204   20076441.6124
      -485.1254
  -1137566.21249   -874140.74447  23633825.0734   23633822.5854
      2602.1724
   5125121.76449   3983370.46947  22280573.0654   22280568.8004
     -2529.6874
  -3621283.80849  -2815517.97548  20675183.4334   20675180.2694
      1267.4694
  -6265994.02349  -4878752.11347  22871783.0734   22871778.7064
      2391.1254
   -575657.98449   -442574.36046  23832496.4954   23832495.0584
      3856.9384
 04  9 14 21 17 29.9990000  0  8G 3G 8G13G10G23G27G19G28
  -2296456.72549  -1784741.25647  22736905.5894   22736903.3944
       200.7664
  -6690526.65949  -5199524.72948  21470704.4954   21470701.4914
      2502.2974
   -293483.98449   -228823.28448  20077841.4874   20077837.4254
      -492.7814
  -1176539.79449   -904509.72747  23626407.7224   23626406.0384
      2594.5784
   5163101.70449   4012965.19247  22287800.4804   22287796.0384
     -2534.1094
  -3640274.19549  -2830315.68048  20671569.7454   20671566.4644
      1264.7504
  -6301813.62849  -4906663.47547  22864966.7454   22864962.0544
      2385.0164
   -633491.70649   -487639.52846  23821491.5584   23821489.8904
      3854.4694
 04  9 14 21 17 44.9990000  0  8G 3G 8G13G10G23G27G19G28
  -2299396.26949  -1787031.82147  22736346.3004   22736344.0544
       191.3134
  -6728036.99449  -5228753.55648  21463566.2224   21463563.3394
      2499.1254
   -286033.86849   -223018.00848  20079259.4094   20079255.5814
      -500.4534
  -1215398.05049   -934788.92147  23619013.5894   23619011.9804
      2586.8134
   5201148.91349   4042612.34347  22295040.9404   22295036.1944
     -2538.6094
  -3659223.85749  -2845081.65548  20667963.9094   20667960.1984
      1261.9384
  -6337541.20549  -4934503.12547  22858167.8704   22858163.6474
      2378.8134
   -691290.07249   -532677.19646  23810493.1904   23810490.7724
      3852.0944
 04  9 14 21 17 59.9990000  0  8G 3G 8G13G10G23G27G19G28
  -2302195.26349  -1789212.83947  22735813.4804   22735811.6874
       181.9694
  -6765501.64149  -5257946.75948  21456436.9954   21456433.9524
      2496.1094
   -278468.57149   -217122.97948  20080699.0034   20080694.8274
      -508.1564
  -1254140.63049   -964977.92947  23611640.9874   23611639.5654
      2579.0314
   5239263.40249   4072311.90647  22302293.7534   22302288.7494
     -2543.1724
  -3678132.80949  -2859815.90048  20664365.7064   20664362.0774
      1259.2504
  -6373176.19349  -4962270.62647  22851386.4174   22851382.6244
      2372.5944
   -749052.58549   -577686.87146  23799500.6594   23799498.8584
      3849.5784
 04  9 14 21 18 14.9990000  0  8G 3G 8G13G10G23G27G19G28
  -2304853.17849  -1791283.97747  22735308.1124   22735306.2414
       172.3594
  -6802920.06349  -5287103.97748  21449316.4254   21449313.7334
      2492.8594
   -270787.65549   -211137.85548  20082160.8864   20082156.5654
      -516.0164
  -1292766.75149   -995076.15447  23604290.8004   23604289.0344
      2571.1414
   5277445.58049   4102064.22347  22309560.2534   22309554.8354
     -2547.9224
  -3697000.37649  -2874517.90848  20660775.1444   20660771.6714
      1256.3444
  -6408717.80849  -4989965.36447  22844623.4404   22844619.2454
      2366.1564
   -806778.48249   -622668.04646  23788516.0894   23788514.3314
      3847.0164
 04  9 14 21 18 29.9990000  0  8G 3G 8G13G10G23G27G19G28
  -2307368.31649  -1793243.81947  22734829.1984   22734827.9334
       162.9694
  -6840290.53049  -5316223.81348  21442205.3234   21442202.3394
      2489.7344
   -262989.58249   -205061.44748  20083644.4954   20083640.2184
      -523.7664
  -1331274.51049  -1025082.22747  23596963.8554   23596961.1404
      2563.2194
   5315696.95249   4131870.43847  22316839.0034   22316833.9644
     -2552.3914
  -3715825.05249  -2889186.48948  20657193.1204   20657189.2534
      1253.5944
  -6444164.16649  -5017585.89047  22837877.9014   22837873.7494
      2359.8914
   -864465.96449   -667619.26346  23777538.3944   23777536.1474
      3844.5634
 04  9 14 21 18 44.9990000  0  8G 3G 8G13G10G23G27G19G28
  -2309743.38749  -1795094.52047  22734377.3474   22734375.1984
       153.7504
  -6877615.77449  -5345308.40148  21435102.4724   21435099.2924
      2486.9384
   -255076.95249   -198895.77448  20085150.3004   20085145.9014
      -531.2814
  -1369666.51249  -1054998.06147  23589658.1444   23589655.6014
      2555.6254
   5354014.49349   4161728.24947  22324130.8624   22324125.8274
     -2556.6874
  -3734609.51049  -2903823.73348  20653618.5194   20653614.8624
      1250.9534
  -6479517.63049  -5045134.02047  22831150.0424   22831146.3434
      2353.8284
   -922117.64949   -712542.60846  23766568.6444   23766565.5624
      3842.2034
 04  9 14 21 18 59.9990000  0  8G 3G 8G13G10G23G27G19G28
  -2311976.34449  -1796834.49547  22733952.0504   22733950.4524
       144.1724
  -6914893.84449  -5374356.24748  21428008.8394   21428006.0424
      2483.6724
   -247047.66049   -192639.19448  20086678.1674   20086673.8744
      -539.1724
  -1407940.21449  -1084821.72047  23582374.1124   23582372.1164
      2547.6564
   5392400.14349   4191639.10247  22331434.5504   22331430.1554
     -2561.2814
  -3753351.73949  -2918428.07648  20650052.0034   20650048.3004
      1248.1414
  -6514775.74049  -5072607.85847  22824441.1054   22824437.0464
      2347.3914
   -979731.13349   -757436.16947  23755604.1444   23755602.4874
      3839.6414
 04  9 14 21 19 14.9990000  0  8G 3G 8G13G10G23G27G19G28
  -2314067.44049  -1798463.92147  22733554.0344   22733552.6554
       134.6724
  -6952124.76949  -5403367.34648  21420923.9254   21420921.0544
      2480.5004
   -238902.01449   -186291.94848  20088228.0814   20088223.8474
      -546.9224
  -1446095.79649  -1114553.34147  23575113.1364   23575111.4524
      2539.8134
   5430853.47949   4221602.71147  22338752.2304   22338748.0034
     -2565.7504
  -3772051.91049  -2932999.63348  20646493.4174   20646489.6164
      1245.3134
  -6549938.42449  -5100007.34347  22817749.8154   22817745.8784
      2341.0004
  -1037306.60449   -802300.14647  23744648.4644   23744646.2184
      3837.1564
 04  9 14 21 19 29.9990000  0  8G 3G 8G13G10G23G27G19G28
  -2316017.70049  -1799983.61347  22733183.3624   22733181.6324
       125.2344
  -6989309.98349  -5432342.83248  21413847.6124   21413844.8004
      2477.4384
   -230641.13749   -179854.91148  20089800.0504   20089796.3274
      -554.5944
  -1484134.05049  -1144193.54447  23567875.2064   23567872.6124
      2531.9844
   5469373.26049   4251618.08647  22346082.7924   22346078.2924
     -2570.2034
  -3790711.17849  -2947539.31848  20642942.6054   20642939.3194
      1242.5474
  -6585006.61449  -5127333.18547  22811076.8084   22811072.3084
      2334.6564
  -1094844.83749   -847135.10046  23733698.8004   23733697.1084
      3834.6094
 04  9 14 21 19 44.9990000  0  8G 3G 8G13G10G23G27G19G28
  -2317825.59249  -1801392.36247  22732838.6054   22732836.9604
       115.7814
  -7026447.71349  -5461281.31448  21406781.1124   21406777.9444
      2474.2504
   -222263.48149   -173326.88048  20091394.1984   20091390.1754
      -562.4064
  -1522053.25149  -1173740.96847  23560658.7694   23560657.0344
      2523.8914
   5507960.79149   4281686.25347  22353425.8554   22353421.1014
     -2574.7194
  -3809327.88249  -2962045.84048  20639399.9254   20639396.5304
      1239.7344
  -6619978.27049  -5154583.82147  22804421.9014   22804416.8824
      2328.2814
  -1152344.14649   -891939.70847  23722757.0654   23722754.6944
      3832.0784
 04  9 14 21 19 59.9990000  0  8G 3G 8G13G10G23G27G19G28
  -2319492.52349  -1802691.27847  22732522.1444   22732520.3664
       106.5314
  -7063539.17049  -5490183.74048  21399722.5814   21399719.8124
      2471.2814
   -213770.27649   -166708.81148  20093010.3864   20093006.9644
      -570.0004
  -1559854.36649  -1203196.36347  23553465.9484   23553463.7024
      2516.2814
   5546614.65549   4311806.11347  22360781.4174   22360776.8974
     -2579.0004
  -3827903.47049  -2976520.33448  20635865.0974   20635861.5344
      1237.0634
  -6654854.51249  -5181760.10447  22797784.8864   22797780.8744
      2322.0314
  -1209805.56649   -936714.79847  23711823.1904   23711820.9014
      3829.5634
 04  9 14 21 20 14.9990000  0  8G 3G 8G13G10G23G27G19G28
  -2321019.03449  -1803880.77847  22732231.5344   22732229.6714
        96.9844
  -7100584.75349  -5519050.41848  21392673.0504   21392670.1714
      2468.1094
   -205162.21449   -160001.23748  20094648.6904   20094644.5034
      -577.8444
  -1597537.84849  -1232560.10547  23546294.8474   23546293.0894
      2508.2814
   5585334.04149   4341977.02247  22368149.7224   22368144.8314
     -2583.5784
  -3846438.60649  -2990963.30348  20632338.2374   20632334.8904
      1234.2194
  -6689635.55549  -5208862.19247  22791166.3704   22791162.5034
      2315.4224
  -1267229.51749   -981460.70047  23700894.6984   23700893.0544
      3826.8754
 04  9 14 21 20 29.9990000  0  8G 3G 8G13G10G23G27G19G28
  -2322403.37049  -1804959.46547  22731968.4014   22731966.3394
        87.6724
  -7137583.03549  -5547880.23748  21385632.3554   21385629.5464
      2465.0314
   -196437.49549   -153202.76648  20096308.8474   20096304.7804
      -585.5164
  -1635101.78249  -1261830.68747  23539146.7694   23539144.4954
      2500.3754
   5624120.51549   4372200.21647  22375530.2304   22375525.8044
     -2588.0314
  -3864931.47449  -3005373.32648  20628819.1674   20628815.3124
      1231.5314
  -6724319.43649  -5235888.57347  22784565.7764   22784561.8514
      2309.0634
  -1324614.17049  -1026175.93847  23689974.8234   23689973.2764
      3824.3754
 04  9 14 21 20 44.9990000  0  8G 3G 8G13G10G23G27G19G28
  -2323647.59449  -1805928.99747  22731731.2374   22731729.5224
        78.1564
  -7174535.98849  -5576674.74948  21378600.3944   21378597.4484
      2461.9064
   -187598.15949   -146314.98448  20097991.0424   20097986.7764
      -593.2194
  -1672547.98549  -1291009.57546  23532020.5974   23532018.6554
      2492.4534
   5662971.97249   4402474.03747  22382923.6674   22382918.9054
     -2592.4694
  -3883383.99749  -3019751.91748  20625307.5974   20625304.0114
      1228.7194
  -6758907.78049  -5262840.52247  22777984.5734   22777979.7144
      2302.5784
  -1381961.30049  -1070861.96247  23679062.2764   23679060.4294
      3821.7344
 04  9 14 21 20 59.9990000  0  8G 3G 8G13G10G23G27G19G28
  -2324748.29149  -1806786.68547  22731522.4094   22731520.0034
        68.6884
  -7211439.94149  -5605431.06548  21371577.9254   21371574.8974
      2458.7504
   -178640.75649   -139335.20748  20099695.6444   20099691.6364
      -600.9844
  -1709872.64449  -1320093.69247  23524918.9404   23524916.6364
      2484.3284
   5701891.62249   4432801.00547  22390329.2144   22390324.4404
     -2596.9064
  -3901792.84749  -3034096.48548  20621804.6904   20621800.9874
      1225.9064
  -6793396.92349  -5289715.17547  22771421.0114   22771417.0194
      2296.0474
  -1439267.15049  -1115515.83047  23668157.1514   23668155.4334
      3819.1564
 04  9 14 21 21 14.9990000  0  8G 3G 8G13G10G23G27G19G28
  -2325708.66849  -1807535.03547  22731339.2694   22731337.2144
        59.1564
  -7248298.20849  -5634151.78648  21364564.1754   21364560.8434
      2455.5474
   -169568.55249   -132265.96648  20101422.2374   20101417.9644
      -608.8754
  -1747078.69549  -1349085.44947  23517838.5344   23517836.2654
      2476.2194
   5740875.92949   4463178.35647  22397748.3784   22397743.3474
     -2601.2504
  -3920161.29049  -3048409.55948  20618309.2304   20618305.8624
      1223.0164
  -6827789.78249  -5316514.79347  22764876.7764   22764872.4914
      2289.5004
  -1496534.85549  -1160139.97147  23657259.8554   23657257.3904
      3816.2974
 04  9 14 21 21 29.9990000  0  8G 3G 8G13G10G23G27G19G28
  -2326527.25349  -1808172.89847  22731183.0894   22731181.5974
        49.9694
  -7285109.31449  -5662835.76648  21357559.2454   21357556.0894
      2452.4844
   -160379.88249   -125105.96448  20103170.5424   20103166.3154
      -616.4224
  -1784164.51149  -1377983.47947  23510781.8234   23510779.1904
      2468.2814
   5779926.38549   4493607.23847  22405179.1364   22405173.7764
     -2605.6564
  -3938487.67549  -3062689.85548  20614821.8154   20614817.9374
      1220.3754
  -6862084.47949  -5343237.91747  22758350.7304   22758346.2454
      2282.9844
  -1553762.68449  -1204733.05747  23646369.4014   23646367.6084
      3813.8594
 04  9 14 21 21 44.9990000  0  8G 3G 8G13G10G23G27G19G28
  -2327204.10849  -1808700.31547  22731054.7454   22731052.5734
        40.3914
  -7321873.33949  -5691483.04248  21350563.0504   21350560.2654
      2449.2974
   -151074.99249   -117855.42248  20104941.2694   20104937.1714
      -624.1874
  -1821129.94649  -1406787.66947  23503746.6204   23503744.6674
      2460.1884
   5819042.64849   4524087.41347  22412622.7454   22412618.1364
     -2610.0164
  -3956772.22049  -3076937.55848  20611342.4484   20611338.6514
      1217.4844
  -6896280.76349  -5369884.35047  22751843.0344   22751838.9444
      2276.3914
  -1610950.50849  -1249294.93147  23635486.7224   23635484.9254
      3811.0944
 04  9 14 21 21 59.9990000  0  8G 3G 8G13G10G23G27G19G28
  -2327737.96149  -1809116.31747  22730952.7534   22730951.1674
        31.0784
  -7358589.01649  -5720092.65648  21343576.1204   21343573.5584
      2446.3444
   -141652.71849   -110513.40448  20106734.4094   20106730.1944
      -631.8754
  -1857973.50749  -1435496.97847  23496735.7144   23496733.2064
      2452.3284
   5858225.82549   4554619.70947  22420079.2764   22420074.3944
     -2614.2194
  -3975013.71349  -3091151.71048  20607870.9484   20607867.4524
      1214.8754
  -6930377.20449  -5396452.99047  22745354.6674   22745350.7104
      2269.9694
  -1668097.00449  -1293824.61247  23624612.2764   23624610.0654
      3808.5474
 04  9 14 21 22 14.9990000  0  8G 3G 8G13G10G23G27G19G28
  -2328130.61749  -1809422.29547  22730877.7374   22730875.6674
        21.4384
  -7395257.98849  -5748665.87248  21336598.5424   21336595.9294
      2442.9224
   -132114.68949   -103081.18348  20108549.2614   20108544.8154
      -639.8284
  -1894696.74449  -1464112.45447  23489747.1984   23489745.7764
      2444.1884
   5897473.88149   4585202.57347  22427547.7614   22427543.2064
     -2618.8284
  -3993213.88249  -3105333.66548  20604407.9804   20604404.3004
      1211.9064
  -6964375.24549  -5422944.95047  22738885.4094   22738881.2494
      2263.2194
  -1725203.68049  -1338323.28147  23613745.2614   23613743.2224
      3805.7504
 04  9 14 21 22 29.9990000  0  8G 3G 8G13G10G23G27G19G28
  -2328380.81449  -1809617.25847  22730830.0344   22730828.6674
        11.7974
  -7431878.91449  -5777201.66448  21329629.8314   21329626.5974
      2439.6254
   -122459.59949    -95557.75048  20110386.5034   20110382.0974
      -647.7034
  -1931298.12349  -1492633.00947  23482782.6834   23482780.7224
      2436.0004
   5936788.00149   4615836.91447  22435028.9954   22435024.1444
     -2623.3284
  -4011371.33049  -3119482.32148  20600952.4954   20600949.2104
      1209.0164
  -6998273.17949  -5449358.93747  22732434.2924   22732430.0074
      2256.3594
  -1782268.94949  -1382789.68347  23602886.0504   23602884.0464
      3802.8284
 04  9 14 21 22 44.9990000  0  8G 3G 8G13G10G23G27G19G28
  -2328489.68549  -1809702.08947  22730810.3084   22730807.3354
         2.5004
  -7468452.90349  -5805700.86648  21322669.9954   21322667.3004
      2436.6564
   -112688.65249    -87944.03248  20112245.9484   20112241.7844
      -655.3124
  -1967778.59249  -1521059.35547  23475840.0974   23475838.1984
      2427.9384
   5976166.90149   4646521.73247  22442522.5034   22442517.6554
     -2627.4844
  -4029487.20649  -3133598.58948  20597505.1054   20597501.4684
      1206.3134
  -7032071.83849  -5475695.54747  22726002.4014   22725998.2184
      2249.8754
  -1839293.67449  -1427224.49847  23592034.5814   23592032.6514
      3800.2504
 04  9 14 21 22 59.9990000  0  8G 3G 8G13G10G23G27G19G28
  -2328456.60049  -1809676.30847  22730816.5584   22730813.7724
        -6.9694
  -7504979.28049  -5834162.96848  21315719.0734   21315716.0814
      2433.4534
   -102801.11149    -80239.46448  20114127.4094   20114123.2574
      -663.0474
  -2004137.21449  -1549390.71047  23468921.2304   23468918.9914
      2419.7974
   6015611.05749   4677257.39747  22450028.2694   22450024.4054
     -2631.7344
  -4047560.86349  -3147681.95748  20594065.8704   20594062.4804
      1203.5004
  -7065770.26249  -5501954.03947  22719589.9564   22719585.6404
      2243.2664
  -1896277.16349  -1471627.17247  23581191.4014   23581188.7884
      3797.5784
 04  9 14 21 23 14.9990000  0  8G 3G 8G13G10G23G27G19G28
  -2328281.83049  -1809540.11147  22730849.4014   22730847.3904
       -16.4064
  -7541458.32649  -5862588.18448  21308777.2844   21308774.3664
      2430.2344
    -92797.30449    -72444.29948  20116031.2224   20116027.1634
      -670.8914
  -2040374.07449  -1577627.24047  23462025.9334   23462023.3944
      2411.6884
   6055119.96949   4708043.51447  22457546.7694   22457542.4334
     -2636.1094
  -4065592.64749  -3161732.69748  20590634.4404   20590630.9054
      1200.5784
  -7099368.38949  -5528134.38747  22713196.2374   22713192.5224
      2236.4694
  -1953219.34749  -1515997.65847  23570355.0814   23570353.0304
      3794.6254
 04  9 14 21 23 29.9990000  0  8G 3G 8G13G10G23G27G19G28
  -2327964.54849  -1809292.89247  22730909.7844   22730907.8154
       -25.9064
  -7577889.30449  -5890975.96748  21301844.6364   21301842.0194
      2427.1564
    -82676.46749    -64557.95048  20117957.3554   20117953.1084
      -678.6254
  -2076488.13349  -1605768.04247  23455153.6204   23455151.2764
      2403.5164
   6094694.30949   4738880.62247  22465077.5424   22465072.6474
     -2640.4534
  -4083581.69249  -3175750.13848  20587211.1984   20587208.0894
      1197.8754
  -7132865.17749  -5554235.77647  22706822.4174   22706818.0154
      2229.7504
  -2010119.29949  -1560335.23247  23559527.7764   23559525.4874
      3791.8914
 04  9 14 21 23 44.9990000  0  8G 3G 8G13G10G23G27G19G28
  -2327505.35549  -1808935.08947  22730996.9644   22730995.2654
       -35.3444
  -7614272.68049  -5919326.63648  21294921.1514   21294918.6554
      2423.9534
    -72439.20949    -56580.88248  20119905.1594   20119901.3864
      -686.4534
  -2112479.71949  -1633813.42947  23448304.4334   23448302.0264
      2395.2814
   6134333.33649   4769768.13747  22472620.8784   22472616.1514
     -2644.8444
  -4101528.62749  -3189734.76848  20583795.8154   20583792.6674
      1195.0314
  -7166260.97349  -5580258.47147  22700467.3004   22700462.9334
      2222.9064
  -2066977.38449  -1604640.19847  23548708.0504   23548705.3584
      3789.0944
 04  9 14 21 23 59.9990000  0  8G 3G 8G13G10G23G27G19G28
  -2326904.04149  -1808466.52647  22731112.1674   22731110.0074
       -44.7344
  -7650608.17149  -5947639.99848  21288006.8474   21288004.1474
      2420.8914
    -62085.34849    -48512.94948  20121875.6364   20121871.3514
      -694.0164
  -2148348.43049  -1661763.06047  23441479.2614   23441476.7334
      2387.2034
   6174037.09649   4800706.07147  22480175.7374   22480171.6404
     -2649.0164
  -4119433.19049  -3203686.37448  20580389.0114   20580385.7454
      1192.3134
  -7199555.12849  -5606201.95647  22694131.8474   22694126.9684
      2216.2664
  -2123793.15649  -1648912.17947  23537895.4954   23537893.7184
      3786.3754
 04  9 14 21 24 14.9990000  0  8G 3G 8G13G10G23G27G19G28
  -2326161.38449  -1807887.84047  22731252.7064   22731250.6164
       -54.3124
  -7686896.43549  -5975916.56448  21281101.3554   21281098.4254
      2417.5474
    -51615.36049    -40354.53448  20123867.7064   20123863.7494
      -701.9694
  -2184094.66649  -1689617.26347  23434677.4874   23434674.4484
      2379.0314
   6213804.67349   4831693.75947  22487743.4874   22487739.0074
     -2653.2974
  -4137295.95649  -3217605.41748  20576989.6124   20576986.7694
      1189.3594
  -7232748.07349  -5632066.56147  22687815.0814   22687811.0774
      2209.4534
  -2180567.14449  -1693151.59047  23527092.3004   23527089.8704
      3783.4694
 04  9 14 21 24 29.9990000  0  8G 3G 8G13G10G23G27G19G28
  -2325276.03049  -1807197.96347  22731421.3314   22731419.6404
       -63.7034
  -7723136.08649  -6004155.24648  21274205.2764   21274202.4134
      2414.4224
    -41028.00749    -32104.65548  20125882.6754   20125878.4444
      -709.6564
  -2219716.84049  -1717374.80447  23427897.9564   23427895.3824
      2370.7814
   6253637.27549   4862732.11747  22495323.3154   22495319.2064
     -2657.5944
  -4155115.71649  -3231490.94148  20573598.7534   20573595.5774
      1186.6254
  -7265838.13849  -5657851.02547  22681518.4174   22681514.3744
      2202.6094
  -2237297.74149  -1737357.22247  23516296.7844   23516294.5074
      3780.6094
 04  9 14 21 24 44.9990000  0  8G 3G 8G13G10G23G27G19G28
  -2324248.37749  -1806397.19247  22731617.1514   22731614.7844
       -73.1564
  -7759327.38849  -6032356.25748  21267318.1284   21267315.1674
      2411.2664
    -30323.66649    -23763.61248  20127919.6204   20127915.5344
      -717.4064
  -2255215.04049  -1745035.73347  23421142.8784   23421140.7224
      2362.4694
   6293534.30749   4893820.66447  22502916.0424   22502911.8194
     -2661.8444
  -4172892.77149  -3245343.18748  20570215.8704   20570212.8124
      1183.7504
  -7298825.42749  -5683555.38947  22675241.0264   22675237.2574
      2195.7814
  -2293985.10349  -1781529.14547  23505509.6594   23505507.0074
      3777.7664
 04  9 14 21 24 59.9990000  0  8G 3G 8G13G10G23G27G19G28
  -2323080.66849  -1805487.29647  22731839.1054   22731837.2654
       -82.6874
  -7795472.72349  -6060521.44648  21260440.1444   21260436.8234
      2408.0004
    -19504.65049    -15333.22348  20129978.2454   20129974.1404
      -725.2664
  -2290591.44949  -1772601.74147  23414411.3314   23414409.0694
      2354.2504
   6333493.39149   4924957.57347  22510519.8234   22510515.6014
     -2666.2034
  -4190629.37749  -3259163.92648  20566840.8784   20566837.4374
      1180.9534
  -7331711.83849  -5709181.16347  22668983.4644   22668979.4644
      2188.8134
  -2350631.31649  -1825669.02747  23494730.1444   23494728.0774
      3774.9224
 04  9 14 21 25 14.9990000  0  8G 3G 8G13G10G23G27G19G28
  -2321771.38649  -1804467.08047  22732088.0814   22732086.0424
       -92.0624
  -7831570.40449  -6088649.49948  21253570.6834   21253567.9804
      2404.8914
     -8569.41349     -6812.28348  20132059.6284   20132055.6284
      -732.8594
  -2325844.27949  -1800071.48847  23407702.5344   23407700.8824
      2346.1254
   6373515.85349   4956143.86847  22518136.2694   22518131.7144
     -2670.2504
  -4208324.02749  -3272951.96648  20563473.5974   20563470.7844
      1178.2344
  -7364495.59149  -5734726.92347  22662744.2454   22662740.6874
      2182.2194
  -2407234.68149  -1869775.48847  23483958.2924   23483955.9524
      3772.0944
 04  9 14 21 25 29.9990000  0  8G 3G 8G13G10G23G27G19G28
  -2320320.55149  -1803336.54247  22732364.2614   22732362.2844
      -101.4694
  -7867620.57949  -6116740.53548  21246710.8944   21246708.1714
      2401.7504
      2482.03249      1799.22748  20134162.1514   20134158.5344
      -740.6254
  -2360973.31549  -1827444.74347  23401017.9174   23401015.4484
      2337.8444
   6413601.48049   4987379.38847  22525763.9334   22525759.6244
     -2674.4374
  -4225976.64749  -3286707.25148  20560114.3004   20560111.0934
      1175.4384
  -7397176.31549  -5760192.41947  22656524.9874   22656521.4294
      2175.3134
  -2463794.93349  -1913848.36047  23473195.8154   23473193.1754
      3769.1724
 04  9 14 21 25 44.9990000  0  8G 3G 8G13G10G23G27G19G28
  -2318729.31049  -1802096.63147  22732666.7844   22732665.2654
      -110.7974
  -7903624.03949  -6144795.17448  21239859.6834   21239856.5504
      2398.6254
     13648.60949     10500.44248  20136287.1594   20136283.1404
      -748.3284
  -2395979.28349  -1854722.11847  23394356.9334   23394355.0464
      2329.6094
   6453749.08149   5018663.19147  22533404.0894   22533398.9564
     -2678.6414
  -4243588.34449  -3300430.65148  20556763.3234   20556759.5774
      1172.6884
  -7429754.81249  -5785578.24347  22650326.3474   22650322.4684
      2168.4224
  -2520312.98149  -1957888.35047  23462440.8394   23462437.8554
      3766.4064
 04  9 14 21 25 59.9990000  0  8G 3G 8G13G10G23G27G19G28
  -2316996.81549  -1800746.64547  22732996.7924   22732994.8474
      -120.2664
  -7939580.09849  -6172812.86848  21233017.3864   21233014.2724
      2395.5784
     24931.15849     19292.02148  20138434.3154   20138430.3004
      -756.0004
  -2430861.25949  -1881902.87847  23387718.6904   23387716.5154
      2321.3444
   6493959.31249   5049995.79547  22541055.4174   22541050.7654
     -2682.7664
  -4261158.20849  -3314121.45048  20553419.4724   20553416.0894
      1169.8914
  -7462230.07049  -5810883.62147  22644146.6284   22644142.4484
      2161.6564
  -2576787.71649  -2001894.59847  23451693.8864   23451691.4994
      3763.5314
 04  9 14 21 26 14.9990000  0  8G 3G 8G13G10G23G27G19G28
  -2315122.04349  -1799285.78247  22733353.9094   22733351.7024
      -129.7034
  -7975487.68549  -6200792.80648  21226184.5194   21226181.2494
      2392.2034
     36330.74049     28174.80648  20140602.8944   20140599.0584
      -763.8124
  -2465618.00449  -1908986.02747  23381105.3474   23381102.3784
      2312.9384
   6534233.04549   5081377.88247  22548719.7534   22548714.8274
     -2686.9374
  -4278685.25849  -3327778.89448  20550084.2224   20550081.0814
      1167.0634
  -7494600.58049  -5836107.37647  22637986.8944   22637982.3154
      2154.6254
  -2633217.94749  -2045866.17747  23440955.5424   23440953.1054
      3760.6724
 04  9 14 21 26 29.9990000  0  8G 3G 8G13G10G23G27G19G28
  -2313105.75449  -1797714.64747  22733737.1754   22733735.1714
      -139.1254
  -8011347.17749  -6228735.25748  21219360.3394   21219357.6364
      2389.0164
     47846.59349     37148.17848  20142794.6514   20142790.6674
      -771.5784
  -2500249.83249  -1935971.88247  23374514.1514   23374511.9334
      2304.5634
   6574569.38749   5112808.74847  22556395.8004   22556390.8124
     -2691.1094
  -4296170.15549  -3341403.48648  20546757.0654   20546753.4134
      1164.3134
  -7526866.77049  -5861249.86047  22631846.6054   22631842.1364
      2147.5314
  -2689604.18049  -2089803.47447  23430226.0034   23430223.1404
      3757.6254
 04  9 14 21 26 44.9990000  0  8G 3G 8G13G10G23G27G19G28
  -2310947.68349  -1796033.03747  22734147.7374   22734145.8584
      -148.7344
  -8047158.54249  -6256640.20548  21212545.9094   21212543.1944
      2385.7344
     59478.90849     46212.31048  20145008.1284   20145004.3664
      -779.5004
  -2534756.29649  -1962860.00947  23367948.2224   23367945.8584
      2296.1094
   6614968.42849   5144288.49147  22564082.8004   22564078.2224
     -2695.5164
  -4313612.55349  -3354994.96848  20543437.5584   20543434.2374
      1161.2974
  -7559028.08149  -5886310.59947  22625726.1124   22625721.7574
      2140.4844
  -2745945.87049  -2133706.06247  23419504.5814   23419501.7374
      3754.4694
 04  9 14 21 26 59.9990000  0  8G 3G 8G13G10G23G27G19G28
  -2308646.42949  -1794239.86647  22734586.3004   22734584.1054
      -158.2664
  -8082920.30449  -6284506.51748  21205740.6754   21205737.5774
      2382.4384
     71229.23849     55368.39948  20147244.3624   20147240.3044
      -787.3594
  -2569135.75249  -1989649.20047  23361406.0424   23361403.6284
      2287.6564
   6655431.47549   5175818.08947  22571783.0894   22571778.3354
     -2699.7504
  -4331011.13249  -3368552.29748  20540127.0504   20540123.5544
      1158.3914
  -7591082.71649  -5911288.22947  22619626.2844   22619622.4444
      2133.4224
  -2802241.44149  -2177572.69547  23408791.7144   23408788.6124
      3751.4224
 04  9 14 21 27 14.9990000  0  8G 3G 8G13G10G23G27G19G28
  -2306203.70949  -1792336.45347  22735051.2224   22735049.0894
      -167.6254
  -8118634.10049  -6312335.44248  21198944.2064   21198941.2884
      2379.2504
     83095.91149     64615.14748  20149502.6364   20149498.5974
      -795.0474
  -2603389.76649  -2016340.64647  23354887.6054   23354884.8584
      2279.3134
   6695956.56449   5207396.04547  22579494.3704   22579489.9564
     -2703.7504
  -4348367.41049  -3382076.67348  20536824.1984   20536820.8974
      1155.6724
  -7623032.08849  -5936183.82047  22613546.3704   22613542.4684
      2126.3444
  -2858492.40249  -2221404.57147  23398087.4254   23398084.3824
      3748.5314
 04  9 14 21 27 29.9990000  0  8G 3G 8G13G10G23G27G19G28
  -2303620.25749  -1790323.38047  22735542.5114   22735540.7184
      -176.9534
  -8154300.36349  -6340127.32648  21192157.3004   21192154.2614
      2376.0784
     95078.19649     73951.97748  20151782.8624   20151778.9684
      -802.7034
  -2637518.69049  -2042934.61047  23348393.6444   23348390.4054
      2270.9844
   6736543.00949   5239021.80047  22587218.3084   22587213.2374
     -2707.9534
  -4365682.07949  -3395568.62348  20533529.5344   20533526.1634
      1152.8594
  -7654876.50349  -5960997.63847  22607486.8704   22607482.7184
      2119.3444
  -2914699.01149  -2265201.89647  23387391.0734   23387388.3394
      3745.5474
 04  9 14 21 27 44.9990000  0  8G 3G 8G13G10G23G27G19G28
  -2300895.28649  -1788200.02147  22736061.2064   22736058.5034
      -186.5164
  -8189918.45449  -6367881.67748  21185379.2304   21185376.3554
      2372.7664
    107176.94049     83379.55348  20154085.0034   20154081.0264
      -810.5784
  -2671521.66049  -2069430.40847  23341923.0654   23341920.4374
      2262.6414
   6777191.18349   5270695.66747  22594953.1834   22594948.2184
     -2712.0474
  -4382954.43749  -3409027.60148  20530242.6754   20530238.8744
      1149.8914
  -7686614.96449  -5985728.89847  22601447.2924   22601443.0114
      2112.2194
  -2970860.51249  -2308964.04947  23376704.1284   23376701.3974
      3742.4534
 04  9 14 21 27 59.9990000  0  8G 3G 8G13G10G23G27G19G28
  -2298028.87549  -1785966.46047  22736606.7064   22736604.7574
      -195.7344
  -8225488.39849  -6395598.50548  21178610.7694   21178607.7024
      2369.7974
    119391.99549     92897.76848  20156409.7614   20156405.8194
      -818.1564
  -2705398.30449  -2095827.79047  23335476.0734   23335473.9174
      2254.3134
   6817901.05549   5302417.61247  22602700.0734   22602695.3514
     -2715.9374
  -4400184.40349  -3422453.54048  20526964.0734   20526960.5894
      1147.3444
  -7718247.24549  -6010377.40447  22595427.5034   22595423.2024
      2105.2814
  -3026976.60449  -2352690.86447  23366025.1674   23366022.4684
      3739.6094
 04  9 14 21 28 14.9990000  0  8G 3G 8G13G10G23G27G19G28
  -2295021.56549  -1783623.11347  22737178.2454   22737176.3434
      -205.2344
  -8261010.53449  -6423278.09048  21171851.3084   21171848.2104
      2366.5004
    131722.76949    102506.15348  20158756.1364   20158752.4174
      -825.9844
  -2739149.09849  -2122127.10547  23329053.6834   23329051.0894
      2245.7504
   6858671.89549   5334187.04047  22610458.3784   22610453.5384
     -2720.1254
  -4417372.50549  -3435846.87048  20523693.2614   20523689.5894
      1144.4064
  -7749773.69549  -6034943.45347  22589428.4014   22589423.5584
      2098.0944
  -3083047.71649  -2396382.61747  23355355.4094   23355353.0694
      3736.5004
 04  9 14 21 28 29.9990000  0  8G 3G 8G13G10G23G27G19G28
  -2291873.01249  -1781169.69747  22737777.7924   22737775.6754
      -214.5784
  -8296484.77049  -6450920.33948  21165100.7144   21165097.4994
      2363.4064
    144169.52149    112204.90848  20161124.6054   20161120.8904
      -833.5944
  -2772773.46049  -2148327.89547  23322654.5114   23322653.0424
      2237.4694
   6899503.77049   5366004.03947  22618228.8864   22618224.1514
     -2724.0624
  -4434518.46449  -3449207.36348  20520430.3154   20520427.1054
      1141.7034
  -7781193.56749  -6059426.46447  22583449.7144   22583444.6054
      2091.1414
  -3139073.25549  -2440038.81347  23344694.0114   23344691.6324
      3733.5634
 04  9 14 21 28 44.9990000  0  8G 3G 8G13G10G23G27G19G28
  -2288584.01249  -1778606.84147  22738403.8154   22738401.7454
      -223.9224
  -8331911.51249  -6478525.58548  21158358.8864   21158355.6514
      2360.0474
    156731.69349    121993.59948  20163514.9404   20163511.0034
      -841.3754
  -2806271.82249  -2174430.50147  23316280.6284   23316277.5194
      2229.0314
   6940395.84549   5397867.96047  22626010.0974   22626005.5934
     -2728.1094
  -4451622.94049  -3462535.52448  20517175.5424   20517172.4174
      1138.8594
  -7812507.20349  -6083826.67247  22577490.5424   22577486.2614
      2084.0164
  -3195053.76649  -2483659.95147  23334040.6364   23334039.0154
      3730.4844
 04  9 14 21 28 59.9990000  0  8G 3G 8G13G10G23G27G19G28
  -2285154.41949  -1775934.42747  22739056.6514   22739054.0034
      -233.2344
  -8367290.53649  -6506093.64748  21151626.6594   21151623.7064
      2357.0474
    169409.44349    131872.35348  20165927.4804   20165923.2064
      -848.9064
  -2839643.70549  -2200434.56847  23309930.2144   23309927.8584
      2220.6884
   6981348.23449   5429778.86147  22633802.9874   22633798.9764
     -2732.0624
  -4468685.49849  -3475831.02748  20513928.7764   20513924.9764
      1136.2194
  -7843714.02449  -6108143.66247  22571552.1364   22571547.7334
      2076.9694
  -3250988.71649  -2527245.57647  23323397.2614   23323394.7104
      3727.6094
 04  9 14 21 29 14.9990000  0  8G 3G 8G13G10G23G27G19G28
  -2281584.66649  -1773152.80447  22739735.6514   22739733.7724
      -242.6254
  -8402622.18849  -6533624.79948  21144903.3154   21144900.2574
      2353.8754
    182202.27749    141840.77648  20168362.0114   20168357.8274
      -856.7194
  -2872889.49449  -2226340.38347  23303603.6364   23303601.2304
      2212.2974
   7022360.34449   5461736.30647  22641607.5974   22641602.6364
     -2736.1254
  -4485706.73649  -3489094.33148  20510689.4954   20510685.7924
      1133.3594
  -7874814.25449  -6132377.59047  22565633.6984   22565629.6794
      2069.8284
  -3306878.40349  -2570795.96547  23312762.1594   23312759.3864
      3724.5634
 04  9 14 21 29 29.9990000  0  8G 3G 8G13G10G23G27G19G28
  -2277872.78249  -1770260.43247  22740442.2614   22740440.2064
      -252.2344
  -8437904.36649  -6561117.40148  21138189.2924   21138186.3394
      2350.4384
    195112.21549    151900.46348  20170818.4644   20170814.7304
      -864.5944
  -2906006.85649  -2252146.11147  23297301.0194   23297299.6124
      2203.5474
   7063434.03649   5493741.73547  22649423.9484   22649419.1674
     -2740.3444
  -4502684.57349  -3502323.81248  20507458.7534   20507455.2924
      1130.3444
  -7905805.52749  -6156526.60147  22559736.5734   22559732.1594
      2062.3754
  -3362720.57949  -2614309.29747  23302135.2064   23302132.8554
      3721.1564
 04  9 14 21 29 44.9990000  0  8G 3G 8G13G10G23G27G19G28
  -2274017.57449  -1767256.37447  22741175.5194   22741173.5114
      -261.7504
  -8473135.99449  -6588570.61248  21131484.9254   21131481.9174
      2347.1414
    208140.48049    162052.34148  20173297.7844   20173294.0624
      -872.4064
  -2938994.30549  -2277850.59747  23291023.9564   23291021.8274
      2194.8914
   7104570.19949   5525795.85447  22657251.2224   22657247.1634
     -2744.3914
  -4519617.76749  -3515518.50748  20504236.4564   20504233.0424
      1127.4224
  -7936686.43449  -6180589.64447  22553860.3624   22553855.5504
      2055.0784
  -3418513.84549  -2657784.53247  23291517.7844   23291515.3004
      3717.9384
 04  9 14 21 29 59.9990000  0  8G 3G 8G13G10G23G27G19G28
  -2270021.34649  -1764142.44947  22741935.7064   22741934.1834
      -271.1874
  -8508319.20849  -6615986.09048  21124789.8004   21124787.2144
      2343.8594
    221284.75949    172294.61948  20175799.3314   20175795.1554
      -880.2664
  -2971854.04249  -2303455.57547  23284770.8234   23284768.4174
      2186.3754
   7145766.35449   5557896.69947  22665091.1054   22665086.6324
     -2748.4374
  -4536508.64649  -3528680.23148  20501021.8154   20501018.7064
      1124.5004
  -7967458.93949  -6204568.20547  22548004.3394   22547999.8624
      2047.7194
  -3474260.37949  -2701223.35247  23280909.7694   23280907.4094
      3714.7814
 04  9 14 21 30 14.9990000  0  8G 3G 8G13G10G23G27G19G28
  -2265882.47849  -1760917.36047  22742723.5894   22742722.0154
      -280.7194
  -8543452.51749  -6643362.69348  21118104.0894   21118101.5074
      2340.5784
    234546.82849    182628.69948  20178322.8704   20178318.5814
      -888.0624
  -3004584.07849  -2328959.50747  23278542.7534   23278540.1984
      2177.7034
   7187024.16449   5590045.61047  22672942.1674   22672937.2104
     -2752.5474
  -4553355.34649  -3541807.52148  20497816.1054   20497813.0424
      1121.6564
  -7998120.94849  -6228460.66547  22542169.6514   22542165.1904
      2040.5004
  -3529958.14149  -2744624.15047  23270310.5584   23270308.3784
      3711.5164
 04  9 14 21 30 29.9990000  0  8G 3G 8G13G10G23G27G19G28
  -2261603.73849  -1757583.27247  22743537.6674   22743536.0464
      -289.9064
  -8578538.09249  -6670702.09748  21111427.3474   21111424.6084
      2337.4064
    247923.93249    193052.40348  20180868.4644   20180864.8434
      -895.7664
  -3037186.87049  -2354364.25847  23272338.3784   23272335.9094
      2169.2814
   7228340.74649   5622240.31347  22680804.3784   22680800.3474
     -2756.4064
  -4570160.52749  -3554902.47248  20494618.3004   20494615.0384
      1119.0004
  -8028674.89949  -6252268.91747  22536355.0194   22536350.7964
      2033.2344
  -3585609.50349  -2787988.81447  23259720.9094   23259718.2654
      3708.4224
 04  9 14 21 30 44.9990000  0  8G 3G 8G13G10G23G27G19G28
  -2257184.61549  -1754139.81447  22744378.9174   22744376.9374
      -299.2814
  -8613575.86949  -6698004.25648  21104760.0814   21104757.5464
      2334.1884
    261416.50049    203566.08448  20183436.3084   20183432.1714
      -903.4374
  -3069661.71049  -2379669.33647  23266159.2064   23266156.2884
      2160.7034
   7269716.42449   5654481.04047  22688678.3084   22688673.2064
     -2760.4064
  -4586923.72449  -3567964.70148  20491428.1984   20491424.8434
      1116.0944
  -8059119.91649  -6275992.29547  22530561.7374   22530557.3904
      2025.9534
  -3641213.84049  -2831316.82647  23249139.5114   23249136.7844
      3705.2814
 04  9 14 21 30 59.9990000  0  8G 3G 8G13G10G23G27G19G28
  -2252623.99049  -1750586.09447  22745246.7694   22745244.4804
      -308.8754
  -8648564.40649  -6725268.04348  21098101.8394   21098099.0654
      2330.8134
    275025.74949    214170.66848  20186025.6984   20186021.4134
      -911.2974
  -3102007.28949  -2404873.68447  23260003.7304   23260001.3084
      2151.8444
   7311152.14549   5686768.56747  22696562.9334   22696558.9254
     -2764.4534
  -4603643.78849  -3580993.32848  20488246.8704   20488243.3584
      1113.1414
  -8089454.70449  -6299629.76847  22524788.9404   22524785.2334
      2018.5004
  -3696769.82749  -2874607.19647  23238567.3154   23238565.0224
      3702.0314
 04  9 14 21 31 14.9990000  0  8G 3G 8G13G10G23G27G19G28
  -2247921.49549  -1746921.81547  22746141.6364   22746139.8124
      -318.1254
  -8683503.12149  -6752493.00848  21091453.1834   21091450.2574
      2327.7034
    288751.91649    224866.36448  20188637.8624   20188633.9214
      -918.9224
  -3134223.04249  -2429976.85647  23253873.4954   23253871.0894
      2143.4844
   7352648.10749   5719103.03847  22704459.3394   22704455.0774
     -2768.3284
  -4620320.22349  -3593987.95848  20485073.3624   20485069.8704
      1110.3914
  -8119678.55949  -6323180.80547  22519037.5654   22519033.2804
      2011.2814
  -3752276.92749  -2917859.42947  23228004.9334   23228002.4444
      3699.0314
 04  9 14 21 31 29.9990000  0  8G 3G 8G13G10G23G27G19G28
  -2243078.49849  -1743148.05347  22747062.4174   22747061.3864
      -327.5314
  -8718393.22649  -6779680.09748  21084813.8004   21084811.4404
      2324.4224
    302593.88149    235652.30248  20191271.9954   20191268.0624
      -926.6254
  -3166309.90249  -2454979.60847  23247767.3944   23247765.3864
      2134.8754
   7394202.94949   5751483.38147  22712367.0424   22712362.6284
     -2772.2344
  -4636954.21349  -3606949.51048  20481908.3394   20481904.8124
      1107.5944
  -8149792.31649  -6346646.06747  22513307.0264   22513303.3004
      2003.9224
  -3807736.05149  -2961074.30747  23217451.5584   23217448.6754
      3695.7194
 04  9 14 21 31 44.9990000  0  8G 3G 8G13G10G23G27G19G28
  -2238095.38849  -1739265.11947  22748011.1904   22748009.2764
      -336.9224
  -8753235.10949  -6806829.60448  21078183.5504   21078180.5074
      2321.1414
    316551.19949    246528.13348  20193927.5114   20193924.0624
      -934.3914
  -3198268.10649  -2479882.10747  23241685.4334   23241683.9834
      2126.2194
   7435816.09449   5783909.16847  22720286.0114   22720281.1364
     -2776.1874
  -4653546.24949  -3619878.36748  20478750.3784   20478746.8394
      1104.6884
  -8179796.15749  -6370025.65747  22507597.9484   22507593.3824
      1996.5474
  -3863147.33249  -3004251.89047  23206906.7924   23206904.4954
      3692.4384
 04  9 14 21 31 59.9990000  0  8G 3G 8G13G10G23G27G19G28
  -2232970.02049  -1735271.32747  22748986.5974   22748984.8044
      -346.4844
  -8788026.58549  -6833939.84948  21071562.9954   21071560.4374
      2317.6884
    330626.06849    257495.53648  20196606.2304   20196602.4914
      -942.2664
  -3230095.12449  -2504682.37147  23235629.6514   23235627.1794
      2117.3594
   7477489.63749   5816381.99447  22728216.1674   22728211.6164
     -2780.2974
  -4670093.92149  -3632772.65448  20475601.7924   20475598.1554
      1101.7034
  -8209687.57749  -6393317.65947  22501909.4724   22501905.2304
      1988.9844
  -3918508.37749  -3047390.32747  23196371.3554   23196369.7494
      3689.1094
 04  9 14 21 32 14.9990000  0  8G 3G 8G13G10G23G27G19G28
  -2227702.61149  -1731166.85447  22749989.5584   22749987.4214
      -355.9534
  -8822767.74649  -6861010.86948  21064952.1124   21064949.3234
      2314.3594
    344818.17149    268554.30748  20199306.8864   20199302.9874
      -950.1564
  -3261790.99049  -2529380.45347  23229597.4404   23229595.4914
      2108.5164
   7519223.12649   5848901.55147  22736157.8704   22736153.4054
     -2784.3124
  -4686597.45849  -3645632.56248  20472461.0344   20472457.7144
      1098.7034
  -8239466.42549  -6416521.92847  22496242.6674   22496238.2574
      1981.4224
  -3973819.25049  -3090489.66647  23185846.3624   23185844.1594
      3685.6414
 04  9 14 21 32 29.9990000  0  8G 3G 8G13G10G23G27G19G28
  -2222293.21849  -1726951.74947  22751018.1834   22751016.8194
      -365.2504
  -8857458.71049  -6888042.78048  21058350.8394   21058347.5344
      2311.1254
    359127.58449    279704.48248  20202029.8084   20202026.0384
      -957.8594
  -3293355.51049  -2553976.15747  23223591.1054   23223589.3274
      2100.0634
   7561016.33449   5881467.63347  22744111.2764   22744106.5154
     -2788.0944
  -4703056.93349  -3658458.11648  20469329.1204   20469325.9404
      1095.9384
  -8269132.36849  -6439638.24547  22490597.7764   22490593.4334
      1974.0314
  -4029079.80949  -3133549.81747  23175330.6754   23175328.4764
      3682.4224
 04  9 14 21 32 44.9990000  0  8G 3G 8G13G10G23G27G19G28
  -2216742.98449  -1722626.90247  22752074.3784   22752072.4294
      -374.7194
  -8892100.25549  -6915036.18548  21051758.4094   21051755.4874
      2307.7814
    373553.32249    290945.31048  20204775.0974   20204771.1834
      -965.6254
  -3324789.61349  -2578470.26847  23217609.0264   23217607.1444
      2091.1884
   7602868.05849   5914079.31347  22752075.0654   22752070.3974
     -2792.1254
  -4719473.19349  -3671250.01848  20466205.2694   20466201.6164
      1092.9224
  -8298686.22849  -6462667.19847  22484973.7844   22484969.5934
      1966.4694
  -4084290.87449  -3176571.38947  23164824.6904   23164821.7884
      3679.0314
 04  9 14 21 32 59.9990000  0  8G 3G 8G13G10G23G27G19G28
  -2211049.64149  -1718190.52747  22753157.7454   22753155.9214
      -384.2814
  -8926690.13549  -6941989.33348  21045176.3624   21045173.4134
      2304.3594
    388097.51249    302278.41948  20207542.8784   20207538.5624
      -973.4844
  -3356090.75849  -2602860.77147  23211653.1444   23211651.1904
      2082.4384
   7644780.50949   5946738.32147  22760050.6124   22760046.4294
     -2796.0624
  -4735844.08149  -3684006.54648  20463090.3314   20463086.3664
      1090.0634
  -8328125.44949  -6485606.83647  22479371.2144   22479366.9294
      1958.8284
  -4139449.89249  -3219552.42447  23154327.8084   23154325.5814
      3675.6094
 04  9 14 21 33 14.9990000  0  8G 3G 8G13G10G23G27G19G28
  -2205215.95549  -1713644.80947  22754268.3554   22754266.9094
      -393.6254
  -8961230.89049  -6968904.20848  21038603.5734   21038600.4764
      2301.0474
    402757.52249    313701.80148  20210332.2694   20210328.7334
      -981.2344
  -3387261.40449  -2627149.57847  23205721.7924   23205719.5464
      2073.5944
   7686750.90549   5979442.46647  22768037.4724   22768033.9134
     -2800.0004
  -4752172.12849  -3696729.69848  20459982.8474   20459979.1514
      1087.0004
  -8357452.38849  -6508458.96747  22473790.7144   22473786.3514
      1951.3284
  -4194559.32149  -3262494.80947  23143841.3864   23143838.7924
      3672.2504
 04  9 14 21 33 29.9990000  0  8G 3G 8G13G10G23G27G19G28
  -2199241.59749  -1708989.48547  22755405.2764   22755403.3554
      -402.9064
  -8995722.18849  -6995780.52848  21032039.9874   21032036.6554
      2297.8134
    417533.61349    325215.62148  20213144.4334   20213140.4444
      -988.9374
  -3418301.03749  -2651336.31647  23199814.5894   23199813.0114
      2065.0474
   7728779.15649   6012191.69347  22776034.8394   22776031.0504
     -2803.7974
  -4768456.96149  -3709419.19948  20456883.7614   20456880.2144
      1084.2664
  -8386666.55949  -6531223.23647  22468231.2454   22468226.8194
      1943.8914
  -4249618.61549  -3305398.11447  23133364.1124   23133361.3124
      3669.0314
 04  9 14 21 33 44.9990000  0  8G 3G 8G13G10G23G27G19G28
  -2193126.27449  -1704224.28247  22756568.8154   22756567.6324
      -412.4064
  -9030163.73449  -7022618.09848  21025486.0344   21025483.0774
      2294.4064
    432426.00949    336820.06948  20215978.0814   20215974.2414
      -996.7974
  -3449209.18249  -2675420.55747  23193932.8314   23193931.2534
      2056.0784
   7770865.47449   6044986.17647  22784044.1054   22784040.0734
     -2807.7344
  -4784698.35049  -3722074.82148  20453793.0734   20453789.8434
      1081.2034
  -8415767.25249  -6553899.08247  22462693.5584   22462689.9484
      1936.1414
  -4304627.26649  -3348261.97547  23122896.1204   23122893.1674
      3665.5004
 04  9 14 21 33 59.9990000  0  8G 3G 8G13G10G23G27G19G28
  -2186868.61049  -1699348.20947  22757759.6204   22757757.9094
      -421.8754
  -9064554.13949  -7049415.80548  21018941.7764   21018938.9294
      2291.0474
    447436.17649    348516.29148  20218834.7304   20218830.9214
     -1004.6414
  -3479984.13449  -2699401.05047  23188076.7924   23188074.8434
      2047.2034
   7813011.14549   6077826.90247  22792064.3784   22792060.1474
     -2811.6564
  -4800894.76749  -3734695.40948  20450710.9404   20450707.7614
      1078.2194
  -8444752.68549  -6576485.11147  22457178.3474   22457173.7804
      1928.5634
  -4359583.64449  -3391085.10547  23112438.1674   23112435.4054
      3662.0634
 04  9 14 21 34 14.9990000  0  8G 3G 8G13G10G23G27G19G28
  -2180471.46749  -1694363.41347  22758976.8084   22758974.8274
      -431.0624
  -9098895.84249  -7076175.57548  21012406.6514   21012403.6874
      2287.8284
    462561.47349    360302.22048  20221712.6674   20221708.5224
     -1012.2194
  -3510628.31149  -2723279.61347  23182245.5894   23182243.2764
      2038.5784
   7855213.40949   6110711.74447  22800095.1674   22800091.0894
     -2815.3594
  -4817048.71749  -3747282.90648  20447637.3234   20447633.6204
      1075.5164
  -8473625.31849  -6598983.26147  22451683.6204   22451679.0114
      1921.0164
  -4414490.10049  -3433869.31847  23101989.7064   23101986.5194
      3658.6884
 04  9 14 21 34 29.9990000  0  8G 3G 8G13G10G23G27G19G28
  -2173936.05949  -1689270.89347  22760220.3154   22760218.5424
      -440.3284
  -9133190.04349  -7102898.31548  21005880.6674   21005877.6014
      2284.7034
    477800.57249    372176.82348  20224612.7304   20224608.3004
     -1019.7504
  -3541142.76649  -2747057.10347  23176439.0654   23176436.9764
      2029.9384
   7897470.91449   6143639.61447  22808136.3624   22808132.3624
     -2819.0784
  -4833161.39449  -3759838.23748  20444571.1204   20444567.7574
      1072.7814
  -8502386.07749  -6621394.22347  22446210.9644   22446206.1014
      1913.6254
  -4469347.73849  -3476615.52447  23091550.3004   23091547.4834
      3655.4844
 04  9 14 21 34 44.9990000  0  8G 3G 8G13G10G23G27G19G28
  -2167259.37049  -1684068.29547  22761490.7224   22761489.1834
      -449.8754
  -9167433.53349  -7129581.55548  20999364.3394   20999361.1904
      2281.1724
    493156.55849    384142.52048  20227535.1124   20227531.0584
     -1027.7034
  -3571524.13549  -2770730.89547  23170657.8084   23170655.4724
      2021.0164
   7939786.41049   6176612.66447  22816188.3554   22816184.9254
     -2823.0474
  -4849229.86649  -3772359.13248  20441513.0264   20441509.6404
      1069.6564
  -8531031.58049  -6643715.37547  22440759.1984   22440754.9484
      1905.7664
  -4524153.29249  -3519321.12047  23081121.1284   23081118.8274
      3651.8914
 04  9 14 21 34 59.9990000  0  8G 3G 8G13G10G23G27G19G28
  -2160441.65649  -1678755.79047  22762788.6284   22762786.3704
      -459.2504
  -9201626.34449  -7156225.29848  20992858.0974   20992854.6634
      2277.7974
    508629.35249    396199.22048  20230479.6834   20230475.4014
     -1035.4534
  -3601772.49649  -2794301.06647  23164900.7224   23164899.7304
      2012.0944
   7982159.65349   6209630.72247  22824252.1054   22824247.7374
     -2826.7664
  -4865254.11549  -3784845.55148  20438464.0584   20438460.6594
      1066.7664
  -8559561.62849  -6665946.56447  22435330.5194   22435326.3624
      1898.1094
  -4578906.74849  -3561986.11247  23070702.5344   23070699.6514
      3648.4694
 04  9 14 21 35 14.9990000  0  8G 3G 8G13G10G23G27G19G28
  -2153482.52049  -1673333.07647  22764112.4484   22764110.9444
      -468.6254
  -9235768.12649  -7182829.27848  20986361.0114   20986357.8124
      2274.3914
    524219.16749    408347.11648  20233445.8394   20233442.2454
     -1043.1874
  -3631887.19649  -2817767.06447  23159170.6204   23159168.9994
      2003.2504
   8024590.80849   6242693.90447  22832326.1444   22832322.3154
     -2830.6874
  -4881233.70249  -3797297.18748  20435423.4804   20435420.1124
      1063.8444
  -8587975.52849  -6688087.24547  22429923.7844   22429919.3904
      1890.4384
  -4633607.46949  -3604610.02247  23060293.1984   23060290.1834
      3644.9384
 04  9 14 21 35 29.9990000  0  8G 3G 8G13G10G23G27G19G28
  -2146382.75149  -1667800.79647  22765464.0734   22765462.1714
      -477.9374
  -9269859.57349  -7209394.03648  20979873.5504   20979870.2334
      2271.0944
    539925.28049    420585.63448  20236434.9094   20236431.3554
     -1050.9064
  -3661868.76449  -2841129.30447  23153465.9014   23153463.1364
      1994.2814
   8067078.99349   6275801.53947  22840411.6204   22840407.4684
     -2834.5314
  -4897169.23649  -3809714.49148  20432390.6754   20432387.2184
      1060.9224
  -8616273.79449  -6710137.83147  22424538.8314   22424534.4294
      1882.6724
  -4688255.84249  -3647193.13847  23049893.3554   23049891.0854
      3641.5164
 04  9 14 21 35 44.9990000  0  8G 3G 8G13G10G23G27G19G28
  -2139142.81949  -1662159.29547  22766841.9334   22766840.3154
      -487.3124
  -9303901.12049  -7235919.90748  20973395.6514   20973392.5194
      2267.7344
    555747.39449    432914.53848  20239445.4484   20239441.6444
     -1058.7194
  -3691717.50449  -2864388.06447  23147785.7614   23147783.5504
      1985.5004
   8109623.53649   6308953.06847  22848507.6124   22848503.0264
     -2838.2194
  -4913061.24049  -3822097.87648  20429366.6444   20429363.2494
      1057.9384
  -8644456.56649  -6732098.39147  22419175.2844   22419171.3554
      1874.9844
  -4742852.13749  -3689735.68147  23039503.8474   23039501.7804
      3638.0314
 04  9 14 21 35 59.9990000  0  8G 3G 8G13G10G23G27G19G28
  -2131761.91149  -1656407.93247  22768245.6444   22768244.0384
      -496.5474
  -9337891.77549  -7262406.13048  20966927.3154   20966923.6904
      2264.5474
    571686.27749    445334.42648  20242478.3624   20242474.6164
     -1066.2194
  -3721432.22449  -2887542.37847  23142131.0584   23142129.1014
      1976.6254
   8152225.34849   6342149.21947  22856614.5814   22856610.1204
     -2841.8914
  -4928908.64849  -3834446.50648  20426351.0654   20426347.6014
      1055.1884
  -8672522.67349  -6753968.08147  22413834.7224   22413830.1444
      1867.3914
  -4797395.23149  -3732236.74947  23029125.1054   23029122.3194
      3634.6254
 04  9 14 21 36 14.9990000  0  8G 3G 8G13G10G23G27G19G28
  -2124241.85949  -1650548.19247  22769676.9404   22769675.4834
      -506.0784
  -9371832.97249  -7288853.81848  20960468.2764   20960465.6244
      2260.9844
    587739.97049    457843.79048  20245533.3554   20245529.5464
     -1074.1564
  -3751014.58849  -2910593.56147  23136501.4564   23136499.6474
      1967.6724
   8194882.36349   6375388.40447  22864731.5584   22864727.9134
     -2845.7034
  -4944713.17949  -3846761.73648  20423343.4954   20423340.1874
      1052.1094
  -8700473.58449  -6775747.99847  22408516.1674   22408511.5854
      1859.5004
  -4851886.75549  -3774697.66047  23018755.8864   23018752.5974
      3630.9534
 04  9 14 21 36 29.9990000  0  8G 3G 8G13G10G23G27G19G28
  -2116581.07749  -1644578.76047  22771134.5034   22771133.0224
      -515.5164
  -9405723.18449  -7315261.76048  20954019.2064   20954016.1444
      2257.6414
    603910.31149    470444.04248  20248610.7064   20248606.9054
     -1081.9844
  -3780462.68149  -2933540.13047  23130898.0504   23130895.6014
      1958.6884
   8237596.26349   6408671.91147  22872860.6364   22872856.1554
     -2849.5624
  -4960473.28149  -3859042.32348  20420344.3394   20420340.9054
      1049.1724
  -8728307.30349  -6797436.59047  22403219.3314   22403214.7024
      1851.5634
  -4906324.85149  -3817116.90547  23008396.5504   23008393.7574
      3627.3444
 04  9 14 21 36 44.9990000  0  8G 3G 8G13G10G23G27G19G28
  -2108780.15149  -1638500.10947  22772619.4874   22772617.3944
      -524.5314
  -9439563.03549  -7341630.46848  20947579.9804   20947576.7024
      2254.3914
    620196.83249    483134.82048  20251709.8704   20251705.8784
     -1089.5164
  -3809776.79749  -2956382.29947  23125319.5504   23125317.7304
      1949.9694
   8280366.10649   6441998.99547  22880999.5654   22880994.8864
     -2853.0164
  -4976189.25049  -3871288.53548  20417353.8004   20417350.4094
      1046.4064
  -8756024.02549  -6819034.01747  22397944.6834   22397940.2454
      1843.9384
  -4960709.71049  -3859494.68847  22998047.0194   22998044.9684
      3624.0784
 04  9 14 21 36 59.9990000  0  8G 3G 8G13G10G23G27G19G28
  -2100840.13449  -1632313.09947  22774130.3394   22774128.7804
      -534.0004
  -9473353.14649  -7367960.42448  20941149.7064   20941147.0584
      2250.9534
    636598.45649    495915.29148  20254831.0654   20254827.4724
     -1097.3754
  -3838957.75549  -2979120.71847  23119766.4724   23119764.1754
      1940.9384
   8323190.87849   6475368.88447  22889148.4484   22889144.0264
     -2856.8284
  -4991861.98849  -3883501.06548  20414371.3394   20414367.9134
      1043.3284
  -8783624.44849  -6840540.82247  22392692.6054   22392688.5074
      1836.0784
  -5015042.05249  -3901831.54847  22987708.7454   22987705.6674
      3620.3594
 04  9 14 21 37 14.9990000  0  8G 3G 8G13G10G23G27G19G28
  -2092757.76849  -1626015.15647  22775668.3704   22775666.1874
      -543.6094
  -9507090.08249  -7394248.93648  20934729.7374   20934727.1514
      2247.4064
    653118.47249    508788.01848  20257974.7534   20257970.4994
     -1105.2344
  -3868002.11049  -3001752.68047  23114240.1984   23114237.4214
      1931.7664
   8366073.68249   6508784.00747  22897308.9724   22897305.0224
     -2860.7974
  -5007488.21749  -3895677.35048  20411397.7764   20411394.2924
      1040.2344
  -8811105.00549  -6861954.22347  22387463.4014   22387458.9014
      1828.0164
  -5069318.44949  -3944124.81147  22977379.3554   22977376.7844
      3616.5474
 04  9 14 21 37 29.9990000  0  8G 3G 8G13G10G23G27G19G28
  -2084535.24849  -1619608.00847  22777233.2614   22777230.4914
      -552.7974
  -9540776.20049  -7420497.85548  20928319.7694   20928316.5264
      2244.0784
    669754.58149    521751.20148  20261140.6204   20261136.7614
     -1112.9374
  -3896911.76049  -3024279.65847  23108738.1124   23108736.0504
      1922.7814
   8409012.21149   6542242.55947  22905479.8864   22905476.0734
     -2864.3444
  -5023070.13049  -3907819.10248  20408432.7224   20408429.6014
      1037.3444
  -8838467.56749  -6883275.68047  22382256.5654   22382251.9444
      1820.2344
  -5123540.83049  -3986375.99247  22967061.5584   22967058.9804
      3612.9694
 04  9 14 21 37 44.9990000  0  8G 3G 8G13G10G23G27G19G28
  -2076174.71049  -1613093.32847  22778824.1124   22778822.4214
      -561.9374
  -9574413.49949  -7446708.72948  20921918.8234   20921915.7534
      2240.8914
    686504.64549    534803.18548  20264327.9954   20264324.4644
     -1120.4534
  -3925688.62149  -3046703.20547  23103261.9954   23103260.0384
      1914.0784
   8452004.20049   6575742.74847  22913661.1444   22913657.3904
     -2867.8284
  -5038609.62949  -3919927.81348  20405475.3944   20405472.0424
      1034.6094
  -8865714.04249  -6904506.69447  22377072.2144   22377066.8004
      1812.5634
  -5177711.17449  -4028586.63047  22956753.0654   22956750.9174
      3609.6414
 04  9 14 21 37 59.9990000  0  8G 3G 8G13G10G23G27G19G28
  -2067674.78249  -1606470.00747  22780441.3084   22780440.1904
      -571.3754
  -9608000.33849  -7472880.29048  20915527.0034   20915524.5424
      2237.4224
    703370.28649    547945.22648  20267537.6364   20267533.6404
     -1128.2814
  -3954330.92349  -3069021.86747  23097812.1124   23097810.0074
      1904.9694
   8495050.91249   6609285.56547  22921852.6834   22921848.4484
     -2871.6874
  -5054105.25649  -3932002.32948  20402527.0034   20402523.2494
      1031.5634
  -8892842.58249  -6925645.80347  22371909.1984   22371904.2884
      1804.6414
  -5231827.65449  -4070755.28247  22946454.9954   22946452.1014
      3605.8754
 04  9 14 21 38 14.9990000  0  8G 3G 8G13G10G23G27G19G28
  -2059034.23349  -1599737.14347  22782085.2224   22782084.0734
      -580.6724
  -9641535.34949  -7499011.46448  20909145.6984   20909142.8584
      2234.0004
    720352.84249    561178.36548  20270769.1204   20270765.1714
     -1136.0474
  -3982837.25049  -3091234.58947  23092387.2534   23092385.1984
      1895.9844
   8538153.51849   6642871.95947  22930054.8394   22930050.8664
     -2875.2664
  -5069555.57849  -3944041.54148  20399586.6124   20399583.4014
      1028.5474
  -8919851.66049  -6946691.81747  22366769.6514   22366765.0584
      1796.6884
  -5285888.81549  -4112880.80547  22936166.8554   22936165.1284
      3602.3134
 04  9 14 21 38 29.9990000  0  8G 3G 8G13G10G23G27G19G28
  -2050254.99149  -1592896.19247  22783756.5814   22783754.3354
      -590.0164
  -9675020.28149  -7525103.61148  20902773.7064   20902770.9994
      2230.4844
    737450.19849    574500.97948  20274022.6124   20274018.7924
     -1143.8284
  -4011209.31249  -3113342.69147  23086988.7064   23086986.1794
      1886.8754
   8581310.02349   6676500.35847  22938267.2844   22938263.2224
     -2879.0944
  -5084962.46349  -3956046.90848  20396654.8784   20396651.3864
      1025.5164
  -8946742.77949  -6967645.91647  22361652.5034   22361647.8554
      1788.6254
  -5339896.17849  -4154964.44447  22925890.0264   22925887.6594
      3598.5474
 04  9 14 21 38 44.9980000  0  8G 3G 8G13G10G23G27G19G28
  -2041336.63649  -1585946.82147  22785454.2874   22785451.8144
      -599.3284
  -9708451.80049  -7551154.13948  20896411.7404   20896408.8774
      2227.1094
    754662.31049    587912.99048  20277298.1394   20277293.8654
     -1151.5474
  -4039443.99449  -3135343.73147  23081615.2094   23081612.9204
      1877.8134
   8624518.29949   6710169.08047  22946489.6474   22946485.8974
     -2882.6874
  -5100323.74049  -3968016.72848  20393731.6784   20393728.5764
      1022.6094
  -8973512.83849  -6988505.68047  22356557.6154   22356553.5414
      1780.7344
  -5393845.10149  -4197002.54147  22915624.4044   22915621.7524
      3594.9064
 04  9 14 21 38 59.9980000  0  8G 3G 8G13G10G23G27G19G28
  -2032277.64449  -1578887.88047  22787177.8034   22787176.1154
      -608.5624
  -9741833.95449  -7577166.20848  20890059.9044   20890057.1624
      2223.8284
    771991.84949    601416.51348  20280595.7644   20280591.7014
     -1159.1414
  -4067544.42349  -3157240.16847  23076267.9044   23076265.8654
      1868.8914
   8667784.55649   6743882.98847  22954723.0294   22954718.3384
     -2886.1564
  -5115640.93149  -3979952.21648  20390816.9434   20390813.5804
      1019.6724
  -9000164.63449  -7009273.30447  22351486.0924   22351482.0614
      1772.8444
  -5447741.96149  -4239000.05847  22905367.8034   22905365.5684
      3591.3594
 04  9 14 21 39 14.9980000  0  8G 3G 8G13G10G23G27G19G28
  -2023078.92749  -1571720.05247  22788927.8184   22788926.3654
      -617.7814
  -9775164.63749  -7603138.15748  20883717.0844   20883713.9824
      2220.3594
    789437.33749    615010.39148  20283915.4824   20283911.4634
     -1166.7974
  -4095508.77549  -3179030.57947  23070946.1154   23070944.0884
      1859.8594
   8711105.38449   6777639.43547  22962966.2404   22962962.7644
     -2889.7664
  -5130913.29349  -3991852.75548  20387910.5614   20387907.2914
      1016.7194
  -9026696.46749  -7029947.43547  22346437.2644   22346432.9164
      1764.8914
  -5501583.12749  -4280954.18547  22895122.2644   22895119.4594
      3587.6884
 04  9 14 21 39 29.9980000  0  8G 3G 8G13G10G23G27G19G28
  -2013741.09949  -1564443.83947  22790704.6704   22790702.5764
      -627.2034
  -9808444.29549  -7629070.35948  20877384.1704   20877380.9824
      2216.9224
    806998.35149    628694.27548  20287257.0294   20287253.6664
     -1174.5474
  -4123337.26349  -3200715.12747  23065650.5534   23065648.9164
      1850.7344
   8754480.19249   6811437.91247  22971220.4044   22971216.6234
     -2893.4374
  -5146141.20649  -4003718.65648  20385013.1544   20385009.5254
      1013.7974
  -9053108.45049  -7050528.19847  22341411.7724   22341406.8934
      1756.8284
  -5555369.01049  -4322865.21247  22884887.4284   22884884.5224
      3583.8914
 04  9 14 21 39 44.9980000  0  8G 3G 8G13G10G23G27G19G28
  -2004264.62749  -1557059.59247  22792508.1314   22792506.1624
      -636.3124
  -9841673.29049  -7654963.06948  20871060.8264   20871058.1474
      2213.5314
    824674.17249    642467.63448  20290621.0224   20290616.8304
     -1182.2504
  -4151030.25849  -3222294.06047  23060381.5614   23060378.9394
      1841.5314
   8797908.36549   6845277.99047  22979484.6934   22979480.2254
     -2897.0164
  -5161324.95749  -4015550.15548  20382123.2564   20382120.0534
      1010.7344
  -9079400.78749  -7071015.70147  22336408.0534   22336403.5724
      1748.7504
  -5609099.78649  -4364733.33547  22874662.5064   22874659.6624
      3580.1724
 04  9 14 21 39 59.9980000  0  8G 3G 8G13G10G23G27G19G28
  -1994648.54349  -1549566.54047  22794338.4284   22794336.5644
      -645.5624
  -9874850.21649  -7680815.21848  20864747.4204   20864744.3934
      2210.1564
    842466.12449    656331.47548  20294006.7014   20294002.6234
     -1189.9534
  -4178586.45049  -3243766.41247  23055137.3114   23055135.5644
      1832.6564
   8841390.76049   6879160.32047  22987759.0764   22987755.2214
     -2900.5784
  -5176463.52349  -4027346.44648  20379242.7644   20379239.5614
      1007.8594
  -9105572.17349  -7091408.97347  22331427.6864   22331423.4944
      1740.8284
  -5662774.23449  -4406557.54247  22864448.9204   22864445.8854
      3576.5314
 04  9 14 21 40 14.9980000  0  8G 3G 8G13G10G23G27G19G28
  -1984894.37649  -1541965.89847  22796194.2644   22796192.5804
      -655.0314
  -9907976.80049  -7706628.12548  20858443.3574   20858440.5924
      2206.6254
    860372.89149    670284.78148  20297413.9514   20297410.6544
     -1197.7504
  -4206007.09649  -3265133.14547  23049920.0144   23049917.3074
      1823.3134
   8884925.71149   6913083.60447  22996043.6154   22996039.0374
     -2904.2344
  -5191558.29449  -4039108.60148  20376370.4984   20376366.9794
      1004.6724
  -9131623.69849  -7111708.85147  22326470.4284   22326465.8264
      1732.5634
  -5716393.57349  -4448338.82247  22854245.3974   22854242.3934
      3572.6094
 04  9 14 21 40 29.9980000  0  8G 3G 8G13G10G23G27G19G28
  -1975001.23149  -1534256.97947  22798077.1004   22798075.1394
      -664.2194
  -9941051.85449  -7732400.89048  20852149.6154   20852146.4434
      2203.1884
    878395.16549    684328.10048  20300843.7404   20300839.6044
     -1205.4224
  -4233291.02649  -3286393.36347  23044727.8734   23044725.2214
      1814.3444
   8928514.15649   6947048.56047  23004338.5924   23004334.3614
     -2907.7034
  -5206608.14449  -4050835.76148  20373506.5294   20373503.2524
      1001.7344
  -9157554.03449  -7131914.28447  22321536.1474   22321531.2874
      1724.5634
  -5769956.49149  -4490076.13247  22844052.7724   22844050.0684
      3568.9064
 04  9 14 21 40 44.9980000  0  8G 3G 8G13G10G23G27G19G28
  -1964969.53349  -1526440.07147  22799986.2954   22799983.8344
      -673.2974
  -9974075.62349  -7758133.68948  20845865.3574   20845862.2094
      2200.0004
    896532.52349    698461.09348  20304294.9824   20304291.1314
     -1212.8754
  -4260438.38349  -3307547.13347  23039561.7954   23039558.8694
      1805.3594
   8972155.43849   6981054.69347  23012642.7484   23012639.2684
     -2911.0784
  -5221613.55649  -4062528.29548  20370651.4204   20370647.8854
       999.0314
  -9183363.34449  -7152025.43447  22316625.2724   22316620.1354
      1716.7034
  -5823463.24149  -4531769.66047  22833870.9124   22833867.6664
      3565.3914
 04  9 14 21 40 59.9980000  0  8G 3G 8G13G10G23G27G19G28
  -1954799.97949  -1518515.75347  22801920.8734   22801919.0924
      -682.6094
 -10007048.67149  -7783826.97148  20839590.8504   20839587.6704
      2196.4224
    914784.43349    712683.34048  20307768.3034   20307764.4164
     -1220.6414
  -4287449.59349  -3328594.83947  23034421.1784   23034419.6474
      1796.1564
   9015848.97349   7015101.54147  23020957.3814   23020954.5374
     -2914.6724
  -5236574.76349  -4074186.37548  20367804.1074   20367800.6974
       995.9384
  -9209052.01649  -7172042.56547  22311736.2874   22311731.8544
      1708.4694
  -5876914.17949  -4573419.72147  22823699.6314   22823696.6044
      3561.5474
 04  9 14 21 41 14.9980000  0  8G 3G 8G13G10G23G27G19G28
  -1944489.91649  -1510481.95247  22803882.9434   22803881.1974
      -692.0314
 -10039968.05949  -7809478.43648  20833326.2874   20833323.2564
      2192.8134
    933153.49049    726996.87448  20311263.7484   20311259.9794
     -1228.5474
  -4314321.72749  -3349534.14147  23029307.7094   23029305.8034
      1786.9224
   9059597.24749   7049191.04147  23029282.9904   23029278.8654
     -2918.4694
  -5251489.06549  -4085807.91048  20364965.5764   20364962.4794
       992.6564
  -9234616.96149  -7191963.28247  22306871.2484   22306867.2644
      1700.1254
  -5930306.32949  -4615023.95947  22813539.2014   22813536.3264
      3557.4844
 04  9 14 21 41 29.9980000  0  8G 3G 8G13G10G23G27G19G28
  -1934040.90649  -1502339.88647  22805871.1474   22805869.4394
      -701.0474
 -10072835.21949  -7835089.21248  20827072.1074   20827068.7724
      2189.5474
    951638.19749    741400.52948  20314781.2174   20314777.6544
     -1236.0314
  -4341056.14849  -3370366.16247  23024220.9904   23024218.6664
      1777.7974
   9103398.55749   7083321.88047  23037617.7874   23037614.6664
     -2921.7194
  -5266358.10549  -4097394.17148  20362136.5294   20362133.3224
       989.8444
  -9260059.43149  -7211788.57547  22302029.7724   22302025.5294
      1692.2664
  -5983641.07649  -4656583.48047  22803389.3974   22803386.5924
      3553.8134
 04  9 14 21 41 44.9980000  0  8G 3G 8G13G10G23G27G19G28
  -1923455.36049  -1494091.44347  22807885.7014   22807883.6474
      -710.2664
 -10105652.64749  -7860661.21648  20820827.0374   20820823.9794
      2186.1564
    970236.23149    755892.48748  20318320.3264   20318316.6114
     -1243.6414
  -4367655.04749  -3391092.57747  23019159.1394   23019156.6074
      1768.7344
   9147250.33449   7117492.04647  23045962.0924   23045958.9124
     -2925.1724
  -5281183.95649  -4108946.78448  20359315.3114   20359311.4394
       986.9384
  -9285381.55249  -7231520.07747  22297211.6234   22297206.8734
      1684.1254
  -6036920.50849  -4698099.89347  22793250.5764   22793248.1664
      3550.0784
 04  9 14 21 41 59.9980000  0  8G 3G 8G13G10G23G27G19G28
  -1912731.75549  -1485735.38847  22809925.9594   22809924.3464
      -719.5314
 -10138418.45749  -7886193.00948  20814591.9904   20814588.7834
      2182.6564
    988949.10649    770473.93048  20321881.5224   20321877.6934
     -1251.3754
  -4394116.56249  -3411711.93147  23014123.2324   23014121.5614
      1759.5634
   9191154.07049   7151702.67047  23054317.1934   23054313.5684
     -2928.6724
  -5295964.94649  -4120464.44648  20356502.5064   20356498.9944
       983.8134
  -9310581.41349  -7251156.32147  22292415.9434   22292411.0924
      1675.9064
  -6090142.81549  -4739571.78847  22783123.1074   22783120.1044
      3546.2664
 04  9 14 21 42 14.9980000  0  8G 3G 8G13G10G23G27G19G28
  -1901869.10149  -1477271.01847  22811993.6474   22811991.0534
      -728.7194
 -10171131.40749  -7911683.61048  20808366.8184   20808363.9674
      2179.1884
   1007777.83249    785145.64148  20325464.2094   20325460.7684
     -1259.1094
  -4420439.49749  -3432223.30447  23009114.7254   23009111.9394
      1750.2664
   9235110.67249   7185954.51147  23062681.9434   23062677.9634
     -2932.1564
  -5310700.03449  -4131946.33248  20353698.6154   20353694.6934
       980.8594
  -9335657.59949  -7270696.18147  22287643.9824   22287640.0104
      1667.6254
  -6143306.59349  -4780998.07547  22773006.1074   22773003.4324
      3542.3444
 04  9 14 21 42 29.9980000  0  8G 3G 8G13G10G23G27G19G28
  -1890868.75249  -1468699.33047  22814087.0374   22814084.8424
      -737.7814
 -10203792.88249  -7937134.11448  20802151.3894   20802148.6354
      2175.8754
   1026721.12249    799906.64148  20329069.2564   20329065.3424
     -1266.5474
  -4446624.95249  -3452627.56347  23004131.5614   23004128.5104
      1741.3134
   9279118.71849   7220246.44147  23071056.4594   23071052.6074
     -2935.4064
  -5325390.39149  -4143393.35648  20350903.2404   20350899.6504
       978.0474
  -9360611.20549  -7290140.54847  22282895.7794   22282891.0644
      1659.7194
  -6196412.89349  -4822379.56847  22762900.5454   22762897.7014
      3538.6884
 04  9 14 21 42 44.9980000  0  8G 3G 8G13G10G23G27G19G28
  -1879732.34649  -1460021.63347  22816205.9674   22816204.0764
      -747.0944
 -10236404.34449  -7962545.63448  20795945.9594   20795943.2054
      2172.2664
   1045777.56949    814755.79948  20332695.7174   20332691.7054
     -1274.3754
  -4472674.18149  -3472925.66447  22999174.8114   22999171.8774
      1731.9224
   9323176.55249   7254577.14847  23079440.8574   23079436.5764
     -2938.9844
  -5340037.37749  -4154806.60348  20348115.6004   20348112.2684
       974.8914
  -9385443.45049  -7309490.33947  22278170.3264   22278165.6044
      1651.2664
  -6249463.06849  -4863717.34547  22752804.8504   22752802.0374
      3534.6414
 04  9 14 21 42 59.9980000  0  8G 3G 8G13G10G23G27G19G28
  -1868457.63449  -1451236.14247  22818351.4284   22818349.4554
      -756.1724
 -10268963.21449  -7987916.18048  20789750.2794   20789747.4674
      2168.8754
   1064949.46249    829694.92548  20336343.6784   20336339.5454
     -1281.8754
  -4498584.65149  -3493115.60747  22994243.2564   22994241.6234
      1722.7194
   9367286.36349   7288948.35647  23087834.1934   23087831.0574
     -2942.2194
  -5354638.61349  -4166184.18748  20345337.6154   20345334.0414
       971.9064
  -9410151.70349  -7328743.49047  22273468.1154   22273463.7324
      1643.1094
  -6302454.53549  -4905009.38247  22742721.0064   22742718.3074
      3530.8284
 04  9 14 21 43 14.9980000  0  8G 3G 8G13G10G23G27G19G28
  -1857046.31549  -1442344.23347  22820523.1394   22820521.4044
      -765.2034
 -10301471.26849  -8013247.12548  20783563.9754   20783560.8034
      2165.5634
   1084235.07149    844722.65448  20340013.5684   20340009.3694
     -1289.4534
  -4524357.90649  -3513198.67447  22989339.7094   22989337.1074
      1713.6254
   9411446.36549   7323358.68847  23096238.0844   23096234.0804
     -2945.5474
  -5369195.74249  -4177527.40948  20342567.0224   20342563.5534
       969.1254
  -9434737.26649  -7347901.07847  22268789.9754   22268784.8114
      1635.0314
  -6355388.70149  -4946256.74547  22732648.3974   22732645.3504
      3527.1414
 04  9 14 21 43 29.9980000  0  8G 3G 8G13G10G23G27G19G28
  -1845498.39549  -1433345.88947  22822720.6314   22822718.3734
      -774.5474
 -10333928.24149  -8038538.26748  20777387.9514   20777384.7404
      2161.9534
   1103634.28449    859838.91348  20343705.6234   20343701.8144
     -1297.2034
  -4549993.80949  -3533174.71147  22984460.2794   22984458.5924
      1704.3284
   9455656.32749   7357807.94347  23104650.4674   23104646.8224
     -2949.0784
  -5383708.53149  -4188836.08148  20339805.2954   20339801.9244
       965.8914
  -9459199.95449  -7366962.89347  22264134.4904   22264129.8074
      1626.6414
  -6408265.42549  -4987459.35447  22722585.9514   22722583.2444
      3523.0634
 04  9 14 21 43 44.9980000  0  8G 3G 8G13G10G23G27G19G28
  -1833813.50449  -1424240.77547  22824943.3034   22824941.8144
      -783.4694
 -10366333.65749  -8063789.23548  20771221.0534   20771218.0724
      2158.6884
   1123147.46549    875043.96448  20347418.5844   20347414.7644
     -1304.6874
  -4575491.62149  -3553043.13147  22979608.7014   22979607.3114
      1695.1884
   9499916.52749   7392296.34247  23113072.7564   23113069.3574
     -2952.2974
  -5398176.59149  -4200109.88948  20337052.1474   20337048.4514
       963.0784
  -9483539.09349  -7385928.44647  22259502.9124   22259498.4474
      1618.5474
  -6461084.07849  -5028616.72947  22712534.9124   22712532.1274
      3519.3914
 04  9 14 21 43 59.9980000  0  8G 3G 8G13G10G23G27G19G28
  -1821992.08849  -1415029.29447  22827193.4514   22827191.0414
      -792.6874
 -10398687.62049  -8089000.10948  20765064.4044   20765061.6864
      2155.1564
   1142774.30249    890337.57848  20351153.4674   20351149.3734
     -1312.3284
  -4600851.60149  -3572804.14947  22974783.3654   22974781.0414
      1685.9384
   9544226.39549   7426823.43247  23121505.0684   23121501.4944
     -2955.7344
  -5412600.20749  -4211349.08148  20334307.3814   20334303.6974
       960.0474
  -9507754.57149  -7404797.64347  22254895.0924   22254890.7644
      1610.1564
  -6513844.65849  -5069728.84347  22702494.8894   22702492.1074
      3515.3284
 04  9 14 21 44 14.9980000  0  8G 3G 8G13G10G23G27G19G28
  -1810032.69149  -1405710.32247  22829469.9434   22829467.6784
      -802.0004
 -10430988.56149  -8114169.66848  20758917.7014   20758914.7604
      2151.5634
   1162516.38349    905721.00748  20354910.5534   20354906.4674
     -1320.0624
  -4626071.88149  -3592456.31747  22969984.1314   22969981.7604
      1676.5944
   9588587.54949   7461390.51347  23129946.4674   23129943.2364
     -2959.2194
  -5426977.52449  -4222552.18848  20331571.3344   20331568.1004
       956.8754
  -9531844.55849  -7423569.05647  22250310.9904   22250306.4004
      1601.6884
  -6566545.32849  -5110794.25847  22692465.8654   22692463.4824
      3511.2194
 04  9 14 21 44 29.9980000  0  8G 3G 8G13G10G23G27G19G28
  -1797935.69549  -1396284.09347  22831771.3034   22831769.5224
      -810.8754
 -10463236.55649  -8139297.97448  20752781.1394   20752778.1074
      2148.1414
   1182373.41749    921194.01048  20358688.9204   20358685.1784
     -1327.5944
  -4651152.67349  -3611999.78947  22965211.1704   22965208.6354
      1667.4534
   9632999.56549   7495997.21647  23138397.8504   23138394.4004
     -2962.4844
  -5441308.84549  -4233719.45248  20328844.3034   20328840.7914
       953.9534
  -9555809.02649  -7442242.65647  22245750.6314   22245745.7324
      1593.4384
  -6619186.23049  -5151813.14047  22682449.0844   22682446.0024
      3507.4384
 04  9 14 21 44 44.9980000  0  8G 3G 8G13G10G23G27G19G28
  -1785701.08349  -1386750.65547  22834099.6544   22834097.0104
      -820.1414
 -10495431.76249  -8164385.13748  20746654.2014   20746651.1784
      2144.6564
   1202345.30049    936756.48848  20362489.7954   20362485.6234
     -1335.2504
  -4676093.63749  -3631434.30447  22960465.0844   22960462.2444
      1658.1414
   9677462.16649   7530643.34847  23146859.0924   23146855.7254
     -2965.8444
  -5455594.10749  -4244850.82948  20326126.0844   20326122.6504
       950.9064
  -9579647.80549  -7460818.32247  22241214.7324   22241209.1864
      1585.1094
  -6671767.12149  -5192785.21647  22672443.2094   22672440.1354
      3503.4064
 04  9 14 21 44 59.9980000  0  8G 3G 8G13G10G23G27G19G28
  -1773331.09149  -1377111.70447  22836453.8264   22836450.9324
      -829.3124
 -10527575.89249  -8189432.50348  20740537.8344   20740534.7794
      2141.1254
   1222430.05649    952406.93248  20366311.3264   20366307.3344
     -1342.8284
  -4700896.76449  -3650761.39647  22955745.4674   22955742.6704
      1648.9384
   9721973.22049   7565327.21147  23155329.5614   23155326.2134
     -2969.1254
  -5469835.12749  -4255947.72748  20323416.5064   20323412.6354
       947.8284
  -9603362.64949  -7479297.40447  22236701.5064   22236696.9904
      1576.7814
  -6724289.78549  -5233711.96347  22662448.2484   22662445.5144
      3499.4224
 04  9 14 21 45 14.9980000  0  8G 3G 8G13G10G23G27G19G28
  -1760825.73149  -1367367.28647  22838833.1864   22838830.9554
      -838.1724
 -10559668.70749  -8214439.87848  20734430.4824   20734427.1584
      2137.8594
   1242627.67549    968145.32448  20370155.0764   20370151.2724
     -1350.2974
  -4725561.72149  -3669980.84347  22951051.7174   22951049.0374
      1639.8134
   9766532.65049   7600048.79147  23163809.2954   23163805.1824
     -2972.2504
  -5484031.82049  -4267010.08948  20320714.4434   20320711.0574
       944.9844
  -9626953.11349  -7497679.58147  22232212.2404   22232207.8074
      1568.5944
  -6776753.89549  -5274593.05247  22652464.8734   22652461.5334
      3495.6094
 04  9 14 21 45 29.9980000  0  8G 3G 8G13G10G23G27G19G28
  -1748184.81749  -1357517.27247  22841238.7014   22841236.8304
      -847.1414
 -10591709.89549  -8239407.03448  20728333.2954   20728330.2094
      2134.4224
   1262938.38149    983971.83448  20374019.9824   20374016.0884
     -1357.7974
  -4750088.06649  -3689092.27747  22946383.9364   22946381.7094
      1630.5004
   9811140.51449   7634808.09647  23172297.0924   23172294.6744
     -2975.3444
  -5498183.87449  -4278037.67248  20318021.3344   20318018.1974
       942.0474
  -9650418.75549  -7515964.48247  22227747.0534   22227742.2174
      1560.2664
  -6829158.99749  -5315428.15447  22642491.8424   22642489.7914
      3491.8134
 04  9 14 21 45 44.9980000  0  8G 3G 8G13G10G23G27G19G28
  -1735409.50049  -1347562.48147  22843669.9674   22843667.9594
      -856.1564
 -10623700.54249  -8264334.81448  20722245.8974   20722242.6114
      2131.0944
   1283361.02749    999885.56548  20377906.4124   20377902.5534
     -1365.2504
  -4774476.78349  -3708096.48147  22941742.6704   22941740.6274
      1621.3594
   9855795.55049   7669604.16047  23180794.8034   23180791.7524
     -2978.5624
  -5512292.25149  -4289031.21948  20315336.4284   20315333.3614
       939.1884
  -9673760.52949  -7534152.87647  22223305.3184   22223300.6434
      1552.0474
  -6881506.03249  -5356218.02747  22632531.1474   22632528.3504
      3487.8594
 04  9 14 21 45 59.9980000  0  8G 3G 8G13G10G23G27G19G28
  -1722499.01149  -1337502.39047  22846126.8264   22846124.6004
      -865.2194
 -10655639.79049  -8289222.52648  20716167.8654   20716164.6664
      2127.5004
   1303896.54949   1015887.26048  20381814.1624   20381810.4904
     -1372.8284
  -4798726.72749  -3726992.53747  22937128.8734   22937126.4944
      1612.0004
   9900498.46949   7704437.54247  23189302.4984   23189298.0144
     -2981.8594
  -5526356.04749  -4299990.02148  20312660.5454   20312656.8034
       936.0944
  -9696977.10349  -7552243.69047  22218886.9824   22218882.5724
      1543.6414
  -6933793.78949  -5396961.72047  22622580.7794   22622577.9634
      3483.8914
 04  9 14 21 46 14.9980000  0  8G 3G 8G13G10G23G27G19G28
  -1709453.10149  -1327336.75347  22848609.3734   22848607.4514
      -874.1724
 -10687527.01649  -8314069.70848  20710099.8894   20710096.3114
      2124.0944
   1324545.18549   1031977.08948  20385743.5064   20385739.5964
     -1380.2974
  -4822837.41249  -3745780.07947  22932540.3504   22932538.0844
      1602.7194
   9945249.46149   7739308.36547  23197817.6784   23197814.5804
     -2984.9374
  -5540374.78149  -4310913.71448  20309992.7644   20309989.4674
       933.1724
  -9720067.81149  -7570236.44947  22214493.1474   22214488.4904
      1535.2814
  -6986021.70849  -5437658.75947  22612642.0614   22612639.2874
      3479.9534
 04  9 14 21 46 29.9980000  0  8G 3G 8G13G10G23G27G19G28
  -1696270.98749  -1317064.99847  22851118.4674   22851116.5294
      -883.2664
 -10719361.19449  -8338875.55448  20704041.9904   20704038.6934
      2120.5474
   1345307.72649   1048155.67448  20389694.6004   20389690.9204
     -1387.9374
  -4846807.91049  -3764458.39047  22927978.5224   22927976.9594
      1593.4224
   9990049.28649   7774217.26447  23206342.8894   23206339.0724
     -2988.2344
  -5554347.53649  -4321801.57548  20307333.9514   20307330.3854
       930.0314
  -9743031.66549  -7588130.35047  22210123.3894   22210118.6004
      1526.7034
  -7038188.75249  -5478308.37847  22602715.2014   22602712.4754
      3475.7664
 04  9 14 21 46 44.9980000  0  8G 3G 8G13G10G23G27G19G28
  -1682954.21349  -1306688.30347  22853652.0844   22853650.0454
      -892.0944
 -10751143.79949  -8363641.22248  20697994.2644   20697990.8384
      2117.2974
   1366182.77049   1064421.92648  20393666.9124   20393662.8544
     -1395.2814
  -4870639.44949  -3783028.39747  22923443.9674   22923441.4634
      1584.3284
  10034896.33549   7809162.95847  23214876.8424   23214873.3304
     -2991.2344
  -5568275.67149  -4332654.67448  20304683.4754   20304680.1044
       927.2034
  -9765869.84949  -7605926.32547  22205777.4674   22205772.7724
      1518.5474
  -7090296.20149  -5518911.57347  22592799.7404   22592796.4474
      3472.0164
 04  9 14 21 46 59.9980000  0  8G 3G 8G13G10G23G27G19G28
  -1669503.93049  -1296207.58047  22856211.5224   22856209.2684
      -901.1254
 -10782875.83649  -8388367.47648  20691955.5454   20691952.6624
      2113.8134
   1387169.12949   1080774.92348  20397660.4044   20397656.5254
     -1402.7974
  -4894332.83049  -3801490.77847  22918935.5374   22918933.0334
      1575.1254
  10079789.31049   7844144.42547  23223419.8264   23223416.7014
     -2994.3444
  -5582160.12449  -4343473.73248  20302041.4044   20302037.6474
       924.2344
  -9788583.10449  -7623624.94647  22201454.8814   22201450.6234
      1510.0784
  -7142344.78949  -5559468.86947  22582895.0844   22582891.9364
      3467.9534
 04  9 14 21 47 14.9980000  0  8G 3G 8G13G10G23G27G19G28
  -1655920.57849  -1285623.18047  22858796.2484   22858794.0884
      -910.1254
 -10814557.59949  -8413054.55948  20685926.9754   20685923.8614
      2110.3914
   1408266.44749   1097214.37548  20401674.9204   20401671.5884
     -1410.2664
  -4917888.27749  -3819845.66147  22914452.2564   22914450.3384
      1565.7344
  10124727.79749   7879161.35447  23231971.4204   23231967.6624
     -2997.4224
  -5596001.12449  -4354258.92548  20299407.6784   20299404.2484
       921.2664
  -9811171.52549  -7641226.30447  22197156.5924   22197151.9714
      1501.6414
  -7194334.65149  -5599980.44147  22573001.7644   22572998.5844
      3463.9844
 04  9 14 21 47 29.9980000  0  8G 3G 8G13G10G23G27G19G28
  -1642202.55749  -1274933.81647  22861406.3894   22861404.7134
      -919.0004
 -10846187.10849  -8437700.91548  20679907.6864   20679904.8934
      2106.9224
   1429476.36949   1113741.55948  20405711.2874   20405707.7604
     -1417.6724
  -4941303.95949  -3838091.63947  22909996.9364   22909994.2134
      1556.3594
  10169713.27449   7914214.89947  23240531.8424   23240528.7014
     -3000.5164
  -5609796.89049  -4365008.88748  20296782.3734   20296778.6544
       918.2664
  -9833633.10649  -7658728.82847  22192882.4674   22192877.2014
      1493.2664
  -7246263.83649  -5640444.69947  22563119.7874   22563116.9714
      3460.0164
 04  9 14 21 47 44.9980000  0  8G 3G 8G13G10G23G27G19G28
  -1628349.36149  -1264139.13047  22864043.0764   22864041.4794
      -928.2344
 -10877763.56549  -8462305.95148  20673899.1474   20673895.7724
      2103.0474
   1450799.48549   1130356.96248  20409768.8114   20409765.2644
     -1425.6254
  -4964579.11949  -3856228.13947  22905568.0614   22905565.5294
      1546.7974
  10214746.34449   7949305.51847  23249101.6074   23249098.3974
     -3004.0164
  -5623546.62149  -4375722.96248  20294165.5684   20294162.3654
       914.7974
  -9855966.96549  -7676131.83247  22188632.5534   22188627.8854
      1484.4224
  -7298131.53849  -5680861.07347  22553249.7484   22553246.8424
      3455.5164
 04  9 14 21 47 59.9980000  0  8G 3G 8G13G10G23G27G19G28
  -1614360.68349  -1253238.89947  22866704.5684   22866702.6974
      -937.0624
 -10909286.59649  -8486869.34948  20667900.3814   20667897.4824
      2099.7814
   1472236.25649   1147060.92948  20413847.9514   20413844.7094
     -1432.8914
  -4987713.23049  -3874254.71747  22901165.6234   22901163.1974
      1537.5474
  10259827.16949   7984433.39347  23257680.3814   23257676.5454
     -3006.9534
  -5637250.01749  -4386400.93748  20291558.1934   20291554.7604
       912.0314
  -9878172.49249  -7693434.83447  22184406.6624   22184402.4554
      1476.1094
  -7349937.21049  -5721229.09547  22543391.6234   22543388.3574
      3451.6724
 04  9 14 21 48 14.9980000  0  8G 3G 8G13G10G23G27G19G28
  -1600238.50349  -1242234.62447  22869392.7174   22869390.3544
      -945.9374
 -10940758.05349  -8511392.54248  20661911.8264   20661908.8854
      2096.4224
   1493784.65349   1163851.86748  20417948.6934   20417945.2014
     -1440.1874
  -5010707.99249  -3892172.69447  22896789.6154   22896787.7404
      1528.4224
  10304953.61449   8019596.79347  23266267.0684   23266264.4164
     -3009.9064
  -5650908.77549  -4397044.11448  20288958.9904   20288955.6624
       909.1254
  -9900251.27449  -7710639.06347  22180205.0844   22180200.4124
      1467.7504
  -7401682.39349  -5761549.98447  22533544.5294   22533541.9434
      3447.7034
 04  9 14 21 48 29.9980000  0  8G 3G 8G13G10G23G27G19G28
  -1585982.15249  -1231125.77347  22872104.7404   22872102.9474
      -954.8914
 -10972176.98449  -8535874.83148  20655932.9674   20655929.4474
      2092.8284
   1515445.34249   1180730.30148  20422070.7174   20422066.8814
     -1447.8284
  -5033562.35449  -3909981.30547  22892440.8974   22892438.5724
      1518.8914
  10350126.36449   8054796.27347  23274863.6074   23274860.4124
     -3013.0164
  -5664521.95749  -4407651.79848  20286368.5064   20286365.5454
       906.0474
  -9922202.32849  -7727743.77947  22176027.9514   22176023.7294
      1459.1724
  -7453366.13749  -5801823.01047  22523709.6394   22523706.3144
      3443.4384
 04  9 14 21 48 44.9980000  0  8G 3G 8G13G10G23G27G19G28
  -1571591.85249  -1219912.56747  22874843.6314   22874841.6584
      -963.9064
 -11003543.15149  -8560315.99348  20649964.0374   20649960.5574
      2089.2814
   1537218.29649   1197696.23148  20426213.7794   20426209.8074
     -1455.2814
  -5056276.27749  -3927680.44447  22888118.3344   22888116.1504
      1509.4534
  10395345.15549   8090031.63347  23283468.2874   23283465.5884
     -3016.1254
  -5678089.63849  -4418224.01748  20283786.4754   20283783.1234
       902.9694
  -9944025.51049  -7744748.84947  22171875.3504   22171870.4594
      1450.5784
  -7504988.34149  -5842048.05347  22513886.1784   22513882.8224
      3439.3444
 04  9 14 21 48 59.9980000  0  8G 3G 8G13G10G23G27G19G28
  -1557068.32749  -1208595.58447  22877607.3504   22877605.4904
      -972.8124
 -11034857.42049  -8584716.71748  20644004.9904   20644001.5844
      2085.7344
   1559102.63049   1214748.95448  20430378.1704   20430374.3464
     -1462.8284
  -5078850.33849  -3945270.62647  22883822.4204   22883820.0414
      1500.1254
  10440609.04749   8125302.13847  23292081.7724   23292079.3184
     -3019.2194
  -5691612.47649  -4428761.30048  20281213.4044   20281210.1004
       899.8754
  -9965721.17449  -7761654.55347  22167746.8814   22167742.0254
      1442.0164
  -7556549.50749  -5882225.56947  22504074.2874   22504071.2324
      3435.2504
 04  9 14 21 49 14.9980000  0  8G 3G 8G13G10G23G27G19G28
  -1542410.21649  -1197173.69047  22880397.2014   22880395.0684
      -981.6874
 -11066118.13349  -8609075.70648  20638056.5844   20638053.3614
      2082.2194
   1581099.95949   1231889.70248  20434563.9754   20434560.4124
     -1470.2664
  -5101282.88349  -3962750.54447  22879554.1624   22879551.2484
      1490.7504
  10485919.58749   8160608.96347  23300704.3974   23300701.5184
     -3022.3124
  -5705088.65349  -4439262.22248  20278648.8114   20278645.0964
       896.9064
  -9987287.42449  -7778459.42147  22163642.8894   22163637.7874
      1433.4224
  -7608047.79649  -5922354.07047  22494274.5924   22494271.5104
      3431.1564
 04  9 14 21 49 29.9980000  0  8G 3G 8G13G10G23G27G19G28
  -1527619.90149  -1185648.76947  22883211.2874   22883209.1974
      -990.5944
 -11097327.57649  -8633394.75148  20632117.3814   20632114.4754
      2078.7814
   1603207.97849   1249116.71248  20438771.5454   20438767.6004
     -1477.7034
  -5123576.06449  -3980121.84047  22875311.7324   22875309.6194
      1481.4694
  10531274.19749   8195950.13947  23309335.1314   23309332.1114
     -3025.3124
  -5718520.48749  -4449728.58948  20276092.7174   20276089.2094
       893.7974
 -10008726.47249  -7795165.14647  22159563.1074   22159558.3114
      1424.8914
  -7659485.22849  -5962435.16247  22484486.4514   22484483.3344
      3426.9384
 04  9 14 21 49 44.9980000  0  8G 3G 8G13G10G23G27G19G28
  -1512695.37149  -1174019.26347  22886051.4904   22886049.6474
      -999.4374
 -11128483.49149  -8657672.08548  20626188.5064   20626184.9904
      2075.2034
   1625428.64549   1266431.49948  20442999.9754   20442996.1824
     -1485.2034
  -5145727.54249  -3997382.71947  22871096.3184   22871094.1504
      1471.9224
  10576674.97749   8231327.32847  23317975.0224   23317971.0534
     -3028.2974
  -5731905.86549  -4460158.75748  20273545.5534   20273542.1894
       890.7034
 -10030035.92249  -7811769.92447  22155508.3424   22155503.5574
      1416.3134
  -7710859.59449  -6002467.11247  22474710.2724   22474706.8574
      3422.8284
 04  9 14 21 49 59.9980000  0  8G 3G 8G13G10G23G27G19G28
  -1497638.41849  -1162286.60647  22888916.8184   22888914.8264
     -1008.4534
 -11159587.47749  -8681908.94848  20620269.7644   20620266.6544
      2071.6254
   1647760.31049   1283832.78048  20447249.4364   20447245.4864
     -1492.7194
  -5167738.89049  -4014534.41947  22866907.8974   22866905.5224
      1462.4534
  10622119.93249   8266738.91847  23326622.7404   23326618.7484
     -3031.4064
  -5745246.23149  -4470553.84348  20271006.8654   20271003.8574
       887.6094
 -10051217.29149  -7828274.88347  22151477.2564   22151472.4324
      1407.5634
  -7762172.30049  -6042451.01547  22464945.4124   22464942.7094
      3418.5634
 04  9 14 21 50 14.9980000  0  8G 3G 8G13G10G23G27G19G28
  -1482448.47649  -1150450.28447  22891806.5684   22891805.1824
     -1017.0784
 -11190638.29749  -8706104.39048  20614360.8344   20614358.0254
      2068.2194
   1670203.57549   1301321.01548  20451520.3424   20451516.6154
     -1499.9534
  -5189609.16049  -4031576.17447  22862746.0614   22862743.8304
      1453.1564
  10667609.78949   8302185.47147  23335279.0374   23335275.5844
     -3034.1414
  -5758540.74549  -4480913.20648  20268477.1934   20268473.7604
       884.7194
 -10072269.42649  -7844679.12747  22147471.2724   22147466.4904
      1399.1724
  -7813422.42149  -6082386.13447  22455193.2794   22455189.9244
      3414.5944
 04  9 14 21 50 29.9980000  0  8G 3G 8G13G10G23G27G19G28
  -1467124.78349  -1138509.75247  22894722.9824   22894720.9394
     -1025.9064
 -11221635.45149  -8730258.01548  20608462.4674   20608459.1624
      2064.7664
   1692759.22449   1318896.83348  20455812.2254   20455808.3614
     -1507.4064
  -5211337.55249  -4048507.38747  22858611.2404   22858609.1434
      1443.8594
  10713145.05349   8337667.42747  23343944.2484   23343940.1314
     -3037.0164
  -5771788.65149  -4491236.25548  20265956.3184   20265952.9984
       881.7034
 -10093191.37749  -7860981.93847  22143489.8894   22143485.0924
      1390.5944
  -7864608.97749  -6122271.73947  22445452.7564   22445449.6504
      3410.4064
 04  9 14 21 50 44.9980000  0  8G 3G 8G13G10G23G27G19G28
  -1451667.49049  -1126465.13347  22897664.3184   22897662.3504
     -1035.1874
 -11252578.90149  -8754369.78148  20602574.0064   20602570.9794
      2061.0164
   1715427.29649   1336560.25648  20460126.0064   20460122.3974
     -1515.0474
  -5232923.78349  -4065327.85247  22854503.7324   22854500.9324
      1434.1724
  10758725.57849   8373184.67047  23352618.0534   23352614.3034
     -3040.2504
  -5784989.77649  -4501522.85248  20263444.0614   20263440.6974
       878.3594
 -10113982.94049  -7877183.16147  22139533.6314   22139528.6824
      1381.5944
  -7915731.84149  -6162107.70447  22435724.3734   22435720.9984
      3406.0474
 04  9 14 21 50 59.9980000  0  8G 3G 8G13G10G23G27G19G28
  -1436077.84749  -1114317.37347  22900631.1074   22900629.1044
     -1043.6414
 -11283469.48049  -8778440.36748  20596695.7564   20596692.8774
      2057.6414
   1738206.49649   1354310.25348  20464460.9514   20464457.1314
     -1522.2814
  -5254368.87249  -4082038.29547  22850422.6004   22850421.0884
      1425.1094
  10804350.04449   8408736.11747  23361300.0924   23361296.1934
     -3043.0624
  -5798145.13349  -4511773.78248  20260940.8034   20260937.3114
       875.5474
 -10134644.88549  -7893283.37247  22135601.6074   22135597.2914
      1373.1094
  -7966791.70849  -6201894.59847  22426007.1154   22426004.3614
      3401.9384
 04  9 14 21 51 14.9980000  0  8G 3G 8G13G10G23G27G19G28
  -1420355.86849  -1102066.50047  22903623.1544   22903621.3114
     -1052.6724
 -11314306.93849  -8802469.54648  20590827.6474   20590824.3304
      2053.9694
   1761096.82749   1372146.85848  20468816.7014   20468812.7134
     -1529.8284
  -5275672.61849  -4098638.60547  22846369.5144   22846366.8224
      1415.4064
  10850018.34749   8444321.73947  23369990.5064   23369987.0924
     -3045.9374
  -5811254.58349  -4521988.94048  20258446.2014   20258442.8574
       872.2974
 -10155177.02049  -7909282.43147  22131694.2724   22131689.9554
      1364.4064
  -8017788.51249  -6241632.32247  22416303.8114   22416300.1584
      3397.5314
 04  9 14 21 51 29.9980000  0  8G 3G 8G13G10G23G27G19G28
  -1404503.20349  -1089713.79147  22906639.7404   22906637.6474
     -1061.2194
 -11345092.67549  -8826458.43248  20584969.2644   20584966.2794
      2050.5784
   1784096.82949   1390068.92348  20473193.4754   20473189.7644
     -1537.0624
  -5296836.36449  -4115129.85047  22842341.6864   22842339.0414
      1406.1414
  10895728.98149   8479940.33747  23378689.6784   23378685.6074
     -3048.8594
  -5824319.46449  -4532169.36948  20255959.8034   20255956.3424
       869.4224
 -10175580.42249  -7925181.17547  22127811.8574   22127806.7094
      1355.8754
  -8068723.24949  -6281321.70447  22406610.8654   22406607.9674
      3393.5164
 04  9 14 21 51 44.9980000  0  8G 3G 8G13G10G23G27G19G28
  -1388518.86549  -1077258.49047  22909681.0844   22909679.2014
     -1069.9694
 -11375825.59649  -8850406.15848  20579121.0144   20579117.7214
      2047.1094
   1807207.37949   1408077.12248  20477591.2324   20477587.1704
     -1544.4224
  -5317859.00649  -4131511.13647  22838340.9284   22838338.7054
      1396.8444
  10941482.64749   8515592.48347  23387395.3344   23387392.2364
     -3051.6564
  -5837338.64649  -4542314.17948  20253482.4124   20253479.2254
       866.4384
 -10195853.87049  -7940978.66147  22123953.5764   22123948.6894
      1347.2194
  -8119594.87549  -6320961.89547  22396929.8424   22396927.4634
      3389.3134
 04  9 14 21 51 59.9980000  0  8G 3G 8G13G10G23G27G19G28
  -1372402.81649  -1064700.51047  22912748.0924   22912745.9434
     -1078.7664
 -11406505.46649  -8874312.54248  20573282.7174   20573279.6354
      2043.5634
   1830428.63949   1426171.60248  20482010.2484   20482006.5064
     -1551.8124
  -5338740.07249  -4147782.06947  22834367.8654   22834365.5144
      1387.3134
  10987279.49849   8551278.26547  23396110.9674   23396107.4674
     -3054.5164
  -5850311.91549  -4552423.22848  20251013.7794   20251010.0374
       863.3134
 -10215997.08249  -7956674.66347  22120120.9204   22120116.2914
      1338.5784
  -8170402.88549  -6360552.51147  22387261.5684   22387258.9394
      3385.0634
 04  9 14 21 52 14.9980000  0  8G 3G 8G13G10G23G27G19G28
  -1356155.49749  -1052040.29447  22915839.2404   22915838.5294
     -1087.2814
 -11437132.35149  -8898177.64748  20567454.7724   20567451.8264
      2040.1724
   1853760.25149   1444352.06248  20486450.1934   20486446.4044
     -1558.8914
  -5359479.77649  -4163942.87047  22830421.0294   22830418.7484
      1378.1254
  11033118.98749   8586997.31247  23404833.4284   23404830.5964
     -3057.2974
  -5863239.43549  -4562496.61848  20248553.6544   20248550.5924
       860.5004
 -10236010.01649  -7972269.15047  22116312.1074   22116307.5144
      1330.0164
  -8221147.34649  -6400093.61747  22377605.6624   22377602.4244
      3380.9694
 04  9 14 21 52 29.9980000  0  8G 3G 8G13G10G23G27G19G28
  -1339776.76649  -1039277.66447  22918955.9754   22918955.3814
     -1096.4064
 -11467705.96849  -8922001.23948  20561636.8814   20561633.2954
      2036.4534
   1877202.47449   1462618.70348  20490910.8264   20490907.1354
     -1566.5314
  -5380077.77349  -4179993.25347  22826501.2794   22826498.7994
      1368.5314
  11079001.24749   8622749.62747  23413565.0924   23413561.7724
     -3060.3124
  -5876120.81249  -4572534.05248  20246102.5844   20246098.9824
       857.1414
 -10255892.14349  -7987761.71347  22112528.6704   22112524.8114
      1321.0944
  -8271827.90649  -6439584.94147  22367960.8034   22367958.0724
      3376.5314
 04  9 14 21 52 44.9980000  0  8G 3G 8G13G10G23G27G19G28
  -1323266.75549  -1026412.73347  22922097.4824   22922096.3074
     -1105.1874
 -11498226.42249  -8945783.41748  20555828.7724   20555825.7444
      2032.7504
   1900755.17849   1480971.44448  20495393.3184   20495389.4244
     -1573.9844
  -5400533.74549  -4195932.98247  22822608.3574   22822606.2644
      1358.9224
  11124926.10249   8658535.17747  23422303.9284   23422301.2604
     -3063.2814
  -5888955.98249  -4582535.48748  20243660.2404   20243657.0224
       854.0004
 -10275643.24749  -8003152.18447  22108770.5374   22108765.9824
      1312.2344
  -8322444.40949  -6479026.34547  22358328.8184   22358325.8504
      3372.2034
 04  9 14 21 52 59.9980000  0  8G 3G 8G13G10G23G27G19G28
  -1306625.31649  -1013445.39947  22925265.2324   22925263.2724
     -1114.0164
 -11528693.22249  -8969523.77648  20550031.2874   20550027.8894
      2029.2504
   1924418.46449   1499410.35148  20499896.0684   20499892.1314
     -1581.3444
  -5420847.43649  -4211761.84647  22818743.1784   22818740.4674
      1349.3594
  11170893.56849   8694353.88247  23431051.4364   23431048.5884
     -3066.0314
  -5901744.71349  -4592500.73748  20241226.3654   20241223.1194
       850.9064
 -10295262.98949  -8018440.28247  22105036.9514   22105032.3504
      1303.4694
  -8372996.31149  -6518417.41747  22348709.4434   22348706.3304
      3367.8914
 04  9 14 21 53 14.9980000  0  8G 3G 8G13G10G23G27G19G28
  -1289851.16249  -1000374.65047  22928456.8504   22928455.4164
     -1122.7344
 -11559104.66549  -8993221.00048  20544244.2254   20544240.5254
      2025.6094
   1948193.70749   1517936.49648  20504420.1314   20504416.5144
     -1588.7974
  -5441017.49349  -4227478.76047  22814904.2094   22814902.0534
      1339.9064
  11216904.94549   8730206.84847  23439807.3734   23439803.3694
     -3068.9224
  -5914485.36449  -4602428.51148  20238802.0294   20238798.9864
       847.7974
 -10314749.73649  -8033624.76147  22101328.7404   22101324.2054
      1294.7194
  -8423481.98849  -6557756.87747  22339102.1234   22339098.8304
      3363.4844
 04  9 14 21 53 29.9980000  0  8G 3G 8G13G10G23G27G19G28
  -1272946.59649   -987202.29147  22931674.1004   22931672.6154
     -1131.2814
 -11589463.00649  -9016876.84148  20538467.2094   20538464.0414
      2022.0944
   1972078.75049   1536548.20348  20508965.6474   20508961.5024
     -1595.9844
  -5461045.63649  -4243085.10747  22811093.4754   22811091.0144
      1330.4694
  11262957.98649   8766092.24447  23448570.7724   23448567.5184
     -3071.6724
  -5927180.00149  -4612320.44448  20236386.2954   20236382.7214
       844.7664
 -10334105.18749  -8048706.93247  22097645.0924   22097640.4904
      1285.9384
  -8473903.37249  -6597046.22647  22329507.3424   22329504.3424
      3359.2344
 04  9 14 21 53 44.9980000  0  8G 3G 8G13G10G23G27G19G28
  -1255912.04749   -973928.63147  22934916.0294   22934913.8304
     -1140.0004
 -11619768.45849  -9040491.48048  20532700.3504   20532697.4084
      2018.5314
   1996073.23949   1555245.19248  20513531.3504   20513527.5224
     -1603.3124
  -5480932.06649  -4258581.01647  22807309.2484   22807306.5644
      1321.0314
  11309052.13549   8802009.69546  23457342.2794   23457338.9204
     -3074.3124
  -5939828.80149  -4622176.65148  20233979.4044   20233975.9204
       841.7034
 -10353329.48349  -8063686.89747  22093987.3114   22093981.8934
      1277.2034
  -8524260.53649  -6636285.56247  22319924.4434   22319921.5574
      3354.9844
 04  9 14 21 53 59.9980000  0  8G 3G 8G13G10G23G27G19G28
  -1238745.92049   -960552.45447  22938182.3504   22938180.4474
     -1148.9064
 -11650018.99849  -9064063.32348  20526943.7794   20526940.8114
      2014.7344
   2020178.95749   1574028.84248  20518118.3504   20518114.7954
     -1610.9224
  -5500674.96249  -4273965.10347  22803552.2644   22803550.2484
      1311.2504
  11355189.05349   8837960.44847  23466122.0924   23466118.2754
     -3077.3754
  -5952429.97249  -4631995.75448  20231581.5374   20231578.3344
       838.3134
 -10372420.66049  -8078563.11947  22090354.3034   22090349.4944
      1268.1094
  -8574551.45849  -6675473.26547  22310354.6074   22310351.3114
      3350.3754
 04  9 14 21 54 14.9980000  0  8G 3G 8G13G10G23G27G19G28
  -1221449.94249   -947075.08247  22941472.8974   22941471.8184
     -1157.5944
 -11680216.21949  -9087593.61348  20521197.3654   20521194.0334
      2011.2034
   2044394.17549   1592897.83048  20522726.6474   20522722.9084
     -1618.0784
  -5520276.02549  -4289238.63947  22799822.2254   22799820.2094
      1301.9384
  11401366.90349   8873943.08047  23474909.3504   23474906.0254
     -3079.9374
  -5964985.01249  -4641778.90448  20229192.1934   20229188.9244
       835.3754
 -10391380.11649  -8093336.71747  22086746.2254   22086741.8694
      1259.4694
  -8624777.63749  -6714610.50747  22300796.5684   22300793.9904
      3346.1254
 04  9 14 21 54 29.9980000  0  8G 3G 8G13G10G23G27G19G28
  -1204023.83049   -933496.32647  22944789.3424   22944788.1894
     -1166.1724
 -11710359.56649  -9111081.94848  20515461.2724   20515458.0574
      2007.7034
   2068719.23349   1611852.39848  20527355.5374   20527351.6114
     -1625.3754
  -5539734.59749  -4304401.16347  22796119.3424   22796117.4984
      1292.4694
  11447585.97849   8909957.89447  23483704.9904   23483701.4244
     -3082.7664
  -5977493.35349  -4651525.66348  20226812.0534   20226808.4794
       832.2814
 -10410207.19049  -8108007.15547  22083163.9674   22083158.9984
      1250.6414
  -8674938.32649  -6753696.72947  22291251.7954   22291248.1894
      3341.8754
 04  9 14 21 54 44.9980000  0  8G 3G 8G13G10G23G27G19G28
  -1186468.35049   -919816.74647  22948129.7094   22948128.4084
     -1174.6874
 -11740449.72349  -9134528.80748  20509735.2094   20509732.6894
      2004.1884
   2093153.27149   1630891.88848  20532005.0844   20532001.4044
     -1632.6094
  -5559051.18049  -4319453.04947  22792443.2644   22792441.6434
      1282.9064
  11493845.39649   8946004.12147  23492506.8894   23492504.3424
     -3085.2504
  -5989955.63049  -4661236.53348  20224440.3814   20224437.2724
       829.2344
 -10428902.27049  -8122574.75147  22079605.9904   22079601.4164
      1241.8914
  -8725034.21249  -6792732.45847  22281718.6074   22281715.5534
      3337.5314
 04  9 14 21 54 59.9980000  0  8G 3G 8G13G10G23G27G19G28
  -1168783.28649   -906036.17247  22951495.9674   22951493.8114
     -1183.2664
 -11770485.99449  -9157933.68848  20504019.7484   20504016.0224
      2000.5784
   2117696.69549   1650016.62048  20536675.3264   20536671.7604
     -1639.9374
  -5578225.20149  -4334393.83547  22788794.7564   22788792.6784
      1273.4844
  11540145.48749   8982081.99847  23501318.1704   23501315.4434
     -3088.1564
  -6002371.31149  -4670911.09148  20222077.7794   20222074.3544
       826.0634
 -10447464.74449  -8137039.01047  22076073.8034   22076069.5924
      1233.0634
  -8775064.53349  -6831717.08447  22272197.9754   22272195.1004
      3333.0784
 04  9 14 21 55 14.9980000  0  8G 3G 8G13G10G23G27G19G28
  -1150968.21149   -892154.34247  22954886.1394   22954884.1704
     -1191.8914
 -11800467.91349  -9181296.22148  20498314.3034   20498311.0224
      1997.1094
   2142349.93149   1669226.91648  20541367.0614   20541363.0454
     -1647.1094
  -5597256.02949  -4349223.06147  22785173.4044   22785171.4794
      1264.0944
  11586486.50149   9018191.82647  23510136.5144   23510134.0844
     -3090.7034
  -6014739.76649  -4680548.84948  20219724.2404   20219720.6704
       823.1094
 -10465893.93649  -8151399.41047  22072566.8424   22072562.6074
      1224.3444
  -8825028.61849  -6870650.11647  22262690.2014   22262686.8614
      3328.8594
 04  9 14 21 55 29.9980000  0  8G 3G 8G13G10G23G27G19G28
  -1133024.00449   -878171.84447  22958300.1934   22958298.5184
     -1200.7034
 -11830395.88949  -9204616.71548  20492618.7014   20492615.7214
      1993.2664
   2167112.23449   1688522.19448  20546078.9904   20546075.2134
     -1654.6414
  -5616144.32149  -4363941.19047  22781579.3974   22781577.0964
      1254.3134
  11632867.56549   9054332.84347  23518962.5454   23518960.2954
     -3093.4844
  -6027061.59449  -4690150.28148  20217379.3114   20217376.1394
       819.7664
 -10484190.37149  -8165656.35947  22069085.4514   22069080.2444
      1215.1564
  -8874926.97849  -6909531.93047  22253194.5844   22253191.4514
      3324.2034
 04  9 14 21 55 44.9980000  0  8G 3G 8G13G10G23G27G19G28
  -1114950.62549   -864088.71947  22961739.6154   22961737.9164
     -1209.0164
 -11860269.70149  -9227895.00948  20486934.2644   20486931.1114
      1989.9224
   2191983.51349   1707902.39848  20550811.8974   20550808.1784
     -1661.5784
  -5634889.78349  -4378548.06047  22778012.2174   22778009.8034
      1245.1254
  11679288.71149   9090505.07247  23527796.8344   23527793.9864
     -3096.0314
  -6039336.50749  -4699715.14848  20215043.7874   20215040.4634
       816.8754
 -10502353.61549  -8179809.53547  22065629.1074   22065623.9864
      1206.6094
  -8924759.21249  -6948362.22447  22243712.0614   22243708.7214
      3320.0634
 04  9 14 21 55 59.9980000  0  8G 3G 8G13G10G23G27G19G28
  -1096748.87449   -849905.58547  22965204.0294   22965201.7724
     -1217.7344
 -11890089.81949  -9251131.45048  20481259.8264   20481256.6704
      1986.2504
   2216963.14149   1727367.01648  20555565.3814   20555561.4474
     -1668.8914
  -5653492.92649  -4393044.00647  22774471.8814   22774469.7054
      1235.4844
  11725749.18149   9126707.95047  23536638.1864   23536635.3934
     -3098.5944
  -6051565.09649  -4709243.92548  20212716.5224   20212713.2874
       813.7194
 -10520384.02849  -8193859.21247  22062197.4204   22062193.4164
      1197.5784
  -8974525.73049  -6987141.29147  22234241.9674   22234238.7724
      3315.5784
 04  9 14 21 56 14.9980000  0  8G 3G 8G13G10G23G27G19G28
  -1078417.20349   -835621.16047  22968692.2254   22968690.3614
     -1226.4844
 -11919854.72449  -9274324.88848  20475595.5534   20475592.5884
      1982.4694
   2242052.90949   1746917.46748  20560339.6314   20560336.6624
     -1676.3284
  -5671951.97449  -4407427.67747  22770959.7014   22770957.4514
      1225.8134
  11772250.34749   9162942.58047  23545487.2254   23545483.8894
     -3101.5164
  -6063745.55849  -4718735.19148  20210398.8894   20210395.1664
       810.4534
 -10538279.81149  -8207803.96347  22058792.2094   22058787.9324
      1188.5634
  -9024224.69149  -7025867.74047  22224783.9824   22224781.2404
      3310.9694
 04  9 14 21 56 29.9980000  0  8G 3G 8G13G10G23G27G19G28
  -1059956.12849   -821235.91547  22972205.1394   22972203.7174
     -1235.1254
 -11949564.68849  -9297475.48548  20469942.0844   20469938.7684
      1978.7974
   2267252.32249   1766553.36248  20565135.2564   20565131.3074
     -1683.6414
  -5690267.09249  -4421699.19547  22767474.2014   22767471.4904
      1216.2034
  11818791.66549   9199208.47147  23554343.1314   23554340.6314
     -3104.1414
  -6075878.14649  -4728189.16048  20208090.1544   20208086.6314
       807.1414
 -10556041.15849  -8221643.95747  22055412.2794   22055407.9794
      1179.5164
  -9073856.15549  -7064541.57447  22215339.8654   22215336.5254
      3306.4694
 04  9 14 21 56 44.9980000  0  7G 3G 8G13G10G27G19G28
  -1041366.68749   -806750.67247  22975742.4674   22975740.9434
     -1243.5624
 -11979220.25349  -9320583.71948  20464298.4754   20464295.9944
      1975.2504
   2292560.35049   1786273.87748  20569950.9124   20569947.7914
     -1690.9064
  -5708439.27049  -4435859.32647  22764016.2324   22764014.3814
      1206.6884
  -6087963.75949  -4737606.52348  20205790.3114   20205786.8144
       804.1414
 -10573668.70949  -8235379.70747  22052057.7564   22052053.5184
      1170.7974
  -9123420.98449  -7103163.49847  22205908.2254   22205904.6274
      3302.0784
 04  9 14 21 56 59.9980000  0  7G 3G 8G13G10G27G19G28
  -1022650.42049   -792166.59147  22979304.4124   22979302.9474
     -1252.0004
 -12008822.83549  -9343650.66648  20458665.7174   20458662.3464
      1971.5944
   2317975.44649   1806077.83448  20574787.4044   20574784.1894
     -1698.0164
  -5726469.62649  -4449908.94647  22760585.7014   22760582.8264
      1197.1414
  -6100003.61849  -4746988.23948  20203498.8654   20203495.5494
       801.0164
 -10591163.59749  -8249012.09047  22048729.3974   22048724.2134
      1161.7504
  -9172920.34449  -7141734.38747  22196488.4984   22196485.4794
      3297.5634
 04  9 14 21 57 14.9980000  0  7G 3G 8G13G10G27G19G28
  -1003805.12249   -777481.95547  22982890.3034   22982888.4284
     -1260.6874
 -12038369.92349  -9366674.36048  20453042.5224   20453039.3304
      1967.9224
   2343499.94449   1825967.03048  20579644.5534   20579640.8814
     -1705.3124
  -5744355.70349  -4463846.16147  22757181.2404   22757179.1864
      1187.6414
  -6111995.18249  -4756332.32548  20201217.3654   20201213.6074
       797.7814
 -10608523.24849  -8262539.07847  22045425.5534   22045420.9554
      1152.7034
  -9222351.43749  -7180252.09947  22187081.9284   22187078.8654
      3293.0164
 04  9 14 21 57 29.9980000  0  7G 3G 8G13G10G27G19G28
   -984831.22149   -762697.12247  22986500.6624   22986499.8144
     -1269.0314
 -12067861.97949  -9389655.18048  20447430.7724   20447427.7404
      1964.4534
   2369133.46349   1845941.18848  20584522.4364   20584518.7644
     -1712.4064
  -5762097.82249  -4477671.17447  22753804.8974   22753802.7484
      1178.2034
  -6123938.87149  -4765639.09648  20198943.9824   20198940.8224
       794.7504
 -10625747.88249  -8275960.87247  22042147.7174   22042142.4474
      1143.9534
  -9271714.71949  -7218716.97547  22177688.4514   22177685.1934
      3288.8284
 04  9 14 21 57 44.9980000  0  7G 3G 8G13G10G27G19G28
   -965729.58249   -747812.74547  22990135.2874   22990134.2684
     -1277.7194
 -12097299.40249  -9412593.42248  20441829.2564   20441825.9004
      1960.6094
   2394875.30949   1865999.74948  20589421.0294   20589417.5454
     -1719.8444
  -5779696.44049  -4491384.38347  22750456.3424   22750453.9044
      1168.4064
  -6135835.03449  -4774908.83948  20196680.6544   20196676.7364
       791.4384
 -10642837.96049  -8289277.80347  22038895.4824   22038890.8074
      1134.7664
  -9321010.49949  -7257129.24947  22168307.4124   22168304.7444
      3284.1094
 04  9 14 21 57 59.9980000  0  7G 3G 8G13G10G27G19G28
   -946501.00349   -732829.44447  22993794.5454   22993793.3144
     -1286.2504
 -12126682.50149  -9435489.34648  20436237.5684   20436234.5644
      1957.0474
   2420724.80249   1886142.18748  20594339.9204   20594336.6044
     -1726.9064
  -5797152.08049  -4504986.18947  22747134.5764   22747132.3034
      1158.8754
  -6147684.32349  -4784142.04948  20194425.7564   20194422.2644
       788.3754
 -10659793.73249  -8302490.09547  22035668.7324   22035663.8934
      1125.8594
  -9370239.20649  -7295489.25347  22158939.8184   22158936.5884
      3279.6414
 04  9 14 21 58 14.9980000  0  7G 3G 8G13G10G27G19G28
   -927144.62449   -717746.56647  22997478.3264   22997476.9474
     -1294.6564
 -12156010.13549  -9458342.02948  20430656.8504   20430653.7564
      1953.3284
   2446682.79449   1906369.18148  20599279.7954   20599276.2134
     -1734.1874
  -5814463.54449  -4518475.62447  22743839.9434   22743838.1864
      1149.3284
  -6159485.31049  -4793337.62748  20192180.0294   20192176.7324
       785.1094
 -10676613.95449  -8315596.75747  22032467.9434   22032463.1624
      1116.7814
  -9419399.49949  -7333795.94547  22149585.0684   22149581.3304
      3275.1094
 04  9 14 21 58 29.9980000  0  7G 3G 8G13G10G27G19G28
   -907660.34749   -702564.04447  23001185.7484   23001184.4474
     -1303.2814
 -12185282.07649  -9481151.33748  20425086.7174   20425083.3424
      1949.5944
   2472749.47349   1926680.85448  20604239.9824   20604236.5024
     -1741.4374
  -5831630.63549  -4531852.59847  22740573.2724   22740571.1314
      1139.6414
  -6171238.01049  -4802495.58248  20189943.2484   20189940.2254
       781.7504
 -10693298.31249  -8328597.55247  22029292.8574   22029288.4004
      1107.6884
  -9468491.02349  -7372049.07347  22140242.9754   22140240.1434
      3270.3754
 04  9 14 21 58 44.9980000  0  7G 3G 8G13G10G27G19G28
   -888050.86449   -687283.94447  23004917.8814   23004915.9084
     -1311.5944
 -12214500.71149  -9503919.09848  20419526.2564   20419522.6934
      1945.9694
   2498922.15149   1947075.12748  20609220.7874   20609216.8384
     -1748.5314
  -5848655.67849  -4545118.85747  22737334.1934   22737331.2404
      1130.1564
  -6182944.77849  -4811617.74348  20187716.1394   20187712.6044
       778.7344
 -10709849.07249  -8341494.24047  22026143.9434   22026138.9044
      1098.7034
  -9517516.18649  -7410250.45947  22130913.7794   22130910.7874
      3265.9384
 04  9 14 21 58 59.9980000  0  7G 3G 8G13G10G27G19G28
   -868314.13549   -671904.69947  23008672.8344   23008672.3074
     -1319.9694
 -12243663.70849  -9526643.50148  20413976.7874   20413973.7994
      1942.3754
   2525202.89549   1967553.61248  20614221.7724   20614218.3144
     -1755.5624
  -5865536.51549  -4558272.75547  22734121.7564   22734119.6474
      1120.5784
  -6194603.33049  -4820702.32448  20185497.4124   20185493.9754
       775.6724
 -10726264.00349  -8354285.09247  22023019.9204   22023015.3504
      1089.7814
  -9566472.74549  -7448398.41147  22121597.9204   22121594.5494
      3261.5944
 04  9 14 21 59 14.9980000  0  7G 3G 8G13G10G27G19G28
   -848452.42349   -656428.03347  23012453.1394   23012451.0104
     -1328.2664
 -12272773.37449  -9549326.35348  20408437.2564   20408434.1744
      1938.9064
   2551589.38349   1988114.49448  20619243.0764   20619239.6744
     -1762.6094
  -5882275.22249  -4571315.90347  22730936.4984   22730934.0144
      1111.1564
  -6206215.72649  -4829750.95048  20183287.3974   20183284.0724
       772.5944
 -10742545.03149  -8366971.59947  22019921.5224   22019916.5924
      1080.9534
  -9615362.53249  -7486494.32047  22112294.0144   22112291.2174
      3257.1094
 04  9 14 21 59 29.9980000  0  7G 3G 8G13G10G27G19G28
   -828465.55649   -640853.84547  23016255.7404   23016254.0764
     -1336.7664
 -12301829.22049  -9571967.26548  20402908.0764   20402905.2684
      1935.1094
   2578082.00149   2008758.06648  20624284.0924   20624280.7724
     -1769.8284
  -5898871.38249  -4584247.97447  22727778.0684   22727775.6314
      1101.5474
  -6217781.51149  -4838763.25448  20181086.6704   20181083.5024
       769.3594
 -10758691.67149  -8379553.38347  22016849.2954   22016844.9164
      1071.7974
  -9664184.96049  -7524537.74447  22103003.5924   22103000.5294
      3252.4694
 04  9 14 21 59 44.9980000  0  7G 3G 8G13G10G27G19G28
   -808353.14549   -625181.87147  23020083.6234   23020081.5224
     -1345.0164
 -12330830.36749  -9594565.56048  20397389.7094   20397386.9124
      1931.5474
   2604681.34649   2029484.80948  20629345.9594   20629342.6824
     -1776.8914
  -5915324.21549  -4597068.35747  22724646.7954   22724644.6004
      1092.0004
  -6229299.83549  -4847738.57348  20178894.7564   20178891.4634
       766.2664
 -10774702.96049  -8392029.70647  22013802.7094   22013797.8224
      1062.7974
  -9712939.14249  -7562527.99647  22093725.8344   22093722.9824
      3247.9694
 04  9 14 21 59 59.9980000  0  7G 3G 8G13G10G27G19G28
   -788115.03149   -609411.90647  23023934.8734   23023933.0024
     -1353.3754
 -12359776.35349  -9617120.86548  20391881.4514   20391878.1074
      1928.0164
   2631387.51749   2050294.79648  20634428.2724   20634424.2994
     -1783.8444
  -5931633.36849  -4609776.79647  22721543.3184   22721541.4474
      1082.5474
  -6240770.51949  -4856676.77548  20176712.0144   20176708.4284
       763.2344
 -10790578.50349  -8404400.25047  22010781.0764   22010777.0184
      1053.9534
  -9761624.73949  -7600464.80947  22084461.2644   22084458.4904
      3243.5164
 04  9 14 22  0 14.9980000  0  7G 3G 8G13G10G27G19G28
   -767750.98549   -593543.85547  23027809.7014   23027808.4124
     -1361.7814
 -12388666.70949  -9639632.83448  20386383.7954   20386380.8034
      1924.2664
   2658200.87349   2071188.29448  20639530.4284   20639527.2724
     -1791.0474
  -5947798.40449  -4622372.92147  22718467.9124   22718465.1044
      1072.9064
  -6252192.90749  -4865577.33348  20174538.9044   20174535.2754
       759.9224
 -10806317.62849  -8416664.50447  22007786.4754   22007781.5494
      1044.7814
  -9810241.09049  -7638347.65147  22075210.0294   22075206.4554
      3238.8754
 04  9 14 22  0 29.9980000  0  7G 3G 8G13G10G27G19G28
   -747262.88249   -577579.12247  23031708.4824   23031707.0374
     -1369.8594
 -12417503.21449  -9662102.83548  20380896.1544   20380893.2014
      1920.7504
   2685119.54149   2092163.86448  20644652.8424   20644649.5534
     -1798.0624
  -5963820.85849  -4634857.95147  22715418.0924   22715416.4714
      1063.5314
  -6263568.70649  -4874441.60748  20172373.8344   20172370.3614
       756.8914
 -10821921.89349  -8428823.66947  22004817.2404   22004812.4364
      1035.8284
  -9858789.80749  -7676177.79447  22065971.4514   22065968.0884
      3234.3284
 04  9 14 22  0 44.9980000  0  7G 3G 8G13G10G27G19G28
   -726650.63349   -561517.65447  23035630.9044   23035629.7294
     -1378.3594
 -12446285.37149  -9684530.47348  20375419.0454   20375415.9554
      1916.9844
   2712143.54149   2113221.50548  20649795.2954   20649791.4244
     -1805.1724
  -5979700.55449  -4647231.74247  22712396.4514   22712394.3464
      1053.7974
  -6274897.48749  -4883269.22448  20170217.6074   20170214.5454
       753.6564
 -10837390.96449  -8440877.47547  22001873.1314   22001868.6274
      1026.6724
  -9907270.46049  -7713954.90347  22056745.7484   22056742.6744
      3229.6884
 04  9 14 22  0 59.9980000  0  7G 3G 8G13G10G27G19G28
   -705913.39949   -545358.75747  23039577.2874   23039575.8184
     -1386.4844
 -12475012.16149  -9706914.98248  20369952.7094   20369949.3854
      1913.3594
   2739274.03449   2134362.12548  20654958.0534   20654954.5964
     -1812.1414
  -5995436.28249  -4659493.33947  22709402.4594   22709399.6544
      1044.3134
  -6286178.16649  -4892059.36148  20168071.2094   20168067.9364
       750.5634
 -10852723.50849  -8452824.90948  21998955.4754   21998950.5764
      1017.7034
  -9955681.73449  -7751677.94947  22047533.3974   22047530.7294
      3225.2194
 04  9 14 22  1 14.9980000  0  7G 3G 8G13G10G27G19G28
   -685052.80749   -529103.75947  23043547.0534   23043546.0964
     -1394.8914
 -12503684.74549  -9729257.24948  20364496.1704   20364493.0254
      1909.6254
   2766509.40449   2155584.47348  20660140.8894   20660137.3544
     -1819.2974
  -6011029.41949  -4671643.84047  22706434.9594   22706432.7604
      1034.7344
  -6297412.12649  -4900813.10048  20165933.5844   20165930.1894
       747.2974
 -10867920.84849  -8464666.98447  21996063.8504   21996059.0844
      1008.5944
 -10004025.02549  -7789348.02547  22038334.5224   22038331.3934
      3220.5474
 04  9 14 22  1 29.9980000  0  7G 3G 8G13G10G27G19G28
   -664067.70049   -512751.77347  23047540.0764   23047538.3774
     -1403.4374
 -12532301.74249  -9751556.20848  20359050.6934   20359047.6894
      1905.7344
   2793850.87149   2176889.49148  20665343.6544   20665340.3974
     -1826.5164
  -6026478.47249  -4683682.06347  22703495.1864   22703492.8424
      1024.9534
  -6308597.86749  -4909529.27148  20163805.0764   20163801.8424
       743.8914
 -10882981.29949  -8476402.40347  21993197.4594   21993192.8774
       999.2974
 -10052298.50549  -7826963.69947  22029147.8734   22029144.4004
      3215.7504
 04  9 14 22  1 44.9980000  0  7G 3G 8G13G10G27G19G28
   -642957.68749   -496302.43247  23051557.2324   23051555.9904
     -1411.4064
 -12560862.61249  -9773811.42548  20353616.0224   20353612.5764
      1902.2664
   2821298.92149   2198277.56248  20670566.9364   20670563.7524
     -1833.3594
  -6041782.84749  -4695607.55447  22700582.5064   22700580.4044
      1015.5314
  -6319734.61249  -4918207.25548  20161685.7404   20161682.3814
       740.8914
 -10897904.26349  -8488030.68147  21990357.8654   21990353.5764
       990.3594
 -10100501.59249  -7864524.52347  22019975.0294   22019972.0804
      3211.2664
 04  9 14 22  1 59.9980000  0  7G 3G 8G13G10G27G19G28
   -621724.75649   -479757.32747  23055598.4364   23055596.3034
     -1419.7344
 -12589369.04549  -9796024.22348  20348191.3974   20348188.3654
      1898.5314
   2848851.62549   2219747.18948  20675810.2094   20675806.6624
     -1840.4064
  -6056944.28949  -4707421.65747  22697698.0924   22697695.0724
      1005.9384
  -6330824.17549  -4926848.47248  20159575.6784   20159572.2604
       737.6414
 -10912691.44549  -8499553.14847  21987543.7954   21987539.4044
       981.1724
 -10148635.96849  -7902031.80147  22010815.3114   22010812.1114
      3206.5314
 04  9 14 22  2 14.9980000  0  7G 3G 8G13G10G27G19G28
   -600368.58349   -463116.15047  23059661.7794   23059660.1114
     -1427.7344
 -12617820.32749  -9818194.05048  20342777.0374   20342774.1114
      1895.0474
   2876509.22149   2241298.52848  20681073.5534   20681069.6004
     -1847.1874
  -6071962.34749  -4719124.03847  22694839.7954   22694837.1354
       996.5164
  -6341866.14849  -4935452.60348  20157474.3264   20157471.0144
       734.6414
 -10927342.25249  -8510969.35947  21984756.1474   21984752.0294
       972.2344
 -10196700.92249  -7939484.97947  22001668.8654   22001666.3144
      3202.0004
 04  9 14 22  2 29.9980000  0  7G 3G 8G13G10G27G19G28
   -578888.55149   -446378.48047  23063749.2644   23063747.7914
     -1436.1254
 -12646215.77649  -9840320.36248  20337373.3424   20337370.2404
      1891.1884
   2904272.50049   2262932.23748  20686356.2954   20686352.9864
     -1854.3914
  -6086836.25649  -4730714.08047  22692009.5224   22692007.1154
       986.8134
  -6352859.45749  -4944018.82148  20155382.2254   20155378.6274
       731.2194
 -10941855.65349  -8522278.49847  21981993.9284   21981989.5804
       962.9224
 -10244695.74149  -7976883.51947  21992535.6784   21992532.8034
      3197.3284
 04  9 14 22  2 44.9980000  0  7G 3G 8G13G10G27G19G28
   -557286.20849   -429545.49747  23067860.2014   23067858.6154
     -1444.3594
 -12674556.36149  -9862403.93348  20331980.5844   20331977.3694
      1887.4694
   2932140.05949   2284647.18348  20691659.6474   20691655.9904
     -1861.3754
  -6101567.19849  -4742192.74747  22689205.8034   22689203.6824
       977.2664
  -6363805.38849  -4952548.11748  20153299.4904   20153295.8144
       728.0634
 -10956232.74049  -8533481.42547  21979258.4284   21979254.0534
       953.9224
 -10292621.32149  -8014228.10647  21983415.4364   21983413.0254
      3192.6414
 04  9 14 22  2 59.9980000  0  7G 3G 8G13G10G27G19G28
   -535560.22149   -412616.19147  23071994.8504   23071993.4754
     -1452.5314
 -12702840.62849  -9884443.60948  20326597.9904   20326595.1824
      1883.7504
   2960113.19449   2306444.41548  20696982.6394   20696979.0224
     -1868.3284
  -6116153.63049  -4753558.78847  22686430.3114   22686428.1624
       967.6884
  -6374702.37649  -4961039.28348  20151225.5454   20151222.3304
       724.8444
 -10970471.86149  -8544576.83947  21976548.4674   21976543.8424
       944.6414
 -10340476.05349  -8051517.47647  21974309.5294   21974306.1114
      3187.9064
 04  9 14 22  3 14.9980000  0  7G 3G 8G13G10G27G19G28
   -513711.49249   -395591.23547  23076152.6004   23076150.5724
     -1460.6874
 -12731069.03549  -9906439.76648  20321226.3264   20321223.3854
      1880.0164
   2988191.15049   2328323.32648  20702325.6234   20702322.4554
     -1875.3594
  -6130596.08649  -4764812.65447  22683682.0224   22683679.3074
       958.0944
  -6385550.92649  -4969492.69548  20149161.4284   20149158.0254
       721.5944
 -10984573.55849  -8555565.16947  21973865.1784   21973860.3734
       935.5314
 -10388260.43749  -8088752.03847  21965216.2794   21965213.4474
      3183.1724
 04  9 14 22  3 29.9980000  0  7G 3G 8G13G10G27G19G28
   -491739.30349   -378470.04647  23080333.6394   23080332.0254
     -1468.8914
 -12759240.83149  -9928391.80948  20315865.7564   20315862.7684
      1876.3444
   3016374.69349   2350284.51348  20707688.6624   20707685.1864
     -1882.3594
  -6144893.62549  -4775953.59047  22680961.8034   22680959.2604
       948.4064
  -6396350.15049  -4977907.66748  20147106.2094   20147102.9554
       718.3444
 -10998536.81049  -8566445.61847  21971208.1934   21971203.3144
       926.3444
 -10435973.38449  -8125930.92047  21956136.8974   21956133.8774
      3178.5314
 04  9 14 22  3 44.9980000  0  7G 3G 8G13G10G27G19G28
   -469645.11449   -361253.80647  23084537.9044   23084536.2564
     -1476.9534
 -12787357.04249  -9950300.53948  20310515.1934   20310512.7174
      1872.6254
   3044662.52949   2372326.96148  20713071.9754   20713068.2874
     -1889.3124
  -6159047.38549  -4786982.48747  22678268.4284   22678265.4594
       938.9224
  -6407101.08549  -4986285.01648  20145060.3974   20145056.9714
       715.2034
 -11012362.75249  -8577219.07347  21968577.0294   21968572.4794
       917.1884
 -10483615.96449  -8163054.97747  21947070.2874   21947067.8734
      3173.9384
 04  9 14 22  3 59.9980000  0  7G 3G 8G13G10G27G19G28
   -447428.56149   -343942.21447  23088765.0454   23088764.0924
     -1485.2344
 -12815416.97849  -9972165.41948  20305175.6544   20305172.5844
      1868.8134
   3073055.08149   2394451.00448  20718474.8654   20718471.4164
     -1896.3124
  -6173056.76349  -4797898.90347  22675602.2644   22675599.7914
       929.1414
  -6417803.10649  -4994624.26048  20143023.8264   20143020.5334
       711.8134
 -11026050.53249  -8587884.86547  21965972.6784   21965967.8974
       907.8754
 -10531187.45849  -8200123.66447  21938018.2254   21938014.9394
      3169.0784
 04  9 14 22  4 14.9980000  0  7G 3G 8G13G10G27G19G28
   -425091.40649   -326536.66847  23093015.9514   23093015.3504
     -1493.0944
 -12843422.07049  -9993987.56448  20299846.2174   20299843.3694
      1865.2664
   3101550.62749   2416655.29848  20723897.1004   20723894.1584
     -1903.1564
  -6186923.44449  -4808704.09947  22672963.5374   22672961.3264
       919.7814
  -6428457.82149  -5002926.63648  20140996.6474   20140992.7724
       708.8134
 -11039601.71149  -8598444.23847  21963393.8344   21963389.3074
       898.9384
 -10578689.28449  -8237138.04647  21928978.9514   21928975.7644
      3164.4694
 04  9 14 22  4 29.9980000  0  7G 3G 8G13G10G27G19G28
   -402633.45149   -309036.98047  23097289.9984   23097288.9164
     -1501.0944
 -12871371.97849 -10015766.71648  20294527.8654   20294524.8464
      1861.7034
   3130149.21049   2438939.88848  20729339.5534   20729335.9864
     -1909.8754
  -6200646.99349  -4819397.76647  22670351.9434   22670349.2994
       910.2814
  -6439064.76049  -5011191.78348  20138977.9284   20138974.2914
       705.6414
 -11053015.86149  -8608896.81047  21960840.4044   21960836.6004
       889.8284
 -10626121.02249  -8274097.81247  21919953.0224   21919949.9204
      3159.9064
 04  9 14 22  4 44.9980000  0  7G 3G 8G13G10G27G19G28
   -380056.15149   -291444.29347  23101585.8344   23101584.9634
     -1509.1564
 -12899268.03449 -10037503.89148  20289219.5534   20289216.0184
      1857.9224
   3158849.70449   2461303.88548  20734800.7644   20734797.2684
     -1916.7664
  -6214228.60249  -4829980.83147  22667767.6394   22667765.2754
       900.6414
  -6449625.03649  -5019420.56648  20136968.4044   20136965.3074
       702.5164
 -11066293.93249  -8619243.36347  21958314.0224   21958309.6824
       880.6884
 -10673483.65149  -8311003.73847  21910939.9124   21910937.2254
      3155.2034
 04  9 14 22  4 59.9980000  0  7G 3G 8G13G10G27G19G28
   -357356.79049   -273756.47947  23105905.5924   23105904.3144
     -1517.3444
 -12927106.73649 -10059196.38448  20283921.6394   20283918.6974
      1854.0314
   3187654.89349   2483749.46848  20740282.0844   20740279.1624
     -1923.7664
  -6227665.33049  -4840451.01447  22665210.3974   22665208.0724
       891.0164
  -6460135.53549  -5027610.57248  20134968.3574   20134965.2644
       699.0944
 -11079432.80649  -8629481.44447  21955814.0374   21955809.6624
       871.3134
 -10720773.94749  -8347853.29847  21901940.7794   21901937.6354
      3150.3444
 04  9 14 22  5 14.9980000  0  7G 3G 8G13G10G27G19G28
   -334536.64149   -255974.55547  23110247.9284   23110246.8774
     -1525.4694
 -12954889.24549 -10080845.08548  20278635.2094   20278631.9474
      1850.2664
   3216563.57349   2506275.68448  20745783.6074   20745780.1354
     -1930.7344
  -6240958.10649  -4850809.02847  22662680.9124   22662678.4364
       881.3594
  -6470597.17049  -5035762.49748  20132977.5844   20132974.2014
       695.7504
 -11092433.48449  -8639611.83347  21953339.9434   21953335.3694
       862.0474
 -10767992.93549  -8384647.28647  21892955.7014   21892952.3974
      3145.4844
 04  9 14 22  5 29.9980000  0  7G 3G 8G13G10G27G19G28
   -311595.81349   -238098.59447  23114613.6004   23114612.4164
     -1533.4844
 -12982615.48649 -10102449.94448  20273358.8504   20273355.6504
      1846.5634
   3245575.58949   2528882.42648  20751304.3574   20751301.1154
     -1937.4844
  -6254106.83249  -4861054.77447  22660179.1394   22660176.4554
       871.8134
  -6481009.91849  -5043876.32348  20130996.1934   20130992.5684
       692.5634
 -11105295.64649  -8649634.29547  21950892.7094   21950888.0064
       852.8134
 -10815140.39849  -8421385.54047  21883983.5614   21883980.3544
      3140.7194
 04  9 14 22  5 44.9980000  0  7G 3G 8G13G10G27G19G28
   -288534.16849   -220128.50647  23119002.2014   23119000.6474
     -1541.4534
 -13010285.09949 -10124010.67848  20268093.6154   20268090.5924
      1842.7344
   3274691.08849   2551569.80448  20756845.0764   20756841.4044
     -1944.4694
  -6267111.30349  -4871188.12247  22657704.3344   22657701.8814
       862.1414
  -6491373.49649  -5051951.84048  20129024.0924   20129020.4634
       689.2664
 -11118019.02949  -8659548.62747  21948471.1624   21948466.7794
       843.6254
 -10862215.85949  -8458067.69247  21875025.4984   21875022.4044
      3136.0004
 04  9 14 22  5 59.9980000  0  7G 3G 8G13G10G27G19G28
   -265353.73349   -202065.83047  23123413.4124   23123411.9634
     -1549.5004
 -13037899.65549 -10145528.51348  20262838.6004   20262835.4554
      1839.0634
   3303908.25249   2574336.40648  20762404.8574   20762401.3544
     -1951.2974
  -6279973.18349  -4881210.38547  22655257.2724   22655254.4594
       852.5004
  -6501689.41249  -5059990.21648  20127060.9204   20127057.4164
       685.9844
 -11130605.10149  -8669355.95347  21946076.3344   21946071.8734
       834.3444
 -10909220.79849  -8494694.89847  21866080.6474   21866077.6314
      3131.1724
 04  9 14 22  6 14.9980000  0  7G 3G 8G13G10G27G19G28
   -242052.44449   -183908.99847  23127847.6004   23127846.2134
     -1557.5164
 -13065456.60349 -10167001.45448  20257594.6314   20257591.7094
      1835.1724
   3333229.31749   2597183.96748  20767984.3114   20767981.2054
     -1958.1874
  -6292690.01249  -4891119.60047  22652837.2324   22652834.6314
       842.9384
  -6511955.28149  -5067989.59948  20125107.3974   20125103.7014
       682.7194
 -11143051.47049  -8679054.41347  21943707.7874   21943702.9044
       825.0944
 -10956153.01149  -8531265.43347  21857149.8814   21857146.6194
      3126.3594
 04  9 14 22  6 29.9980000  0  7G 3G 8G13G10G27G19G28
   -218632.04549   -165659.36747  23132304.0844   23132303.6744
     -1565.1724
 -13092957.88849 -10188431.01948  20252361.5614   20252358.0844
      1831.6884
   3362652.33749   2620110.96348  20773582.9754   20773580.1624
     -1964.7664
  -6305263.63049  -4900917.21247  22650444.4984   22650442.2364
       833.6414
  -6522172.72249  -5075951.23248  20123163.1074   20123159.5844
       679.6884
 -11155359.74649  -8688645.27747  21941366.0374   21941361.0924
       816.0944
 -11003013.92549  -8567780.40747  21848232.6234   21848229.5924
      3121.9694
 04  9 14 22  6 44.9980000  0  7G 3G 8G13G10G27G19G28
   -195092.92149   -147317.18347  23136783.4044   23136782.2564
     -1573.2194
 -13120403.41349 -10209817.13748  20247138.5294   20247135.4084
      1827.8134
   3392177.23049   2643117.35948  20779201.6474   20779198.8384
     -1971.7814
  -6317693.87949  -4910603.12647  22648078.9364   22648076.3654
       823.9534
  -6532341.67949  -5083875.10948  20121227.8344   20121224.5294
       676.4224
 -11167529.75449  -8698128.39747  21939049.6004   21939044.7754
       806.7664
 -11049803.37349  -8604239.69747  21839328.8574   21839325.2874
      3116.9534
 04  9 14 22  6 59.9980000  0  7G 3G 8G13G10G27G19G28
   -171434.45349   -128882.03647  23141285.6074   23141283.8424
     -1581.2814
 -13147792.11249 -10231158.97448  20241926.9204   20241923.4084
      1823.9844
   3421804.58249   2666203.58548  20784839.8814   20784836.3144
     -1978.5944
  -6329980.03849  -4920176.74747  22645741.4984   22645738.5334
       814.2034
  -6542461.25749  -5091760.48548  20119301.8034   20119298.9394
       673.0004
 -11179560.67749  -8707503.14647  21936760.1704   21936755.3574
       797.2974
 -11096520.46649  -8640642.60047  21830438.5294   21830435.2834
      3111.9694
 04  9 14 22  7 14.9980000  0  7G 3G 8G13G10G27G19G28
   -147655.07249   -110352.67547  23145810.6154   23145809.1074
     -1589.2034
 -13175122.21849 -10252455.15748  20236725.9674   20236722.5924
      1820.1254
   3451536.09049   2689370.96248  20790497.6544   20790494.1234
     -1985.5314
  -6342120.30149  -4929636.69647  22643430.7014   22643428.0764
       804.5634
  -6552529.64849  -5099605.99248  20117386.4434   20117382.6584
       669.5784
 -11191450.58149  -8716767.99747  21934497.8184   21934492.9204
       788.0004
 -11143163.26149  -8676987.60647  21821562.8894   21821559.9794
      3107.1414
 04  9 14 22  7 29.9980000  0  7G 3G 8G13G10G27G19G28
   -123755.41349    -91729.58647  23150358.7014   23150357.3264
     -1597.4064
 -13202393.98849 -10273705.88348  20231536.5454   20231533.1274
      1816.1884
   3481371.15949   2712619.04648  20796175.2174   20796171.5144
     -1992.5004
  -6354115.06549  -4938983.26147  22641148.4824   22641145.7054
       794.8134
  -6562547.08749  -5107411.79148  20115479.8974   20115476.4864
       666.1094
 -11203199.59849  -8725923.06947  21932261.9124   21932257.0224
       778.5474
 -11189731.85949  -8713274.80547  21812700.8574   21812697.7364
      3102.1254
 04  9 14 22  7 44.9980000  0  7G 3G 8G13G10G27G19G28
    -99735.72349    -73012.96447  23154929.0534   23154927.7564
     -1605.3914
 -13229607.20749 -10294910.97648  20226357.7094   20226354.3264
      1812.1884
   3511309.65849   2735947.72348  20801872.0614   20801868.7994
     -1999.3914
  -6365964.39549  -4948216.51047  22638893.3264   22638890.8574
       785.0474
  -6572513.51649  -5115177.85148  20113583.4514   20113580.1234
       662.6254
 -11214807.70849  -8734968.35447  21930053.1934   21930048.2644
       769.1564
 -11236226.24649  -8749504.17047  21803853.6544   21803850.3814
      3097.0634
 04  9 14 22  7 59.9980000  0  7G 3G 8G13G10G27G19G28
    -75598.15349    -54204.47347  23159522.6074   23159521.2994
     -1613.0474
 -13256763.85649 -10316071.99348  20221189.9824   20221186.8384
      1808.4844
   3541349.43449   2759355.32448  20807588.5534   20807584.9674
     -2006.0944
  -6377670.15249  -4957337.87147  22636665.4124   22636663.2564
       775.5784
  -6582430.83149  -5122905.62248  20111696.4434   20111692.9164
       659.4534
 -11226276.80049  -8743905.29147  21927870.5614   21927865.6784
       759.9694
 -11282648.28449  -8785677.16147  21795019.7254   21795016.0644
      3092.3134
 04  9 14 22  8 14.9980000  0  7G 3G 8G13G10G27G19G28
    -51341.73449    -35303.36947  23164138.3974   23164137.1154
     -1621.0004
 -13283862.55649 -10337187.85548  20216033.3894   20216030.2604
      1804.6414
   3571491.55949   2782842.67048  20813324.5764   20813321.1354
     -2012.9064
  -6389231.13249  -4966346.42547  22634465.5294   22634463.2874
       765.9844
  -6592297.75849  -5130594.13048  20109818.7564   20109815.5884
       656.0634
 -11237605.60449  -8752732.92847  21925715.0224   21925710.1434
       750.5634
 -11328996.57549  -8821792.69947  21786200.2254   21786196.4794
      3087.4384
 04  9 14 22  8 29.9980000  0  7G 3G 8G13G10G27G19G28
    -26967.73049    -16310.67847  23168776.7484   23168775.3934
     -1628.9374
 -13310904.72149 -10358259.67548  20210887.2954   20210884.3224
      1800.8284
   3601734.93049   2806408.91148  20819079.6544   20819076.3814
     -2019.6724
  -6400648.29149  -4975242.91847  22632292.7014   22632290.5494
       756.2504
  -6602115.21349  -5138244.10748  20107950.5614   20107946.9474
       652.7344
 -11248794.98549  -8761451.92947  21923585.4674   21923581.0804
       741.2344
 -11375271.85549  -8857851.32447  21777393.9514   21777390.9474
      3082.4694
 04  9 14 22  8 44.9980000  0  7G 3G 8G13G10G27G19G28
     -2475.70749      2774.02247  23173437.3264   23173436.2484
     -1636.7814
 -13337889.14149 -10379286.47448  20205752.7094   20205749.3144
      1797.1414
   3632079.99049   2830054.39448  20824853.9824   20824850.4434
     -2026.3284
  -6411921.07149  -4984026.89747  22630148.1004   22630145.9284
       746.7814
  -6611882.50149  -5145854.97148  20106091.9284   20106088.4754
       649.5004
 -11259844.08949  -8770061.61647  21921482.6474   21921478.4394
       732.0164
 -11421473.49749  -8893852.56547  21768602.2794   21768599.0804
      3077.7034
 04  9 14 22  8 59.9980000  0  7G 3G 8G13G10G27G19G28
     22133.25049     21949.81847  23178120.4674   23178118.6934
     -1644.4374
 -13364816.27449 -10400268.65948  20200628.5534   20200625.5684
      1793.2664
   3662525.66449   2853778.26948  20830647.8114   20830644.4394
     -2033.0004
  -6423050.31749  -4992699.01847  22628029.8654   22628027.3654
       737.2034
  -6621600.27449  -5153427.26748  20104242.7564   20104238.8654
       646.2814
 -11270753.60849  -8778562.54147  21919406.9044   21919402.3734
       722.6254
 -11467602.06649  -8929796.89047  21759823.9204   21759820.8074
      3072.8594
 04  9 14 22  9 14.9980000  0  7G 3G 8G13G10G27G19G28
     46858.85949     41216.50147  23182826.1394   23182823.5104
     -1652.2344
 -13391686.69149 -10421206.63048  20195515.3264   20195511.9474
      1789.5314
   3693071.85949   2877580.48448  20836460.5764   20836457.2954
     -2039.7814
  -6434036.10949  -5001259.39047  22625939.4434   22625937.0884
       727.6884
  -6631268.59549  -5160961.01748  20102402.7254   20102399.4244
       642.9534
 -11281523.70549  -8786954.82848  21917357.9754   21917352.7644
       713.2664
 -11513657.60349  -8965684.29747  21751060.1004   21751056.5534
      3067.9694
 04  9 14 22  9 29.9980000  0  7G 3G 8G13G10G27G19G28
     71701.85449     60574.64347  23187553.0144   23187551.6394
     -1660.2664
 -13418499.17049 -10442099.46448  20190413.0064   20190409.7644
      1785.4384
   3723719.36949   2901461.63948  20842292.4124   20842289.2404
     -2046.5474
  -6444877.43549  -5009707.17947  22623876.6314   22623874.5024
       717.9384
  -6640886.51749  -5168455.50648  20100572.4594   20100569.4794
       639.4844
 -11292153.26049  -8795237.58547  21915334.8504   21915329.7684
       703.9384
 -11559639.00249  -9001513.93147  21742310.0534   21742306.7604
      3062.9384
 04  9 14 22  9 44.9980000  0  7G 3G 8G13G10G27G19G28
     96662.03149     80024.13247  23192302.5614   23192301.2404
     -1667.9374
 -13445253.47149 -10462946.97248  20185321.7324   20185318.7724
      1781.6724
   3754468.18849   2925421.73148  20848143.9754   20848140.4244
     -2053.2974
  -6455574.21349  -5018042.33647  22621840.8114   22621838.4824
       708.2664
  -6650453.71349  -5175910.46248  20098751.9514   20098748.5024
       636.0474
 -11302642.00149  -8803410.62547  21913338.8894   21913333.9714
       694.5784
 -11605546.00249  -9037285.59347  21733574.0614   21733571.0884
      3057.9844
 04  9 14 22  9 59.9980000  0  7G 3G 8G13G10G27G19G28
    121739.14749     99564.73947  23197074.6934   23197073.1784
     -1675.5004
 -13471949.76949 -10483749.27048  20180241.2874   20180238.3614
      1778.0004
   3785317.91049   2949460.45348  20854014.2324   20854010.8814
     -2059.8444
  -6466126.59249  -5026264.95847  22619833.1474   22619830.3264
       698.9064
  -6659970.20349  -5183325.90748  20096940.9984   20096937.5254
       632.9224
 -11312989.89749  -8811473.91148  21911369.5684   21911365.1354
       685.3134
 -11651378.55549  -9072999.23447  21724852.4434   21724849.1154
      3053.1884
 04  9 14 22 10 14.9980000  0  7G 3G 8G13G10G27G19G28
    146930.04749    119193.96047  23201868.2094   23201866.4634
     -1683.1094
 -13498590.91349 -10504508.59448  20175171.7954   20175168.4434
      1774.2034
   3816265.56049   2973575.49848  20859903.5614   20859899.7994
     -2066.3754
  -6476537.46549  -5034377.32347  22617852.0144   22617849.8114
       689.3594
  -6669438.86649  -5190704.08648  20095139.0764   20095136.0454
       629.6884
 -11323199.92049  -8819429.77448  21909426.9204   21909422.3614
       676.1414
 -11697139.46249  -9108657.06247  21716144.4984   21716141.2324
      3048.3134
 04  9 14 22 10 29.9980000  0  7G 3G 8G13G10G27G19G28
    172238.33049    138914.71147  23206684.3654   23206682.9824
     -1691.1414
 -13525172.77949 -10525221.73048  20170113.7174   20170110.5254
      1770.0784
   3847314.73749   2997769.62948  20865811.5684   20865808.5454
     -2073.3914
  -6486803.02449  -5042376.47047  22615898.4824   22615896.1194
       679.4694
  -6678855.71849  -5198041.89948  20093347.1544   20093343.6474
       626.0004
 -11333267.97949  -8827275.00548  21907510.7404   21907506.4864
       666.4384
 -11742824.79749  -9144255.99447  21707450.8974   21707447.5684
      3043.0944
 04  9 14 22 10 44.9980000  0  7G 3G 8G13G10G27G19G28
    197663.46049    158726.47447  23211522.5064   23211521.0534
     -1698.8284
 -13551695.55049 -10545888.81548  20165066.5294   20165063.4004
      1766.2504
   3878465.20049   3022042.70348  20871739.4204   20871736.1934
     -2080.0314
  -6496923.55149  -5050262.58047  22613972.4824   22613970.4474
       669.9384
  -6688220.95949  -5205339.47748  20091564.9594   20091561.9514
       622.7194
 -11343194.24549  -8835009.75047  21905621.5224   21905617.5104
       657.0474
 -11788434.53949  -9179796.01947  21698771.5294   21698768.1974
      3038.2034
 04  9 14 22 10 59.9980000  0  7G 3G 8G13G10G27G19G28
    223204.30149    178628.39747  23216383.0224   23216381.7254
     -1706.6254
 -13578159.96349 -10566510.42248  20160030.2874   20160027.1394
      1762.2974
   3909715.78849   3046393.78448  20877686.5454   20877682.7724
     -2086.8124
  -6506899.96149  -5058036.40647  22612073.9044   22612071.5804
       660.2194
  -6697535.37849  -5212597.47748  20089792.5454   20089789.1194
       619.2194
 -11352979.51449  -8842634.63547  21903759.4594   21903755.1504
       647.5944
 -11833969.49349  -9215277.77347  21690106.8114   21690103.4084
      3033.0784
 04  9 14 22 11 14.9980000  0  7G 3G 8G13G10G27G19G28
    248859.84949    198619.68647  23221265.2484   23221263.4084
     -1714.2344
 -13604566.87649 -10587087.23748  20155005.5294   20155001.8144
      1758.4384
   3941065.39749   3070822.02848  20883652.1474   20883648.8114
     -2093.3444
  -6516732.99349  -5065698.51347  22610203.0454   22610200.6824
       650.7504
  -6706799.75549  -5219816.47448  20088029.7954   20088026.3774
       615.8444
 -11362624.59249  -8850150.27847  21901924.3424   21901919.8614
       638.1884
 -11879430.44949  -9250701.86747  21681455.3574   21681452.2364
      3028.1414
 04  9 14 22 11 29.9980000  0  7G 3G 8G13G10G27G19G28
    274629.85749    218700.21047  23226168.6544   23226167.6154
     -1722.0004
 -13630916.06949 -10607619.06848  20149991.2874   20149988.1154
      1754.5164
   3972513.88749   3095327.32748  20889636.6544   20889633.4164
     -2100.0164
  -6526422.77649  -5073248.97347  22608359.1624   22608356.1894
       641.0474
  -6716014.02049  -5226996.42448  20086276.4754   20086272.9944
       612.4534
 -11372129.36349  -8857556.59247  21900115.9044   21900111.4204
       628.7814
 -11924817.16249  -9286068.12047  21672818.7644   21672815.2754
      3023.1414
 04  9 14 22 11 44.9980000  0  7G 3G 8G13G10G27G19G28
    300516.05549    238871.28447  23231094.5614   23231093.5964
     -1729.5624
 -13657205.54449 -10628104.36148  20144988.2254   20144985.3934
      1750.6254
   4004063.23349   3119911.22248  20895640.5144   20895636.9714
     -2106.6564
  -6535967.25649  -5080686.24847  22606542.4674   22606540.2644
       631.4694
  -6725176.07049  -5234135.68748  20084532.7954   20084528.9634
       609.0944
 -11381491.67449  -8864851.89347  21898334.5224   21898329.4904
       619.4384
 -11970127.47749  -9321374.81747  21664196.3894   21664193.4244
      3018.1564
 04  9 14 22 11 59.9980000  0  7G 3G 8G13G10G27G19G28
    326516.49449    259131.33247  23236042.1624   23236041.8304
     -1737.1564
 -13683437.18349 -10648544.59448  20139996.8894   20139993.2444
      1746.9064
   4035711.45349   3144572.13548  20901662.9594   20901659.6504
     -2113.1254
  -6545368.19749  -5088011.65947  22604753.8264   22604751.4364
       622.0314
  -6734287.60549  -5241235.58848  20082799.1154   20082795.6864
       605.7814
 -11390713.26249  -8872037.53347  21896579.0454   21896574.6704
       610.0784
 -12015363.08749  -9356623.32947  21655588.4904   21655584.9474
      3013.1884
 04  9 14 22 12 14.9980000  0  7G 3G 8G13G10G27G19G28
    352631.05149    279480.32047  23241012.7874   23241011.3774
     -1744.7664
 -13709610.50249 -10668939.38248  20135016.2794   20135012.9364
      1742.8444
   4067458.53349   3169310.10548  20907704.0924   20907700.7484
     -2119.8124
  -6554625.41049  -5095225.04247  22602991.8504   22602989.6974
       612.3914
  -6743348.27649  -5248295.84148  20081074.9824   20081071.3344
       602.3754
 -11399793.86049  -8879113.33248  21894850.9124   21894847.2404
       600.6254
 -12060523.66449  -9391813.36447  21646994.6934   21646991.3464
      3008.1724
 04  9 14 22 12 29.9980000  0  7G 3G 8G13G10G27G19G28
    378858.06849    299916.93547  23246003.0064   23246002.3464
     -1752.2974
 -13735726.72149 -10689289.67348  20130046.2174   20130043.3544
      1739.1254
   4099302.91049   3194123.88848  20913763.4904   20913760.0334
     -2126.2814
  -6563740.37549  -5102327.61847  22601257.2094   22601255.1234
       602.8594
  -6752359.44449  -5255317.53948  20079359.9434   20079356.7484
       598.9844
 -11408734.80449  -8886080.28548  21893150.2014   21893145.6354
       591.3444
 -12105610.46049  -9426945.90747  21638414.3974   21638411.9004
      3003.2504
 04  9 14 22 12 44.9980000  0  7G 3G 8G13G10G27G19G28
    405199.14149    320442.43247  23251015.9434   23251014.2134
     -1759.8124
 -13761784.17649 -10709594.17548  20125087.8034   20125084.8034
      1735.1884
   4131246.31049   3219014.82748  20919842.4904   20919839.6864
     -2132.9064
  -6572711.22949  -5109317.90547  22599550.5374   22599547.9434
       593.2034
  -6761319.24249  -5262299.19748  20077655.2174   20077651.8504
       595.5474
 -11417534.18949  -8892936.95247  21891475.4204   21891471.1354
       581.8914
 -12150621.53849  -9462019.44947  21629849.6154   21629846.3034
      2998.2664
 04  9 14 22 12 59.9980000  0  7G 3G 8G13G10G27G19G28
    431653.41849    341056.15147  23256049.2324   23256048.1234
     -1767.3284
 -13787783.35449 -10729853.27248  20120140.3114   20120136.9124
      1731.2974
   4163287.71649   3243982.12448  20925939.7254   20925936.8894
     -2139.3284
  -6581538.75949  -5116196.50147  22597870.9434   22597868.0104
       583.7664
  -6770228.29449  -5269241.31648  20075959.6314   20075956.0574
       592.3134
 -11426192.65549  -8899683.80548  21889827.5844   21889823.3934
       572.5474
 -12195557.53749  -9497034.48047  21621298.4754   21621294.8074
      2993.2504
 04  9 14 22 13 14.9980000  0  7G 3G 8G13G10G27G19G28
    458221.92449    361758.83347  23261105.2174   23261104.1194
     -1775.1254
 -13813722.81749 -10750065.83848  20115204.2404   20115200.8224
      1727.2504
   4195428.40949   3269026.80048  20932055.9204   20932052.6584
     -2146.1414
  -6590221.73549  -5122962.43947  22596218.1234   22596215.5884
       574.0784
  -6779085.13249  -5276142.75448  20074274.3264   20074270.4634
       588.6254
 -11434708.68949  -8906319.67347  21888207.0224   21888202.6504
       562.9224
 -12240416.93949  -9531989.84147  21612761.7254   21612758.0104
      2988.0164
 04  9 14 22 13 29.9980000  0  7G 3G 8G13G10G27G19G28
    484904.59049    382550.52947  23266183.2094   23266182.4984
     -1782.6724
 -13839602.31049 -10770231.66248  20110279.4204   20110276.2914
      1723.2974
   4227668.28349   3294148.75748  20938191.1934   20938188.1784
     -2152.7194
  -6598759.90449  -5129615.56747  22594593.8114   22594591.1074
       564.3914
  -6787889.52949  -5283003.32048  20072599.0294   20072595.1544
       585.1254
 -11443082.13849  -8912844.43447  21886614.4044   21886609.2724
       553.4844
 -12285199.49249  -9566885.30147  21604240.0454   21604236.4984
      2982.9694
 04  9 14 22 13 44.9980000  0  7G 3G 8G13G10G27G19G28
    511700.54649    403430.45047  23271282.0684   23271281.0574
     -1790.1564
 -13865422.30949 -10790351.13448  20105366.1004   20105362.7874
      1719.3594
   4260006.65149   3319347.47648  20944344.5684   20944341.4864
     -2159.1094
  -6607153.94149  -5136156.37647  22592996.2794   22592993.7214
       554.7034
  -6796641.94049  -5289823.38048  20070933.4364   20070929.8384
       581.7344
 -11451313.57649  -8919258.53348  21885047.4824   21885042.8854
       544.0944
 -12329905.61149  -9601721.21247  21595732.9824   21595728.5804
      2977.8594
 04  9 14 22 13 59.9980000  0  7G 3G 8G13G10G27G19G28
    538609.02449    424398.07147  23276402.4044   23276401.7174
     -1797.7814
 -13891183.33749 -10810424.65548  20100463.9904   20100460.4554
      1715.3444
   4292442.88349   3344622.42548  20950517.3894   20950514.2724
     -2165.7664
  -6615404.36349  -5142585.24447  22591425.9754   22591423.9674
       545.2504
  -6805342.81249  -5296603.27748  20069277.8424   20069273.9674
       578.2504
 -11459403.28049  -8925562.19847  21883508.1934   21883503.2644
       534.5944
 -12374535.59049  -9636497.79347  21587240.0454   21587236.5534
      2972.7344
 04  9 14 22 14 14.9980000  0  7G 3G 8G13G10G27G19G28
    565632.16049    445455.06347  23281545.0294   23281543.4824
     -1805.0944
 -13916883.11649 -10830450.44748  20095573.2644   20095570.1704
      1711.5164
   4324979.16849   3369975.36248  20956708.6934   20956705.5144
     -2172.1874
  -6623508.88349  -5148900.44947  22589884.1394   22589881.5884
       535.7034
  -6813989.77349  -5303341.17248  20067632.1074   20067628.7444
       574.9224
 -11467348.82649  -8931753.51947  21881995.7324   21881991.5614
       525.0944
 -12419086.93249  -9671213.09447  21578762.1704   21578758.1154
      2967.6564
 04  9 14 22 14 29.9980000  0  7G 3G 8G13G10G27G19G28
    592766.43049    466598.63747  23286708.4754   23286707.2054
     -1812.6874
 -13942524.58549 -10850430.80348  20090694.0454   20090690.5574
      1707.5314
   4357611.97449   3395403.49548  20962918.8734   20962915.6824
     -2178.7504
  -6631470.94249  -5155104.65747  22588369.5454   22588366.6664
       526.0784
  -6822586.00149  -5310039.52648  20065996.7094   20065992.9434
       571.3754
 -11475153.53749  -8937835.10947  21880510.7484   21880506.5644
       515.6254
 -12463562.94449  -9705869.70547  21570298.5224   21570295.2254
      2962.5634
 04  9 14 22 14 44.9980000  0  7G 3G 8G13G10G27G19G28
    620012.39449    487829.24347  23291892.4204   23291891.4754
     -1820.0474
 -13968106.87249 -10870365.04948  20085825.9124   20085822.4284
      1703.5004
   4390342.00649   3420907.39148  20969146.7724   20969143.8974
     -2185.2664
  -6639289.59249  -5161197.12147  22586881.5454   22586878.9904
       516.3594
  -6831130.46049  -5316697.55248  20064370.4594   20064366.7954
       567.8594
 -11482816.39249  -8943806.16347  21879052.5684   21879048.1474
       506.1094
 -12507962.56249  -9740466.79147  21561849.5064   21561845.7954
      2957.3914
 04  9 14 22 14 59.9980000  0  7G 3G 8G13G10G27G19G28
    647369.42549    509146.38447  23297098.6234   23297098.1004
     -1827.4534
 -13993630.14949 -10890253.31748  20080968.9044   20080965.7724
      1699.6254
   4423168.64449   3446486.57248  20975393.2724   20975390.3504
     -2191.6254
  -6646965.31549  -5167178.20347  22585420.1544   22585417.6044
       506.9694
  -6839623.54049  -5323315.53748  20062754.4904   20062750.8654
       564.5784
 -11490337.69349  -8949666.90947  21877621.2094   21877616.7014
       496.7504
 -12552286.08849  -9775004.57147  21553414.9594   21553411.8544
      2952.3284
 04  9 14 22 15 14.9980000  0  7G 3G 8G13G10G27G19G28
    674838.07149    530550.49347  23302326.3034   23302324.5644
     -1834.8594
 -14019093.67749 -10910095.01648  20076123.4514   20076119.9364
      1695.6564
   4456092.43049   3472141.44148  20981658.7254   20981655.8894
     -2198.1094
  -6654497.29449  -5173047.25647  22583986.9284   22583984.6314
       497.4064
  -6848064.31149  -5329892.76148  20061148.0924   20061144.6744
       561.0634
 -11497716.71449  -8955416.79447  21876217.3344   21876212.4434
       487.2664
 -12596532.64949  -9809482.38047  21544994.7014   21544991.7724
      2947.2504
 04  9 14 22 15 29.9980000  0  7G 3G 8G13G10G27G19G28
    702418.12249    552041.42947  23307574.6074   23307573.1314
     -1842.4694
 -14044497.30749 -10929890.04648  20071289.1004   20071286.0024
      1691.5634
   4489113.47949   3497872.10348  20987942.1704   20987939.6864
     -2204.7194
  -6661885.50749  -5178804.31447  22582581.2174   22582578.9164
       487.7344
  -6856452.60749  -5336429.09148  20059551.1864   20059548.3894
       557.4384
 -11504953.21149  -8961055.61647  21874840.0454   21874835.6004
       477.6564
 -12640701.93949  -9843899.97747  21536589.9594   21536586.5024
      2942.0164
 04  9 14 22 15 44.9980000  0  7G 3G 8G13G10G27G19G28
    730108.39349    573618.23047  23312843.5224   23312842.4284
     -1849.7344
 -14069841.79749 -10949638.99748  20066466.2724   20066463.1744
      1687.6564
   4522230.44249   3523677.51048  20994244.4674   20994241.2604
     -2211.0474
  -6669131.00049  -5184450.15047  22581202.0534   22581200.4364
       478.2344
  -6864789.41149  -5342925.31548  20057965.2484   20057961.9394
       554.0164
 -11512048.10649  -8966584.09947  21873489.9514   21873485.2644
       468.1884
 -12684794.83949  -9878258.06947  21528199.4594   21528196.1544
      2936.9384
 04  9 14 22 15 59.9980000  0  7G 3G 8G13G10G27G19G28
    757907.72349    595280.03547  23318133.6154   23318132.3974
     -1856.8124
 -14095127.87149 -10969342.41848  20061654.5224   20061650.9324
      1683.8594
   4555442.51749   3549557.02048  21000564.5144   21000561.4944
     -2217.2814
  -6676234.69249  -5189985.48747  22579850.3034   22579848.2364
       468.9224
  -6873075.47449  -5349381.97648  20056388.5534   20056384.8654
       550.7504
 -11519002.13549  -8972002.82348  21872166.8974   21872162.0884
       458.8914
 -12728812.10349  -9912557.19647  21519823.2794   21519820.0494
      2931.9844
 04  9 14 22 16 14.9980000  0  7G 3G 8G13G10G27G19G28
    785818.50249    617028.67247  23323445.2954   23323443.7254
     -1864.5314
 -14120353.25449 -10988998.56048  20056854.4124   20056850.9594
      1679.5314
   4588751.86949   3575512.34048  21006903.2404   21006900.0844
     -2223.9534
  -6683194.01349  -5195408.34147  22578526.6784   22578524.2054
       459.0634
  -6881308.02649  -5355796.95048  20054822.1544   20054818.4164
       546.9844
 -11525812.80249  -8977309.82647  21870870.2874   21870866.0374
       449.1884
 -12772751.10949  -9946795.35547  21511461.4984   21511458.3184
      2926.5784
 04  9 14 22 16 29.9980000  0  7G 3G 8G13G10G27G19G28
    813839.67249    638863.32147  23328777.5924   23328775.9794
     -1871.6094
 -14145518.31849 -11008607.69348  20052065.6784   20052062.4124
      1675.8134
   4622157.58849   3601542.75148  21013259.7014   21013257.0804
     -2230.0944
  -6690009.87149  -5200719.39347  22577229.3344   22577227.0614
       449.7974
  -6889487.78049  -5362170.78448  20053265.2094   20053261.8504
       543.6724
 -11532480.79149  -8982505.64847  21869601.5144   21869597.1974
       439.9694
 -12816612.47749  -9980973.01547  21503115.3894   21503112.2324
      2921.6414
 04  9 14 22 16 44.9980000  0  7G 3G 8G13G10G27G19G28
    841968.47549    660781.83047  23334129.9284   23334128.8854
     -1878.8594
 -14170625.50349 -11028171.71648  20047287.9124   20047284.5964
      1671.8284
   4655657.05749   3627646.21148  21019634.5534   21019631.7994
     -2236.4694
  -6696684.74449  -5205920.57747  22575958.9364   22575956.4124
       440.2974
  -6897617.17549  -5368505.38248  20051718.3264   20051715.1434
       540.2814
 -11539008.55849  -8987592.21547  21868359.6784   21868354.8814
       430.4534
 -12860398.48249 -10015091.95547  21494783.3504   21494779.7404
      2916.5314
 04  9 14 22 16 59.9980000  0  7G 3G 8G13G10G27G19G28
    870207.35949    682786.17347  23339503.6474   23339502.4124
     -1886.1724
 -14195671.80849 -11047688.31548  20042521.8574   20042518.7404
      1667.7664
   4689252.84949   3653824.73248  21026027.7254   21026025.2094
     -2242.9064
  -6703215.87949  -5211009.78347  22574716.2484   22574713.9394
       430.6094
  -6905693.46349  -5374798.58848  20050181.5534   20050177.7054
       536.6414
 -11545393.18449  -8992567.23847  21867144.4754   21867139.6004
       420.8594
 -12904106.26849 -10049149.94948  21486465.5614   21486462.2834
      2911.2814
 04  9 14 22 17 14.9980000  0  7G 3G 8G13G10G27G19G28
    898557.05449    704876.83347  23344898.6474   23344897.3264
     -1893.6724
 -14220656.51749 -11067156.91748  20037767.2404   20037763.8184
      1663.5164
   4722945.77649   3680078.93548  21032439.5764   21032436.6394
     -2249.5784
  -6709602.32649  -5215986.24647  22573500.6864   22573498.8934
       420.7814
  -6913715.43249  -5381049.47648  20048655.1234   20048651.7834
       532.9064
 -11551633.57049  -8997429.87847  21865957.1394   21865952.5334
       411.1254
 -12947734.84949 -10083146.21147  21478163.5844   21478159.8034
      2905.8754
 04  9 14 22 17 29.9980000  0  7G 3G 8G13G10G27G19G28
    927016.07649    727052.66247  23350314.7644   23350312.8344
     -1900.9374
 -14245580.31349 -11086578.04248  20033024.7014   20033021.1744
      1659.5314
   4756734.39049   3706407.70548  21038869.2794   21038866.1974
     -2255.7814
  -6715845.38749  -5220850.97647  22572312.7254   22572311.3424
       411.3914
  -6921684.28649  -5387258.96748  20047138.3894   20047135.1434
       529.5004
 -11557731.07649  -9002181.16647  21864796.9904   21864792.8344
       401.6884
 -12991285.19849 -10117081.52447  21469876.1074   21469872.8734
      2900.7344
 04  9 14 22 17 44.9980000  0  7G 3G 8G13G10G27G19G28
    955583.93249    749313.30447  23355749.9044   23355749.3304
     -1908.2034
 -14270443.78649 -11105952.17248  20028293.3574   20028289.1934
      1655.4694
   4790618.30049   3732810.72648  21045317.0534   21045314.2174
     -2262.2034
  -6721945.54249  -5225604.32147  22571151.5534   22571150.2444
       401.7974
  -6929600.11449  -5393427.13548  20045632.1394   20045628.8384
       525.8284
 -11563685.89849  -9006821.28847  21863663.6004   21863658.2134
       392.2344
 -13034757.52449 -10150956.03748  21461603.8424   21461600.3144
      2895.5004
 04  9 14 22 17 59.9980000  0  7G 3G 8G13G10G27G19G28
    984260.68249    771658.80946  23361207.7954   23361206.6474
     -1915.3444
 -14295246.25349 -11125278.76148  20023573.0684   20023569.7484
      1651.5004
   4824597.62349   3759288.08748  21051783.0684   21051780.4864
     -2268.4224
  -6727902.42749  -5230246.04547  22570018.5844   22570016.2604
       392.4064
  -6937462.64949  -5399553.79048  20044136.2094   20044132.5684
       522.4384
 -11569497.59349  -9011349.87747  21862557.6544   21862553.1974
       382.6414
 -13078151.37549 -10184769.40647  21453345.9124   21453342.7364
      2890.3444
 04  9 14 22 18 14.9980000  0  7G 3G 8G13G10G27G19G28
   1013046.24249    794089.06647  23366685.0374   23366685.0684
     -1922.6254
 -14319987.76549 -11144557.84848  20018865.0454   20018861.7524
      1647.3914
   4858672.22549   3785839.71148  21058267.3034   21058263.9474
     -2274.8284
  -6733715.92149  -5234776.04247  22568911.6934   22568909.6784
       382.7814
  -6945271.51749  -5405638.62048  20042650.3114   20042646.2174
       518.8284
 -11575165.98349  -9015766.78947  21861478.7794   21861474.6584
       373.1254
 -13121466.56049 -10218521.46547  21445103.1624   21445100.1394
      2885.0474
 04  9 14 22 18 29.9980000  0  7G 3G 8G13G10G27G19G28
   1041941.24049    816604.64247  23372184.1314   23372183.5964
     -1929.8754
 -14344667.06949 -11163788.47248  20014168.9434   20014165.6434
      1643.2814
   4892842.91849   3812466.20448  21064769.5224   21064766.4904
     -2281.1414
  -6739385.24649  -5239193.68947  22567833.4124   22567830.8934
       373.2974
  -6953025.72449  -5411680.85848  20041174.4284   20041171.2054
       515.1884
 -11580689.95949  -9020071.18247  21860427.8814   21860423.4514
       363.5314
 -13164701.84849 -10252211.27147  21436876.1474   21436872.5454
      2879.8134
 04  9 14 22 18 44.9980000  0  7G 3G 8G13G10G27G19G28
   1070944.10449    839204.30347  23377702.9364   23377702.3574
     -1937.1094
 -14369285.45949 -11182971.62548  20009484.1234   20009480.7564
      1639.2194
   4927108.30249   3839166.47548  21071290.1704   21071287.1234
     -2287.5474
  -6744911.72149  -5243500.04847  22566781.2094   22566779.4164
       363.6414
  -6960726.53949  -5417681.50648  20039708.8424   20039705.5414
       511.6414
 -11586071.03149  -9024264.21947  21859403.9594   21859399.6864
       353.9694
 -13207858.64749 -10285839.92447  21428663.3814   21428659.8774
      2874.5314
 04  9 14 22 18 59.9980000  0  7G 3G 8G13G10G27G19G28
   1100054.63749    861887.80447  23383242.0844   23383241.0334
     -1944.2034
 -14393842.72249 -11202107.15048  20004810.9754   20004807.4984
      1635.1254
   4961468.09649   3865940.32548  21077828.9754   21077825.7484
     -2293.8754
  -6750295.39249  -5247695.11147  22565757.2014   22565755.0224
       354.1094
  -6968373.75749  -5423640.36448  20038253.9364   20038250.3814
       508.0474
 -11591309.06849  -9028345.80347  21858406.6314   21858402.6544
       344.3914
 -13250936.69649 -10319407.20648  21420465.9754   21420462.6154
      2869.2034
 04  9 14 22 19 14.9980000  0  7G 3G 8G13G10G27G19G28
   1129271.91149    884654.52047  23388802.1074   23388801.3114
     -1951.4534
 -14418339.55449 -11221195.57748  20000149.4044   20000146.2484
      1630.9534
   4995921.47749   3892787.09148  21084384.9204   21084381.7604
     -2300.1724
  -6755536.95549  -5251779.44047  22564759.7644   22564757.5534
       344.5474
  -6975968.06249  -5429558.00148  20036808.6784   20036804.8774
       504.3284
 -11596404.59249  -9032316.33547  21857437.5764   21857432.5064
       334.7664
 -13293936.50549 -10352913.52048  21412283.2954   21412279.6194
      2863.9064
 04  9 14 22 19 29.9980000  0  7G 3G 8G13G10G27G19G28
   1158596.65949    907504.91747  23394382.6474   23394381.9044
     -1958.5004
 -14442774.51649 -11240235.79248  19995499.6074   19995496.0144
      1626.9844
   5030469.37549   3919707.51248  21090959.1784   21090955.9084
     -2306.3444
  -6760635.34249  -5255752.23047  22563789.4594   22563787.6824
       335.1414
  -6983508.18349  -5435433.42248  20035373.9904   20035370.5184
       500.9224
 -11601356.52749  -9036174.98447  21856494.9824   21856490.0844
       325.3914
 -13336856.94349 -10386357.99747  21404115.9284   21404112.5844
      2858.7814
 04  9 14 22 19 44.9980000  0  7G 3G 8G13G10G27G19G28
   1188027.86149    930438.30947  23399982.9204   23399982.7094
     -1965.6724
 -14467148.51049 -11259228.51148  19990861.2794   19990858.1074
      1622.9224
   5065110.63249   3946700.67148  21097551.3814   21097548.6664
     -2312.5004
  -6765591.48049  -5259614.13247  22562846.0614   22562844.2254
       325.7814
  -6990994.93149  -5441267.25448  20033948.9674   20033945.5804
       497.3594
 -11606165.59549  -9039922.29447  21855579.9434   21855575.4754
       315.8754
 -13379698.64849 -10419741.11648  21395963.3574   21395959.5844
      2853.5634
 04  9 14 22 19 59.9980000  0  7G 3G 8G13G10G27G19G28
   1217565.40749    953454.55446  23405603.8184   23405603.2054
     -1972.7344
 -14491461.34049 -11278173.56848  19986234.6074   19986231.4364
      1618.7664
   5099845.44849   3973766.73948  21104161.1154   21104158.4284
     -2318.7814
  -6770405.23449  -5263365.12447  22561930.4904   22561928.8654
       316.1094
  -6998427.92649  -5447059.19548  20032534.8184   20032530.9244
       493.7194
 -11610831.54549  -9043558.09747  21854692.3344   21854687.7214
       306.2344
 -13422461.41149 -10453062.72548  21387825.7484   21387822.3304
      2848.1724
 04  9 14 22 20 14.9980000  0  7G 3G 8G13G10G27G19G28
   1247209.71149    976554.03146  23411245.4904   23411244.1544
     -1979.7974
 -14515712.19549 -11297070.32748  19981620.1004   19981616.7754
      1614.7034
   5134674.16949   4000905.98648  21110788.6474   21110785.9324
     -2324.9844
  -6775076.03649  -5267004.72147  22561041.5764   22561039.6114
       306.6564
  -7005806.46949  -5452808.69248  20031130.5924   20031126.9004
       490.1564
 -11615353.79149  -9047081.92247  21853831.7644   21853826.7914
       296.7814
 -13465144.41449 -10486322.17548  21379703.3734   21379699.8114
      2842.9064
 04  9 14 22 20 29.9980000  0  7G 3G 8G13G10G27G19G28
   1276960.01749    999736.11446  23416906.6624   23416905.4124
     -1986.9374
 -14539901.47649 -11315919.11848  19977016.7404   19977013.5454
      1610.4844
   5169596.18549   4028117.91548  21117434.2644   21117431.4284
     -2331.3594
  -6779604.38249  -5270533.28947  22560179.7564   22560177.9754
       297.0944
  -7013131.02149  -5458516.14448  20029736.6864   20029733.2174
       486.4224
 -11619732.76649  -9050494.10047  21852998.2794   21852992.7994
       287.0784
 -13507748.03149 -10519519.77348  21371596.2324   21371592.7954
      2837.5004
 04  9 14 22 20 44.9980000  0  6G 8G13G10G27G19G28
 -14564030.16249 -11334720.67048  19972425.5224   19972422.0884
      1606.6254
   5204610.07249   4055401.45348  21124097.3894   21124093.9364
     -2337.3124
  -6783991.59249  -5273951.88447  22559344.8504   22559343.1934
       287.7814
  -7020402.60749  -5464182.30848  20028353.0454   20028349.4634
       483.0314
 -11623969.53349  -9053795.46647  21852192.4434   21852187.1044
       277.7974
 -13550273.28649 -10552656.31247  21363503.8504   21363500.2254
      2832.4534
 04  9 14 22 20 59.9980000  0  6G 8G13G10G27G19G28
 -14588097.59049 -11353474.50948  19967845.2874   19967842.5064
      1602.5004
   5239716.37849   4082756.99748  21130777.9984   21130775.2524
     -2343.3914
  -6788237.06349  -5277260.05447  22558536.9204   22558534.8034
       278.3914
  -7027620.33049  -5469806.50248  20026979.4904   20026975.8504
       479.4224
 -11628063.46549  -9056985.54447  21851412.9824   21851407.9394
       268.1724
 -13592719.37349 -10585731.16548  21355426.8344   21355423.1824
      2827.0944
 04  9 14 22 21 14.9980000  0  6G 8G13G10G27G19G28
 -14612103.44249 -11372180.36148  19963276.9984   19963273.8504
      1598.3594
   5274915.14049   4110184.57948  21137476.4204   21137473.0414
     -2349.5944
  -6792340.56849  -5280457.57847  22557756.4754   22557753.8694
       268.8134
  -7034783.92749  -5475388.52448  20025616.4124   20025612.7604
       475.8444
 -11632014.17549  -9060064.00948  21850661.0534   21850656.2874
       258.6254
 -13635086.00649 -10618744.09247  21347364.5614   21347361.0534
      2821.8444
 04  9 14 22 21 29.9980000  0  6G 8G13G10G27G19G28
 -14636046.96849 -11390837.64848  19958721.0064   19958717.6394
      1594.1254
   5310206.71249   4137684.48848  21144191.4364   21144188.8694
     -2355.8594
  -6796301.69749  -5283544.16647  22557002.5454   22557000.2094
       259.3444
  -7041892.88549  -5480927.97348  20024263.6474   20024260.2214
       472.0784
 -11635820.98749  -9063030.35147  21849936.8974   21849932.4434
       248.9844
 -13677372.44149 -10651694.53748  21339317.9284   21339313.9554
      2816.4224
 04  9 14 22 21 44.9980000  0  6G 8G13G10G27G19G28
 -14659928.90649 -11409446.94348  19954176.2324   19954173.0454
      1590.0314
   5345590.22949   4165256.03148  21150925.0684   21150921.9634
     -2361.9844
  -6800121.39849  -5286520.57347  22556275.8654   22556273.2134
       249.9384
  -7048947.65149  -5486425.19248  20022920.8574   20022917.4794
       468.5164
 -11639484.83549  -9065885.29047  21849239.5144   21849234.6584
       239.5944
 -13719579.40149 -10684583.05548  21331286.0614   21331282.3774
      2811.1254
 04  9 14 22 21 59.9980000  0  6G 8G13G10G27G19G28
 -14683748.07349 -11428007.32148  19949644.0374   19949641.0184
      1585.8914
   5381066.40049   4192899.77648  21157675.7874   21157673.0104
     -2368.0164
  -6803798.61149  -5289385.92647  22555575.4824   22555573.9084
       240.4384
  -7055947.33349  -5491879.48248  20021589.0374   20021585.9434
       464.9694
 -11643004.58149  -9068627.94047  21848569.9904   21848565.5254
       229.8914
 -13761705.74749 -10717408.75447  21323269.6934   21323265.8774
      2805.8284
 04  9 14 22 22 14.9980000  0  6G 8G13G10G27G19G28
 -14707504.21149 -11446518.59048  19945122.9754   19945119.9754
      1581.5944
   5416635.13149   4220615.64548  21164444.4904   21164441.6624
     -2374.3444
  -6807333.24949  -5292140.18747  22554903.1544   22554901.1314
       230.8134
  -7062891.58249  -5497290.58548  20020267.6934   20020264.3774
       461.0784
 -11646380.14349  -9071258.25047  21847927.5144   21847923.0414
       220.2194
 -13803751.19049 -10750171.41047  21315268.6154   21315264.8074
      2800.3444
 04  9 14 22 22 29.9980000  0  6G 8G13G10G27G19G28
 -14731197.88749 -11464981.18648  19940614.4674   19940611.2994
      1577.5944
   5452295.66149   4248403.05748  21171230.3114   21171227.5334
     -2380.3284
  -6810726.15649  -5294784.02047  22554257.5684   22554255.9204
       221.5784
  -7069780.99049  -5502658.94548  20018956.6624   20018953.2724
       457.6254
 -11649612.10949  -9073776.65247  21847312.4204   21847308.1114
       210.7194
 -13845716.26349 -10782871.44848  21307283.0924   21307279.0494
      2795.1094
 04  9 14 22 22 44.9980000  0  6G 8G13G10G27G19G28
 -14754830.42649 -11483396.14748  19936117.0684   19936113.4474
      1573.2504
   5488046.35849   4276260.71148  21178033.3504   21178030.7364
     -2386.5944
  -6813978.75149  -5297318.53147  22553638.6784   22553636.3304
       211.8914
  -7076616.75049  -5507985.51548  20017655.7254   20017652.4004
       453.7974
 -11652701.84149  -9076184.22848  21846724.8424   21846719.9714
       200.9844
 -13887602.34549 -10815509.93048  21299312.2484   21299308.7484
      2789.5634
 04  9 14 22 22 59.9980000  0  6G 8G13G10G27G19G28
 -14778399.49149 -11501761.64048  19931632.0374   19931629.2484
      1569.2504
   5523889.33849   4304190.29348  21184854.3574   21184850.9324
     -2392.5164
  -6817088.91649  -5299742.01847  22553047.1934   22553044.2364
       202.6724
  -7083396.66749  -5513268.56148  20016365.6004   20016362.3464
       450.2814
 -11655647.08849  -9078479.22648  21846164.1934   21846158.3304
       191.5944
 -13929407.05349 -10848085.00448  21291356.9364   21291353.2214
      2784.2974
 04  9 14 22 23 14.9980000  0  6G 8G13G10G27G19G28
 -14801905.75749 -11520078.21648  19927159.2644   19927155.8304
      1564.9384
   5559823.57849   4332190.97348  21191692.3034   21191689.3034
     -2398.6254
  -6820057.46949  -5302055.18847  22552481.9364   22552479.4044
       193.2344
  -7090121.37349  -5518508.59748  20015086.1784   20015082.9394
       446.5004
 -11658448.72849  -9080662.31848  21845630.9754   21845626.1474
       182.0634
 -13971131.03249 -10880597.17848  21283416.9364   21283413.6234
      2778.9534
 04  9 14 22 23 29.9980000  0  6G 8G13G10G27G19G28
 -14825349.77349 -11538346.26648  19922697.9904   19922694.3854
      1560.8594
   5595848.02249   4360261.94148  21198547.9754   21198544.5334
     -2404.7504
  -6822885.38949  -5304258.77147  22551943.9044   22551941.5534
       183.7344
  -7096791.62349  -5523706.18948  20013816.7324   20013813.5884
       442.8444
 -11661107.41149  -9082734.01348  21845124.9904   21845120.4824
       172.4224
 -14012775.00049 -10913046.99948  21275492.7404   21275489.1474
      2773.5784
 04  9 14 22 23 44.9980000  0  6G 8G13G10G27G19G28
 -14848732.62849 -11556566.67048  19918248.4124   19918244.7484
      1556.7194
   5631961.63349   4388402.40448  21205419.7874   21205417.0884
     -2410.6414
  -6825573.58549  -5306353.45447  22551432.0294   22551429.8544
       174.5784
  -7103408.14649  -5528861.91948  20012557.8184   20012554.1824
       439.2814
 -11663624.04849  -9084695.01648  21844646.2324   21844641.3224
       163.0314
 -14054339.74349 -10945435.09048  21267583.0374   21267579.0374
      2768.2504
 04  9 14 22 23 59.9980000  0  6G 8G13G10G27G19G28
 -14872052.61249 -11574738.06648  19913810.4674   19913807.5064
      1552.5474
   5668165.69949   4416613.33348  21212309.0684   21212305.8504
     -2416.6724
  -6828120.59949  -5308338.16047  22550947.7174   22550945.4164
       165.1414
  -7109969.23549  -5533974.45448  20011308.6864   20011305.3734
       435.5784
 -11665997.02949  -9086544.08248  21844194.4204   21844189.4204
       153.3914
 -14095823.59149 -10977760.13148  21259689.2324   21259685.5254
      2762.8914
 04  9 14 22 24 14.9980000  0  6G 8G13G10G27G19G28
 -14895310.38049 -11592861.00048  19909384.5294   19909381.1044
      1548.3914
   5704459.34449   4444894.06748  21219216.1234   21219212.8264
     -2422.6094
  -6830527.23349  -5310213.46747  22550489.5764   22550487.3304
       155.6564
  -7116475.60549  -5539044.35448  20010070.9514   20010067.7404
       431.9224
 -11668227.04749  -9088281.76148  21843770.4434   21843765.6504
       143.8594
 -14137227.05349 -11010022.55448  21251809.9044   21251806.4284
      2757.4844
 04  9 14 22 24 29.9980000  0  6G 8G13G10G27G19G28
 -14918506.02149 -11610935.52748  19904970.6544   19904967.4434
      1544.2814
   5740842.00049   4473244.17247  21226138.6934   21226135.8344
     -2428.5944
  -6832794.06249  -5311979.82147  22550058.2564   22550055.6434
       146.4064
  -7122927.56649  -5544071.85448  20008843.0764   20008839.9944
       428.2974
 -11670314.52849  -9089908.36548  21843372.8974   21843368.5764
       134.2974
 -14178550.54549 -11042222.65748  21243946.5764   21243942.6934
      2752.1414
 04  9 14 22 24 44.9980000  0  6G 8G13G10G27G19G28
 -14941639.30949 -11628961.45948  19900568.5764   19900564.9594
      1540.1724
   5777313.70649   4501663.65548  21233079.8814   21233076.2404
     -2434.4694
  -6834920.82549  -5313637.04047  22549653.3574   22549651.2954
       137.1564
  -7129324.79149  -5549056.70448  20007626.0844   20007622.6584
       424.7194
 -11672259.21549  -9091423.69348  21843002.8184   21842998.6974
       124.8284
 -14219793.73549 -11074360.18148  21236098.1864   21236094.1824
      2746.8914
 04  9 14 22 24 59.9980000  0  6G 8G13G10G27G19G28
 -14964709.72149 -11646938.38548  19896178.3894   19896175.3034
      1535.8914
   5813874.61349   4530152.65147  21240036.9044   21240033.9204
     -2440.3444
  -6836907.18749  -5315184.84947  22549275.6784   22549273.7294
       127.8134
  -7135666.73649  -5553998.48248  20006419.2874   20006415.7094
       420.9694
 -11674060.64149  -9092827.40748  21842660.1394   21842655.4324
       115.3914
 -14260956.09049 -11106434.72948  21228265.2794   21228261.6974
      2741.5634
 04  9 14 22 25 14.9980000  0  6G 8G13G10G27G19G28
 -14987718.05149 -11664866.94548  19891800.1934   19891796.8114
      1531.7344
   5850523.75349   4558710.40048  21247010.6704   21247008.6864
     -2446.2664
  -6838754.08149  -5316623.99047  22548924.0224   22548921.4904
       118.4224
  -7141954.04649  -5558897.67548  20005222.7094   20005219.1434
       417.3134
 -11675719.75349  -9094120.21848  21842344.3264   21842339.7324
       105.8594
 -14302038.32949 -11138446.83048  21220447.5294   21220443.8614
      2736.0314
 04  9 14 22 25 29.9980000  0  6G 8G13G10G27G19G28
 -15010664.24449 -11682747.09448  19887433.7014   19887430.2294
      1527.7974
   5887260.95549   4587336.75648  21254002.2014   21253998.8384
     -2451.9064
  -6840461.67549  -5317954.60547  22548598.9434   22548597.0494
       109.3444
  -7148186.68049  -5563754.28648  20004036.5144   20004033.2214
       413.8444
 -11677236.43749  -9095302.04048  21842055.5684   21842050.9204
        96.4844
 -14343040.40749 -11170396.47948  21212645.2484   21212641.2834
      2730.9224
 04  9 14 22 25 44.9980000  0  6G 8G13G10G27G19G28
 -15033548.24349 -11700578.77248  19883078.7794   19883075.2914
      1523.5314
   5924085.48549   4616031.17847  21261009.1864   21261006.2254
     -2457.8914
  -6842030.44049  -5319177.01147  22548300.8654   22548298.7994
        99.8594
  -7154364.90749  -5568568.48248  20002860.7254   20002857.3384
       409.9694
 -11678611.01349  -9096373.13448  21841793.9674   21841789.0494
        86.9064
 -14383962.41749 -11202283.73348  21204858.1234   21204853.9044
      2725.4694
 04  9 14 22 25 59.9980000  0  6G 8G13G10G27G19G28
 -15056368.97149 -11718361.15148  19878736.5764   19878733.1864
      1519.2814
   5960998.38549   4644794.45048  21268033.7014   21268030.5574
     -2463.7814
  -6843459.42149  -5320290.49947  22548028.7794   22548026.3614
        90.6564
  -7160487.56549  -5573339.38148  20001695.9364   20001692.2754
       406.2974
 -11679842.45249  -9097332.68848  21841559.7324   21841554.6624
        77.3444
 -14424803.23849 -11234107.72348  21197086.2324   21197082.1044
      2720.0164
 04  9 14 22 26 14.9980000  0  6G 8G13G10G27G19G28
 -15079129.02349 -11736096.25348  19874405.2014   19874401.7254
      1515.1724
   5997996.87149   4673624.41347  21275074.2564   21275071.1824
     -2469.5784
  -6844751.41049  -5321297.25247  22547782.8504   22547780.7134
        81.4384
  -7166557.11049  -5578068.89948  20000540.7324   20000537.5844
       402.7034
 -11680933.24449  -9098182.65148  21841351.7174   21841347.7794
        67.8594
 -14465565.50249 -11265870.51248  21189329.4514   21189325.4594
      2714.7194
 04  9 14 22 26 29.9980000  0  6G 8G13G10G27G19G28
 -15101825.01749 -11753781.43548  19870086.3814   19870082.9434
      1510.8284
   6035084.18949   4702523.60648  21282131.8034   21282128.7994
     -2475.5944
  -6845902.85849  -5322194.49547  22547563.8734   22547561.5224
        71.9534
  -7172569.99249  -5582754.25648  19999396.8184   19999393.4754
       398.7814
 -11681879.99749  -9098920.37348  21841171.9904   21841167.3074
        58.2504
 -14506245.46249 -11297569.15348  21181588.0144   21181584.4044
      2709.0944
 04  9 14 22 26 44.9980000  0  6G 8G13G10G27G19G28
 -15124459.54049 -11771418.72148  19865779.3574   19865775.7444
      1506.9694
   6072256.94849   4731489.36747  21289205.6074   21289202.6934
     -2481.0164
  -6846917.03949  -5322984.76147  22547370.7324   22547367.9794
        63.0944
  -7178529.11149  -5587397.71848  19998262.4824   19998258.9944
       395.5314
 -11682685.77349  -9099548.24848  21841018.4204   21841014.1234
        49.0474
 -14546846.06249 -11329205.96548  21173862.2254   21173858.3614
      2704.1414
 04  9 14 22 26 59.9980000  0  6G 8G13G10G27G19G28
 -15147033.51349 -11789008.82848  19861483.5844   19861479.9754
      1502.8284
   6109513.95749   4760520.76747  21296295.0294   21296292.2954
     -2486.7664
  -6847795.06649  -5323668.94947  22547203.5924   22547201.0024
        53.9224
  -7184435.54849  -5592000.14648  19997138.7484   19997135.2834
       391.8914
 -11683351.62749  -9100067.10448  21840891.6074   21840887.1234
        39.6564
 -14587368.33849 -11360781.73748  21166150.8264   21166146.9044
      2698.7664
 04  9 14 22 27 14.9980000  0  6G 8G13G10G27G19G28
 -15169546.03149 -11806551.03848  19857199.4204   19857196.4004
      1498.8284
   6146856.15049   4789618.56447  21303400.9284   21303398.1074
     -2492.1874
  -6848535.97749  -5324246.27347  22547062.7954   22547060.2874
        44.8284
  -7190288.10349  -5596560.57048  19996024.9514   19996021.4044
       388.4384
 -11683876.56049  -9100476.14048  21840792.1624   21840787.5414
        30.3134
 -14627811.09749 -11392295.55548  21158454.7174   21158450.9674
      2693.6254
 04  9 14 22 27 29.9980000  0  6G 8G13G10G27G19G28
 -15191996.56349 -11824044.94448  19852927.4364   19852924.0614
      1494.7344
   6184283.67549   4818782.84647  21310523.4044   21310520.5644
     -2497.9694
  -6849139.55049  -5324716.59247  22546947.9674   22546945.6824
        35.6884
  -7196086.30549  -5601078.65148  19994921.5844   19994918.0884
       384.7974
 -11684260.18049  -9100775.05647  21840719.1314   21840714.6474
        20.8914
 -14668173.92749 -11423747.08548  21150773.8344   21150770.3774
      2688.2664
 04  9 14 22 27 44.9980000  0  6G 8G13G10G27G19G28
 -15214386.30149 -11841491.49348  19848666.5764   19848663.0494
      1490.6414
   6221794.89949   4848012.33747  21317661.7174   21317658.6274
     -2503.5474
  -6849607.15549  -5325080.97247  22546859.1474   22546856.5644
        26.6414
  -7201831.43449  -5605555.37248  19993828.3814   19993824.9594
       381.2664
 -11684503.88349  -9100964.96147  21840672.9284   21840667.7644
        11.5944
 -14708458.11849 -11455137.33848  21143108.2094   21143104.5614
      2682.9844
 04  9 14 22 27 59.9980000  0  6G 8G13G10G27G19G28
 -15236712.20649 -11858888.29548  19844418.1624   19844414.5494
      1486.4224
   6259392.72849   4877309.32547  21324816.3424   21324813.7524
     -2509.2814
  -6849935.95549  -5325337.18747  22546796.7794   22546793.9474
        17.4534
  -7207520.17049  -5609988.15248  19992745.5614   19992742.2524
       377.5314
 -11684604.53849  -9101043.37848  21840653.3814   21840648.7564
         2.0634
 -14748660.39549 -11486463.76148  21135458.1934   21135454.3974
      2677.5784
 04  9 14 22 28 14.9980000  0  6G 8G13G10G27G19G28
 -15258974.69549 -11876235.68448  19840181.7644   19840178.5614
      1482.0474
   6297076.28149   4906673.11447  21331987.2644   21331984.2174
     -2515.0624
  -6850126.61449  -5325485.76747  22546760.0684   22546757.6544
         8.0784
  -7213153.11449  -5614377.46848  19991673.6624   19991670.2684
       373.6724
 -11684562.75149  -9101010.82748  21840661.5064   21840656.7754
        -7.5314
 -14788781.25749 -11517726.75148  21127822.9754   21127819.6234
      2671.9844
 04  9 14 22 28 29.9980000  0  6G 8G13G10G27G19G28
 -15281173.46149 -11893533.41748  19835957.1624   19835954.1744
      1477.7504
   6334845.64249   4936103.74947  21339174.7564   21339171.3894
     -2520.8444
  -6850179.18549  -5325526.72447  22546750.3574   22546747.6074
        -1.0624
  -7218730.04749  -5618723.12248  19990612.5924   19990608.9984
       369.8594
 -11684378.35249  -9100867.12948  21840696.4204   21840691.5844
       -17.0784
 -14828820.57149 -11548926.18848  21120203.9364   21120200.3854
      2666.5314
 04  9 14 22 28 44.9980000  0  6G 8G13G10G27G19G28
 -15303310.13749 -11910782.76948  19831744.5144   19831741.3264
      1473.6724
   6372698.85449   4965599.73447  21346377.6394   21346374.8464
     -2526.3124
  -6850095.33149  -5325461.38147  22546765.8734   22546763.3934
       -10.0314
  -7224252.33449  -5623026.19848  19989561.7254   19989558.1394
       366.3444
 -11684053.02149  -9100613.63448  21840758.5844   21840753.8344
       -26.3124
 -14868779.76249 -11580063.20248  21112599.9754   21112596.3694
      2661.3134
 04  9 14 22 28 59.9980000  0  6G 8G13G10G27G19G28
 -15325384.31349 -11927983.41748  19827544.4434   19827541.2484
      1469.5474
   6410635.87349   4995161.01747  21353597.0924   21353593.7604
     -2531.9374
  -6849874.94549  -5325289.65047  22546807.9044   22546805.4164
       -19.2504
  -7229719.88349  -5627286.62948  19988520.9044   19988518.0574
       362.6414
 -11683586.54849  -9100250.14248  21840847.0294   21840842.9394
       -35.7814
 -14908658.63849 -11611137.62348  21105010.9594   21105007.2684
      2655.9384
 04  9 14 22 29 14.9980000  0  6G 8G13G10G27G19G28
 -15347395.29149 -11945134.81948  19823355.7254   19823352.2754
      1465.4224
   6448657.28049   5024788.06747  21360832.4124   21360829.4514
     -2537.4694
  -6849517.58149  -5325011.19347  22546876.3264   22546873.5644
       -28.2974
  -7235131.81849  -5631503.72348  19987491.4514   19987488.0414
       359.0944
 -11682978.25249  -9099776.14448  21840963.0454   21840958.4204
       -45.1874
 -14948456.45249 -11642148.88548  21097437.9044   21097433.9864
      2650.5634
 04  9 14 22 29 29.9980000  0  6G 8G13G10G27G19G28
 -15369343.69349 -11962237.47148  19819179.1784   19819175.7054
      1461.1094
   6486762.02449   5054480.04847  21368083.2564   21368080.5294
     -2543.2034
  -6849024.03249  -5324626.61747  22546970.5844   22546967.3614
       -37.5004
  -7240488.81749  -5635678.01548  19986472.2724   19986468.5334
       355.2664
 -11682228.93249  -9099192.25648  21841105.4044   21841100.5294
       -54.7344
 -14988173.77749 -11673097.42548  21089879.8734   21089876.1234
      2645.0784
 04  9 14 22 29 44.9980000  0  6G 8G13G10G27G19G28
 -15391227.45449 -11979289.74648  19815014.9514   19815011.3224
      1456.7814
   6524951.64549   5084238.17047  21375350.4434   21375348.1114
     -2548.6724
  -6848392.64749  -5324134.63547  22547090.1704   22547088.0924
       -46.5624
  -7245789.00049  -5639808.02048  19985463.4904   19985460.3384
       351.5944
 -11681336.91049  -9098497.17747  21841275.5844   21841270.9124
       -64.1874
 -15027808.85049 -11703981.88148  21082337.7874   21082333.6274
      2639.6724
 04  9 14 22 29 59.9980000  0  6G 8G13G10G27G19G28
 -15413048.05349 -11996292.80148  19810862.4594   19810859.2754
      1452.6564
   6563224.78349   5114061.36247  21382633.6934   21382630.8894
     -2554.2814
  -6847624.85049  -5323536.35747  22547236.7564   22547233.9594
       -55.5944
  -7251033.42249  -5643894.57848  19984465.4594   19984462.2014
       347.8594
 -11680303.32549  -9097691.77948  21841471.9514   21841467.2564
       -73.5944
 -15067362.60749 -11734802.95748  21074810.8974   21074807.1044
      2634.2814
 04  9 14 22 30 14.9980000  0  6G 8G13G10G27G19G28
 -15434805.20849 -12013246.41748  19806722.3344   19806718.5224
      1448.3284
   6601581.22849   5143949.47647  21389932.5064   21389929.9474
     -2559.9694
  -6846720.73049  -5322831.85947  22547408.2874   22547405.6974
       -64.8754
  -7256222.16849  -5647937.76148  19983478.3424   19983474.1624
       343.9844
 -11679128.27649  -9096776.15548  21841695.8264   21841690.7014
       -83.1094
 -15106835.03249 -11765560.66848  21067299.3504   21067295.5024
      2628.7504
 04  9 14 22 30 29.9980000  0  6G 8G13G10G27G19G28
 -15456498.53749 -12030150.30248  19802593.7954   19802590.7874
      1444.1884
   6640020.97049   5173902.49247  21397247.8034   21397244.7994
     -2565.3444
  -6845680.11949  -5322020.98847  22547606.2014   22547604.0064
       -73.8754
  -7261354.57449  -5651937.04448  19982501.2644   19982498.1354
       340.3914
 -11677811.46849  -9095750.07948  21841946.0684   21841941.3464
       -92.4064
 -15146225.79049 -11796254.74748  21059803.8264   21059799.6434
      2623.4064
 04  9 14 22 30 44.9980000  0  6G 8G13G10G27G19G28
 -15478128.05249 -12047004.46248  19798478.0374   19798474.8074
      1439.7034
   6678543.65249   5203920.14747  21404578.5064   21404575.3894
     -2571.0164
  -6844503.39449  -5321104.05847  22547829.8814   22547827.7404
       -83.0624
  -7266431.04049  -5655892.72548  19981535.4284   19981531.8654
       336.5474
 -11676353.21649  -9094613.77648  21842223.6704   21842219.2094
      -102.0314
 -15185535.00249 -11826885.28348  21052323.3034   21052319.7724
      2617.8444
 04  9 14 22 30 59.9980000  0  6G 8G13G10G27G19G28
 -15499693.82849 -12063808.96348  19794373.9984   19794370.9394
      1435.6884
   6717148.96849   5234002.18247  21411924.6784   21411922.0024
     -2576.3284
  -6843190.88049  -5320081.32647  22548079.9674   22548077.2874
       -91.9064
  -7271451.40449  -5659804.69548  19980580.1624   19980576.7564
       332.9844
 -11674753.59449  -9093367.30548  21842527.9824   21842523.4204
      -111.2814
 -15224762.71849 -11857452.30948  21044858.7794   21044854.7684
      2612.6094
 04  9 14 22 31 14.9980000  0  6G 8G13G10G27G19G28
 -15521195.89149 -12080563.81048  19790282.5144   19790279.3814
      1431.3284
   6755836.62249   5264148.37647  21419286.9904   21419283.7874
     -2581.9064
  -6841742.72149  -5318952.90047  22548355.6234   22548353.5104
      -101.1254
  -7276415.64549  -5663672.93448  19979635.3894   19979632.2364
       329.1094
 -11673012.54549  -9092010.64048  21842859.6864   21842854.6934
      -120.8124
 -15263908.88049 -11887955.78748  21037409.3654   21037405.3034
      2607.0164
 04  9 14 22 31 29.9980000  0  6G 8G13G10G27G19G28
 -15542633.89849 -12097268.74348  19786203.0454   19786199.3574
      1427.1564
   6794606.28849   5294358.48647  21426664.0684   21426661.6894
     -2587.2664
  -6840159.00449  -5317718.84347  22548657.0534   22548654.4044
      -110.0314
  -7281323.76249  -5667497.44448  19978701.3264   19978698.0534
       325.4384
 -11671130.27049  -9090543.92948  21843217.7564   21843212.6664
      -130.0944
 -15302973.39449 -11918395.64448  21029975.5374   21029971.7914
      2601.6414
 04  9 14 22 31 44.9980000  0  6G 8G13G10G27G19G28
 -15564007.37949 -12113923.39848  19782135.6784   19782132.2724
      1422.7504
   6833458.38149   5324632.80047  21434057.5374   21434055.1044
     -2592.8594
  -6838439.26349  -5316378.78247  22548983.8974   22548981.7754
      -119.1874
  -7286174.85349  -5671277.51648  19977778.2404   19977775.0024
       321.5634
 -11669106.07249  -9088966.63648  21843602.7254   21843598.1074
      -139.6564
 -15341955.53249 -11948771.31848  21022557.2324   21022553.3894
      2596.0784
 04  9 14 22 31 59.9980000  0  6G 8G13G10G27G19G28
 -15585315.57449 -12130527.17948  19778080.9904   19778077.2054
      1418.3594
   6872393.45549   5354971.79347  21441466.8344   21441463.7444
     -2598.3914
  -6836582.98749  -5314932.34247  22549337.4434   22549335.4324
      -128.2814
  -7290968.28049  -5675012.65648  19976866.3424   19976862.5804
       317.6254
 -11666939.38649  -9087278.30448  21844014.9984   21844010.1194
      -149.1564
 -15380854.59149 -11979082.24148  21015154.9594   21015151.6824
      2590.5004
 04  9 14 22 32 14.9980000  0  6G 8G13G10G27G19G28
 -15606558.39849 -12147080.01548  19774038.8034   19774035.5224
      1414.0944
   6911411.19449   5385375.20247  21448891.5144   21448888.7564
     -2603.8594
  -6834590.41249  -5313379.67647  22549716.2174   22549713.9434
      -137.3124
  -7295703.84249  -5678702.70548  19975964.9594   19975961.6974
       313.9534
 -11664630.31449  -9085479.02347  21844454.5454   21844449.6544
      -158.5474
 -15419670.46249 -12009328.36148  21007768.5844   21007764.9904
      2585.0944
 04  9 14 22 32 29.9980000  0  6G 8G13G10G27G19G28
 -15627737.60549 -12163583.30348  19770008.1474   19770004.8224
      1409.8754
   6950509.25649   5415841.20247  21456331.8504   21456329.1474
     -2609.2034
  -6832463.66649  -5311722.48447  22550120.9904   22550118.7754
      -146.2194
  -7300383.72249  -5682349.36748  19975074.4044   19975071.0224
       310.1884
 -11662180.99149  -9083570.45247  21844920.6154   21844916.2294
      -167.9534
 -15458405.19149 -12039511.24348  21000397.9044   21000393.6974
      2579.6254
 04  9 14 22 32 44.9980000  0  6G 8G13G10G27G19G28
 -15648853.36049 -12180037.12348  19765989.9284   19765986.7254
      1405.5634
   6989687.39949   5446369.59347  21463787.0374   21463784.3614
     -2614.4694
  -6830202.89549  -5309960.84647  22550551.4364   22550549.0804
      -155.1414
  -7305007.83249  -5685952.57648  19974194.4754   19974191.0614
       306.3754
 -11659591.51349  -9081552.68148  21845413.1004   21845408.4164
      -177.2504
 -15497058.78249 -12069630.89548  20993041.8034   20993038.1314
      2574.2194
 04  9 14 22 32 59.9980000  0  6G 8G13G10G27G19G28
 -15669905.17849 -12196441.12748  19761983.9284   19761980.7214
      1401.3134
   7028945.96049   5476960.65247  21471257.4514   21471255.4594
     -2619.8754
  -6827807.86049  -5308094.58747  22551007.2564   22551005.0064
      -164.0784
  -7309575.41549  -5689511.73148  19973325.4124   19973321.7994
       302.6094
 -11656861.23149  -9079425.18947  21845932.7874   21845928.0844
      -186.7664
 -15535630.64049 -12099686.86348  20985702.2254   20985698.6544
      2568.7344
 04  9 14 22 33 14.9980000  0  6G 8G13G10G27G19G28
 -15690892.07749 -12212794.55648  19757990.2094   19757987.0374
      1397.0784
   7068285.21249   5507614.58947  21478743.7484   21478741.4284
     -2625.1564
  -6825278.12849  -5306123.37147  22551488.5684   22551486.5844
      -173.0474
  -7314085.92949  -5693026.41548  19972467.0764   19972463.6664
       298.8914
 -11653989.81549  -9077187.71947  21846479.6934   21846474.5294
      -196.0474
 -15574120.09449 -12129678.62848  20978377.7254   20978374.0454
      2563.3284
 04  9 14 22 33 29.9980000  0  6G 8G13G10G27G19G28
 -15711813.12149 -12229096.65548  19754009.1004   19754006.1074
      1392.4534
   7107705.74149   5538331.84947  21486245.2404   21486242.6664
     -2630.7814
  -6822613.14149  -5304046.77847  22551995.8574   22551993.0884
      -182.2664
  -7318538.47849  -5696495.93248  19971619.4674   19971615.5844
       294.8134
 -11650976.48949  -9074839.67147  21847052.6864   21847047.7644
      -205.6724
 -15612526.38549 -12159605.58048  20971069.4364   20971065.8814
      2557.6094
 04  9 14 22 33 44.9980000  0  6G 8G13G10G27G19G28
 -15732668.71849 -12245347.76848  19750040.4824   19750037.1664
      1388.1564
   7147206.92549   5569111.96847  21493761.6004   21493759.5024
     -2636.1414
  -6819813.29749  -5301865.09147  22552528.6474   22552525.7994
      -191.1564
  -7322933.32849  -5699920.49948  19970783.1624   19970780.1154
       291.0004
 -11647821.73049  -9072381.40947  21847652.9514   21847648.0964
      -215.0784
 -15650849.71649 -12189467.89348  20963776.4514   20963772.2994
      2552.1254
 04  9 14 22 33 59.9980000  0  6G 8G13G10G27G19G28
 -15753457.99549 -12261547.20248  19746084.5064   19746080.7324
      1383.8284
   7186789.29449   5599955.36247  21501294.5294   21501291.9124
     -2641.4694
  -6816877.95849  -5299577.80747  22553086.9984   22553084.9714
      -200.1414
  -7327269.54149  -5703299.36848  19969958.5844   19969955.0574
       287.1724
 -11644524.65149  -9069812.26548  21848280.4904   21848275.4434
      -224.4694
 -15689089.11949 -12219264.80848  20956499.9514   20956495.7524
      2546.5944
 04  9 14 22 34 14.9980000  0  6G 8G13G10G27G19G28
 -15774181.92049 -12277695.70748  19742140.7254   19742137.1934
      1379.5004
   7226451.79549   5630861.15447  21508841.7094   21508839.2054
     -2646.7504
  -6813808.21749  -5297185.80647  22553671.8034   22553669.2254
      -209.0314
  -7331547.93349  -5706633.18148  19969143.8654   19969140.4674
       283.3914
 -11641086.19449  -9067132.94947  21848934.7324   21848929.6194
      -233.8444
 -15727245.48049 -12248997.02148  20949239.1394   20949235.4984
      2541.0474
 04  9 14 22 34 29.9980000  0  6G 8G13G10G27G19G28
 -15794840.45449 -12293793.26348  19738209.6784   19738206.1544
      1375.0634
   7266193.96749   5661829.05747  21516404.4514   21516401.8544
     -2652.0474
  -6810604.57449  -5294689.48347  22554280.9364   22554278.7214
      -217.9694
  -7335768.71749  -5709922.10248  19968340.8814   19968337.5414
       279.5004
 -11637506.84249  -9064343.85147  21849615.9514   21849610.7134
      -243.2034
 -15765319.03549 -12278664.70248  20941993.9754   20941989.6624
      2535.5004
 04  9 14 22 34 44.9980000  0  6G 8G13G10G27G19G28
 -15815432.62549 -12309839.09548  19734290.7174   19734288.0104
      1370.5944
   7306016.35349   5692859.47047  21523983.0534   21523980.5454
     -2657.5164
  -6807266.23649  -5292088.16547  22554916.1624   22554914.2754
      -227.0784
  -7339930.90549  -5713165.36448  19967548.6154   19967545.0574
       275.4844
 -11633785.57849  -9061444.16347  21850324.0764   21850319.3574
      -252.8284
 -15803308.75649 -12308267.06248  20934764.4124   20934760.2564
      2529.9064
 04  9 14 22 34 59.9980000  0  6G 8G13G10G27G19G28
 -15835958.59749 -12325833.36348  19730385.3734   19730381.7094
      1366.0944
   7345918.43549   5723951.96147  21531575.8034   21531572.8464
     -2662.9224
  -6803793.76249  -5289382.34747  22555577.1074   22555574.6434
      -236.0944
  -7344034.71649  -5716363.14648  19966768.1154   19966764.5224
       271.5314
 -11629922.93849  -9058434.30947  21851059.1074   21851054.3344
      -262.3754
 -15841215.00649 -12337804.37448  20927551.3894   20927547.4754
      2524.1884
 04  9 14 22 35 14.9970000  0  6G 8G13G10G27G19G28
 -15856416.54349 -12341774.61348  19726492.0564   19726488.6884
      1361.8134
   7385897.81749   5755104.70847  21539183.4074   21539181.0994
     -2667.9224
  -6800186.99649  -5286571.88047  22556263.5014   22556261.1064
      -244.7664
  -7348079.25849  -5719514.73848  19965998.3134   19965995.0134
       267.8914
 -11625918.70949  -9055314.12747  21851820.9074   21851815.7634
      -271.5624
 -15879034.65449 -12367274.20448  20920354.4854   20920350.3174
      2518.7974
 04  9 14 22 35 29.9970000  0  6G 8G13G10G27G19G28
 -15876809.41449 -12357665.15448  19722611.4544   19722608.2394
      1357.2664
   7425959.18649   5786321.33147  21546807.1424   21546804.5794
     -2673.4374
  -6796446.09949  -5283656.92247  22556975.3134   22556973.2394
      -253.9844
  -7352065.48949  -5722620.89048  19965239.8214   19965236.5914
       263.6414
 -11621772.94749  -9052083.66647  21852609.9854   21852604.7514
      -281.1564
 -15916773.15049 -12396680.80748  20913172.7984   20913169.0874
      2513.0314
 04  9 14 22 35 44.9970000  0  6G 8G13G10G27G19G28
 -15897135.83049 -12373503.91648  19718743.6264   19718740.0834
      1352.8754
   7466099.66149   5817599.60547  21554445.3684   21554442.8534
     -2678.6724
  -6792571.37249  -5280637.66647  22557712.7904   22557710.3884
      -262.8124
  -7355992.90649  -5725681.21448  19964492.3134   19964488.9934
       259.8594
 -11617485.85849  -9048743.09047  21853425.6034   21853420.7044
      -290.5314
 -15954427.79049 -12426022.06648  20906007.1574   20906003.2824
      2507.4534
 04  9 14 22 35 59.9970000  0  6G 8G13G10G27G19G28
 -15917397.25849 -12389292.04148  19714887.7434   19714884.7674
      1348.5164
   7506317.54749   5848938.18947  21562098.8214   21562095.5754
     -2683.8284
  -6788564.59049  -5277515.49447  22558475.2674   22558472.6344
      -271.6414
  -7359863.02749  -5728696.89648  19963756.0714   19963752.4314
       255.9694
 -11613058.83749  -9045293.46447  21854268.2594   21854263.6494
      -299.9064
 -15991999.93149 -12455299.03148  20898857.4784   20898853.7744
      2501.9224
 04  9 14 22 36 14.9970000  0  6G 8G13G10G27G19G28
 -15937591.55249 -12405027.85348  19711044.7594   19711041.7124
      1344.1254
   7546614.28149   5880338.20847  21569766.8534   21569764.1574
     -2689.0314
  -6784424.05649  -5274289.11147  22559262.8374   22559260.3294
      -280.4224
  -7363673.79849  -5731666.32448  19963031.0634   19963027.4074
       252.2034
 -11608490.24849  -9041733.53747  21855137.4624   21855133.2244
      -309.2034
 -16029487.93749 -12484510.44748  20891723.9784   20891719.8764
      2496.5474
 04  9 14 22 36 29.9970000  0  6G 8G13G10G27G19G28
 -15957718.27349 -12420711.00148  19707214.8764   19707211.3494
      1339.5784
   7586990.06949   5911799.83147  21577450.2124   21577447.8104
     -2694.2974
  -6780149.54349  -5270958.33547  22560076.2204   22560074.0134
      -289.3914
  -7367424.82749  -5734589.20048  19962316.7434   19962313.6144
       248.0784
 -11603779.87049  -9038063.10247  21856033.7514   21856028.8414
      -318.6874
 -16066891.20149 -12513655.82448  20884606.2044   20884602.3024
      2490.7034
 04  9 14 22 36 44.9970000  0  6G 8G13G10G27G19G28
 -15977778.45149 -12436342.30848  19703397.7044   19703394.4074
      1335.2194
   7627443.56949   5943322.01747  21585148.1104   21585145.8024
     -2699.4694
  -6775742.44349  -5267524.23147  22560914.9624   22560912.9784
      -298.2034
  -7371117.11349  -5737466.31948  19961614.2744   19961611.1304
       244.2344
 -11598928.87749  -9034283.12047  21856957.0324   21856952.3994
      -328.0624
 -16104210.85149 -12542736.05348  20877504.6814   20877500.8764
      2485.2034
 04  9 14 22 36 59.9970000  0  6G 8G13G10G27G19G28
 -15997770.30549 -12451920.36848  19699593.4074   19699590.1184
      1330.5474
   7667976.16149   5974905.82847  21592861.1734   21592858.5484
     -2704.8594
  -6771201.27549  -5263985.67847  22561779.1814   22561776.8764
      -307.1724
  -7374748.91349  -5740296.29748  19960923.2434   19960919.8724
       240.1254
 -11593935.70549  -9030392.34047  21857907.5324   21857902.0324
      -337.5624
 -16141445.02149 -12571749.67848  20870419.1264   20870414.8604
      2479.4694
 04  9 14 22 37 14.9970000  0  6G 8G13G10G27G19G28
 -16017695.24249 -12467446.29148  19695801.5404   19695798.4624
      1326.2194
   7708586.36149   6006550.10547  21600588.8134   21600586.6924
     -2709.8754
  -6766527.41749  -5260343.70847  22562668.2744   22562666.2284
      -315.9844
  -7378321.45849  -5743080.10448  19960243.2044   19960239.9624
       236.2344
 -11588801.57149  -9026391.72547  21858884.3454   21858879.5284
      -346.9844
 -16178595.04649 -12600697.72648  20863349.9074   20863345.5014
      2473.9534
 04  9 14 22 37 29.9970000  0  6G 8G13G10G27G19G28
 -16037553.89849 -12482920.56548  19692022.4544   19692019.2004
      1321.6414
   7749273.35249   6038254.22847  21608331.9314   21608329.3254
     -2715.1094
  -6761721.71549  -5256599.01447  22563583.1814   22563580.8024
      -324.8594
  -7381835.29449  -5745818.15048  19959574.7824   19959571.5564
       232.1564
 -11583527.35749  -9022281.94247  21859887.6184   21859883.1964
      -356.3124
 -16215661.54249 -12629580.69748  20856296.3294   20856292.2284
      2468.2344
 04  9 14 22 37 44.9970000  0  6G 8G13G10G27G19G28
 -16057344.46449 -12498341.77448  19688256.7824   19688253.3764
      1317.0474
   7790038.10549   6070018.92847  21616088.8454   21616086.5794
     -2720.2344
  -6756783.06049  -5252750.72947  22564522.8844   22564521.0954
      -333.7194
  -7385288.92549  -5748509.29948  19958917.2904   19958914.3374
       228.2194
 -11578111.74549  -9018061.99547  21860918.0014   21860913.6924
      -365.7344
 -16252643.13249 -12658397.49348  20849259.0174   20849254.7784
      2462.6094
 04  9 14 22 37 59.9970000  0  6G 8G13G10G27G19G28
 -16077067.47349 -12513710.34948  19684503.4624   19684500.3064
      1312.5164
   7830879.99949   6101843.77447  21623861.1264   21623858.4934
     -2725.4374
  -6751712.00849  -5248799.25547  22565487.9384   22565485.5054
      -342.5784
  -7388682.70449  -5751153.80948  19958271.5404   19958268.4114
       224.1884
 -11572555.14749  -9013732.19447  21861975.5874   21861971.1384
      -375.2504
 -16289540.05549 -12687148.32648  20842237.5014   20842233.2284
      2456.9384
 04  9 14 22 38 14.9970000  0  6G 8G13G10G27G19G28
 -16096722.67449 -12529026.08648  19680763.2284   19680760.2864
      1308.1884
   7871798.73349   6133728.46347  21631647.5564   21631645.2204
     -2730.4224
  -6746508.82749  -5244744.83747  22566478.0794   22566475.8534
      -351.2664
  -7392016.64849  -5753751.68948  19957637.3764   19957633.7674
       220.3444
 -11566857.75449  -9009292.67147  21863059.9384   21863055.0094
      -384.4844
 -16326352.34249 -12715833.20848  20835232.6264   20835228.5674
      2451.3914
 04  9 14 22 38 29.9970000  0  6G 8G13G10G27G19G28
 -16116309.83549 -12544288.81348  19677035.9784   19677032.9504
      1303.5784
   7912794.36849   6165673.08747  21639449.1184   21639446.2784
     -2735.5004
  -6741173.34549  -5240587.31947  22567493.1424   22567490.8454
      -359.9844
  -7395290.30849  -5756302.58948  19957014.3064   19957010.9154
       216.3134
 -11561019.31749  -9004743.23847  21864170.8294   21864166.1264
      -393.8914
 -16363079.51449 -12744451.76148  20828243.6964   20828239.6064
      2445.7194
 04  9 14 22 38 44.9970000  0  6G 8G13G10G27G19G28
 -16135829.88549 -12559499.23748  19673321.4384   19673317.9034
      1299.2194
   7953865.55249   6197676.57447  21647265.0564   21647262.3174
     -2740.4694
  -6735706.84049  -5236327.70447  22568533.5014   22568531.4354
      -368.7504
  -7398504.64549  -5758807.27848  19956402.4314   19956399.0914
       212.3914
 -11555041.06949  -9000084.87647  21865308.7594   21865303.9154
      -403.1094
 -16399722.76849 -12773004.92548  20821270.7674   20821265.9034
      2440.1724
 04  9 14 22 38 59.9970000  0  6G 8G13G10G27G19G28
 -16155282.29349 -12574656.96348  19669619.6814   19669616.4744
      1294.6724
   7995012.45449   6229739.05947  21655094.6884   21655092.3294
     -2745.5624
  -6730109.20649  -5231965.94047  22569598.7594   22569596.7474
      -377.4374
  -7401659.32449  -5761265.46548  19955802.4384   19955799.1774
       208.3594
 -11548922.72249  -8995317.33447  21866473.0634   21866468.1814
      -412.4374
 -16436281.68149 -12801492.38048  20814313.7594   20814309.2714
      2434.5004
 04  9 14 22 39 14.9970000  0  6G 8G13G10G27G19G28
 -16174666.85949 -12589761.80348  19665930.9704   19665927.3024
      1290.0474
   8036235.02849   6261860.53147  21662939.4384   21662936.6814
     -2750.5784
  -6724380.42949  -5227501.96347  22570689.0174   22570686.9974
      -386.2814
  -7404753.92449  -5763676.84648  19955213.4234   19955209.8924
       204.3914
 -11542664.18249  -8990440.54647  21867663.7744   21867659.4894
      -421.8444
 -16472755.97649 -12829913.88548  20807372.6574   20807368.6344
      2428.8914
 04  9 14 22 39 29.9970000  0  6G 8G13G10G27G19G28
 -16193984.14849 -12604814.23948  19662254.8454   19662251.9934
      1285.5164
   8077532.37649   6294040.24547  21670797.3534   21670795.0914
     -2755.6414
  -6718521.34449  -5222936.44347  22571803.6344   22571801.7244
      -394.9224
  -7407789.08749  -5766041.91248  19954636.0014   19954632.8884
       200.3284
 -11536266.19149  -8985455.11147  21868881.0094   21868876.8374
      -431.2504
 -16509146.27849 -12858269.94548  20800447.6264   20800443.6034
      2423.2194
 04  9 14 22 39 44.9970000  0  6G 8G13G10G27G19G28
 -16213233.43249 -12619813.67348  19658591.8134   19658588.2864
      1281.0164
   8118904.94449   6326278.57147  21678670.6884   21678668.2824
     -2760.6254
  -6712531.46149  -5218269.01547  22572943.5484   22572941.6854
      -403.7194
  -7410763.98049  -5768360.00648  19954069.8294   19954066.4584
       196.3594
 -11529728.04649  -8980360.45147  21870125.2354   21870121.0244
      -440.6094
 -16545451.77249 -12886559.91548  20793539.2044   20793535.0674
      2417.4694
